[[{"header":{"parameterUnit":"m.s-1","parameterCategory":1,"la1":30.6,"la2":28.766,"lo1":-90.7593,"lo2":-88.6598,"dx":0.0162,"dy":0.0183,"nx":116,"ny":114,"refTime":"2023-01-01T18:00:00:Z","depth":0,"parameterNumber":2,"parameterNumberName":"U-component_of_WINDS"},"data":[0.0,0.0,0.0,0.0,0.0,0.0,0.0,0.0,0.0,0.0,0.0,0.0,0.0,0.0,0.0,0.0,0.0,0.0,0.0,0.0,0.0,0.0,0.0,0.0,0.0,0.0,0.0,0.0,0.0,0.0,0.0,0.0,0.0,0.0,0.0,0.0,0.0,0.0,0.0,0.0,0.0,0.0,0.0,0.0,0.0,0.0,0.0,0.0,0.0,0.0,0.0,0.0,0.0,0.0,0.0,0.0,0.0,0.0,0.0,0.0,0.0,0.0,0.0,0.0,0.0,0.0,0.0,0.0,0.0,0.0,0.0,0.0,0.0,0.0,0.0,0.0,0.0,0.0,0.0,0.0,0.0,0.0,0.0,0.0,0.0,0.0,0.0,0.0,0.0,0.0,0.0,0.0,0.0,0.0,0.0,0.0,0.0,0.0,0.0,0.0,0.0,0.0,0.0,0.0,0.0,0.0,0.0,0.0,0.0,0.0,0.0,0.0,0.0,0.0,0.0,0.0,0.0,0.0,0.0,0.0,0.0,0.0,0.0,0.0,0.0,0.0,0.0,0.0,0.0,0.0,0.0,0.0,0.0,0.0,0.0,0.0,0.0,0.0,0.0,0.0,0.0,0.0,0.0,0.0,0.0,0.0,0.0,0.0,0.0,0.0,0.0,0.0,0.0,0.0,0.0,0.0,0.0,0.0,0.0,0.0,0.0,0.0,0.0,0.0,0.0,0.0,0.0,0.0,0.0,0.0,0.0,0.0,0.0,0.0,0.0,0.0,0.0,0.0,0.0,0.0,0.0,0.0,0.0,0.0,0.0,0.0,0.0,0.0,0.0,0.0,0.0,0.0,0.0,0.0,0.0,0.0,0.0,0.0,0.0,0.0,0.0,0.0,0.0,0.0,0.0,0.0,0.0,0.0,0.0,0.0,0.0,0.0,0.0,0.0,0.0,0.0,0.0,0.0,0.0,0.0,0.0,0.0,0.0,0.0,0.0,0.0,0.0,0.0,0.0,0.0,0.0,0.0,0.0,0.0,0.0,0.0,0.0,0.0,0.0,0.0,0.0,0.0,0.0,0.0,0.0,0.0,0.0,0.0,0.0,0.0,0.0,0.0,0.0,0.0,0.0,0.0,0.0,0.0,0.0,0.0,0.0,0.0,0.0,0.0,0.0,0.0,0.0,0.0,0.0,0.0,0.0,0.0,0.0,0.0,0.0,0.0,0.0,0.0,0.0,0.0,0.0,0.0,0.0,0.0,0.0,0.0,0.0,0.0,0.0,0.0,0.0,0.0,0.0,0.0,0.0,0.0,0.0,0.0,0.0,0.0,0.0,0.0,0.0,0.0,0.0,0.0,0.0,0.0,0.0,0.0,0.0,0.0,0.0,0.0,0.0,0.0,0.0,0.0,0.0,0.0,0.0,0.0,0.0,0.0,0.0,0.0,0.0,0.0,0.0,0.0,0.0,0.0,0.0,0.0,0.0,0.0,0.0,0.0,0.0,0.0,0.0,0.0,0.0,0.0,0.0,0.0,0.0,0.0,0.0,0.0,0.0,0.0,0.0,0.0,0.0,0.0,0.0,0.0,0.0,0.0,0.0,0.0,0.0,0.0,0.0,0.0,0.0,0.0,0.0,0.0,0.0,0.0,0.0,0.0,0.0,0.0,0.0,0.0,0.0,0.0,0.0,0.0,0.0,0.0,0.0,0.0,0.0,0.0,0.0,0.0,0.0,0.0,0.0,0.0,0.0,0.0,0.0,0.0,0.0,0.0,0.0,0.0,0.0,0.0,0.0,0.0,0.0,0.0,0.0,0.0,0.0,0.0,0.0,0.0,0.0,0.0,0.0,0.0,0.0,0.0,0.0,0.0,0.0,0.0,0.0,0.0,0.0,0.0,0.0,0.0,0.0,0.0,0.0,0.0,0.0,0.0,0.0,0.0,0.0,0.0,0.0,0.0,0.0,0.0,0.0,0.0,0.0,0.0,0.0,0.0,0.0,0.0,0.0,0.0,0.0,0.0,0.0,0.0,0.0,0.0,0.0,0.0,0.0,0.0,0.0,0.0,0.0,0.0,0.0,0.0,0.0,0.0,0.0,0.0,0.0,0.0,0.0,0.0,0.0,0.0,0.0,0.0,0.0,0.0,0.0,0.0,0.0,0.0,0.0,0.0,0.0,0.0,0.0,0.0,0.0,0.0,0.0,0.0,0.0,0.0,0.0,0.0,0.0,0.0,0.0,0.0,0.0,0.0,0.0,0.0,0.0,0.0,0.0,0.0,0.0,0.0,0.0,0.0,0.0,0.0,0.0,0.0,0.0,0.0,0.0,0.0,0.0,0.0,0.0,0.0,0.0,0.0,0.0,0.0,0.0,0.0,0.0,0.0,0.0,0.0,0.0,0.0,0.0,0.0,0.0,0.0,0.0,0.0,0.0,0.0,0.0,0.0,0.0,0.0,0.0,0.0,0.0,0.0,0.0,0.0,0.0,0.0,0.0,0.0,0.0,0.0,0.0,0.0,0.0,0.0,0.0,0.0,0.0,0.0,0.0,0.0,0.0,0.0,0.0,0.0,0.0,0.0,0.0,0.0,0.0,0.0,0.0,0.0,0.0,0.0,0.0,0.0,0.0,0.0,0.0,0.0,0.0,0.0,0.0,0.0,0.0,0.0,0.0,0.0,0.0,0.0,0.0,0.0,0.0,0.0,0.0,0.0,0.0,0.0,0.0,0.0,0.0,0.0,0.0,0.0,0.0,0.0,0.0,0.0,0.0,0.0,0.0,0.0,0.0,0.0,0.0,0.0,0.0,0.0,0.0,0.0,0.0,0.0,0.0,0.0,0.0,0.0,0.0,0.0,0.0,0.0,0.0,0.0,0.0,0.0,0.0,0.0,0.0,0.0,0.0,0.0,0.0,0.0,0.0,0.0,0.0,0.0,0.0,0.0,0.0,0.0,0.0,0.0,0.0,0.0,0.0,0.0,0.0,0.0,0.0,0.0,0.0,0.0,0.0,0.0,0.0,0.0,0.0,0.0,0.0,0.0,0.0,0.0,0.0,0.0,0.0,0.0,0.0,0.0,0.0,0.0,0.0,0.0,0.0,0.0,0.0,0.0,0.0,0.0,0.0,0.0,0.0,0.0,0.0,0.0,0.0,0.0,0.0,0.0,0.0,0.0,0.0,0.0,0.0,0.0,0.0,0.0,0.0,0.0,0.0,0.0,0.0,0.0,0.0,0.0,0.0,0.0,0.0,0.0,0.0,0.0,0.0,0.0,0.0,0.0,0.0,0.0,0.0,0.0,0.0,0.0,0.0,0.0,0.0,0.0,0.0,0.0,0.0,0.0,0.0,0.0,0.0,0.0,0.0,0.0,0.0,0.0,0.0,0.0,0.0,0.0,0.0,0.0,0.0,0.0,0.0,0.0,0.0,0.0,0.0,0.0,0.0,0.0,0.0,0.0,0.0,0.0,0.0,0.0,0.0,0.0,0.0,0.0,0.0,0.0,0.0,0.0,0.0,0.0,0.0,0.0,0.0,0.0,0.0,0.0,0.0,0.0,0.0,0.0,0.0,0.0,0.0,0.0,0.0,0.0,0.0,0.0,0.0,0.0,0.0,0.0,0.0,0.0,0.0,0.0,0.0,0.0,0.0,0.0,0.0,0.0,0.0,0.0,0.0,0.0,0.0,0.0,0.0,0.0,0.0,0.0,0.0,0.0,0.0,0.0,0.0,0.0,0.0,0.0,0.0,0.0,0.0,0.0,0.0,0.0,0.0,0.0,0.0,0.0,0.0,0.0,0.0,0.0,0.0,0.0,0.0,0.0,0.0,0.0,0.0,0.0,0.0,0.0,0.0,0.0,0.0,0.0,0.0,0.0,0.0,0.0,0.0,0.0,0.0,0.0,0.0,0.0,0.0,0.0,0.0,0.0,0.0,0.0,0.0,0.0,0.0,0.0,0.0,0.0,0.0,0.0,0.0,0.0,0.0,0.0,0.0,0.0,0.0,0.0,0.0,0.0,0.0,0.0,0.0,0.0,0.0,0.0,0.0,0.0,0.0,0.0,0.0,0.0,0.0,0.0,0.0,0.0,0.0,0.0,0.0,0.0,0.0,0.0,0.0,0.0,0.0,0.0,0.0,0.0,0.0,0.0,0.0,0.0,0.0,0.0,0.0,0.0,0.0,0.0,0.0,0.0,0.0,0.0,0.0,0.0,0.0,0.0,0.0,0.0,0.0,0.0,0.0,0.0,0.0,0.0,0.0,0.0,0.0,0.0,0.0,0.0,0.0,0.0,0.0,0.0,0.0,0.0,0.0,0.0,0.0,0.0,0.0,0.0,0.0,0.0,0.0,0.0,0.0,0.0,0.0,0.0,0.0,0.0,0.0,0.0,0.0,0.0,0.0,0.0,0.0,0.0,0.0,0.0,0.0,0.0,0.0,0.0,0.0,0.0,0.0,0.0,0.0,0.0,0.0,0.0,0.0,0.0,0.0,0.0,0.0,0.0,0.0,0.0,0.0,0.0,0.0,0.0,0.0,0.0,0.0,0.0,0.0,0.0,0.0,0.0,0.0,0.0,0.0,0.0,0.0,0.0,0.0,0.0,0.0,0.0,0.0,0.0,0.0,0.0,0.0,0.0,0.0,0.0,0.0,0.0,0.0,0.0,0.0,0.0,0.0,0.0,0.0,0.0,0.0,0.0,0.0,0.0,0.0,0.0,0.0,0.0,0.0,0.0,0.0,0.0,0.0,0.0,0.0,0.0,0.0,0.0,0.0,0.0,0.0,0.0,0.0,0.0,0.0,0.0,0.0,0.0,0.0,0.0,0.0,0.0,0.0,0.0,0.0,0.0,0.0,0.0,0.0,0.0,0.0,0.0,0.0,0.0,0.0,0.0,0.0,0.0,0.0,0.0,0.0,0.0,0.0,0.0,0.0,0.0,0.0,0.0,0.0,0.0,0.0,0.0,0.0,0.0,0.0,0.0,0.0,0.0,0.0,0.0,0.0,0.0,0.0,0.0,0.0,0.0,0.0,0.0,0.0,0.0,0.0,0.0,0.0,0.0,0.0,0.0,0.0,0.0,0.0,0.0,0.0,0.0,0.0,0.0,0.0,0.0,0.0,0.0,0.0,0.0,0.0,0.0,0.0,0.0,0.0,0.0,0.0,0.0,0.0,0.0,0.0,0.0,0.0,0.0,0.0,0.0,0.0,0.0,0.0,0.0,0.0,0.0,0.0,0.0,0.0,0.0,0.0,0.0,0.0,0.0,0.0,0.0,0.0,0.0,0.0,0.0,0.0,0.0,0.0,0.0,0.0,0.0,0.0,0.0,0.0,0.0,0.0,0.0,0.0,0.0,0.0,0.0,0.0,0.0,0.0,0.0,0.0,0.0,0.0,0.0,0.0,0.0,0.0,0.0,0.0,0.0,0.0,0.0,0.0,0.0,0.0,0.0,0.0,0.0,0.0,0.0,0.0,0.0,0.0,0.0,0.0,0.0,0.0,0.0,0.0,0.0,0.0,0.0,0.0,0.0,0.0,0.0,0.0,0.0,0.0,0.0,0.0,0.0,0.0,0.0,0.0,0.0,0.0,0.0,0.0,0.0,0.0,0.0,0.0,0.0,0.0,0.0,0.0,0.0,0.0,0.0,0.0,0.0,0.0,0.0,0.0,0.0,0.0,0.0,0.0,0.0,0.0,0.0,0.0,0.0,0.0,0.0,0.0,0.0,0.0,0.0,0.0,0.0,0.0,0.0,0.0,0.0,0.0,0.0,0.0,0.0,0.0,0.0,0.0,0.0,0.0,0.0,0.0,0.0,0.0,0.0,0.0,0.0,0.0,0.0,0.0,0.0,0.0,0.0,0.0,0.0,0.0,0.0,0.0,0.0,0.0,0.0,0.0,0.0,0.0,0.0,0.0,0.0,0.0,0.0,0.0,0.0,0.0,0.0,0.0,0.0,0.0,0.0,0.0,0.0,0.0,0.0,0.0,0.0,0.0,0.0,0.0,0.0,0.0,0.0,0.0,0.0,0.0,0.0,0.0,0.0,0.0,0.0,0.0,0.0,0.0,0.0,0.0,0.0,0.0,0.0,0.0,0.0,0.0,0.0,0.0,0.0,-1.7254,-1.5497,0.0,0.0,0.0,0.0,0.0,0.0,0.0,0.0,0.0,0.0,0.0,0.0,0.0,0.0,0.0,0.0,0.0,0.0,0.0,0.0,0.0,0.0,0.0,0.0,0.0,0.0,0.0,0.0,0.0,0.0,0.0,0.0,0.0,0.0,0.0,0.0,-1.5402,-1.6189,-1.6997,-1.8239,-1.9792,-1.8639,-1.6949,-1.4852,0.0,0.0,0.0,0.0,0.0,0.0,0.0,0.0,0.0,0.0,0.0,0.0,0.0,0.0,0.0,0.0,0.0,0.0,0.0,0.0,0.0,0.0,0.0,0.0,0.0,0.0,0.0,0.0,0.0,0.0,0.0,0.0,0.0,0.0,0.0,0.0,0.0,0.0,0.0,0.0,0.0,0.0,0.0,0.0,0.0,0.0,0.0,0.0,0.0,0.0,0.0,0.0,0.0,0.0,0.0,0.0,0.0,0.0,0.0,0.0,0.0,0.0,0.0,0.0,0.0,0.0,0.0,0.0,0.0,0.0,-1.7701,-1.6651,0.0,0.0,0.0,0.0,0.0,0.0,0.0,0.0,0.0,0.0,0.0,0.0,0.0,0.0,0.0,0.0,0.0,0.0,0.0,0.0,0.0,0.0,0.0,-1.3582,-1.3606,-1.3022,-1.2681,-1.272,0.0,0.0,0.0,0.0,0.0,0.0,-1.4484,-1.4991,-1.6126,-1.7941,-1.9187,-2.0914,-2.304,-2.3323,-2.1835,-1.8883,-1.7565,0.0,0.0,0.0,0.0,0.0,0.0,0.0,0.0,0.0,0.0,0.0,0.0,0.0,0.0,0.0,0.0,0.0,0.0,0.0,0.0,0.0,0.0,0.0,0.0,0.0,0.0,0.0,0.0,0.0,0.0,0.0,0.0,0.0,0.0,0.0,0.0,0.0,0.0,0.0,0.0,0.0,0.0,0.0,0.0,0.0,0.0,0.0,0.0,0.0,0.0,0.0,0.0,0.0,0.0,0.0,0.0,0.0,0.0,0.0,0.0,0.0,0.0,0.0,-1.8751,-1.893,-1.835,-1.8496,-1.8724,-1.9014,-1.8616,-1.847,-1.8383,-1.7106,0.0,0.0,0.0,0.0,0.0,0.0,0.0,0.0,0.0,0.0,0.0,0.0,0.0,0.0,0.0,0.0,0.0,0.0,0.0,0.0,0.0,-1.3359,-1.308,-1.2918,-1.2919,-1.3287,-1.4163,0.0,0.0,0.0,0.0,0.0,-1.3651,-1.462,-1.5849,-1.7315,-2.192,-2.479,-2.5983,-2.7384,-2.7519,-2.6445,-2.2056,-2.0001,-1.9686,0.0,0.0,0.0,0.0,0.0,0.0,0.0,0.0,0.0,0.0,0.0,0.0,0.0,0.0,0.0,0.0,0.0,0.0,0.0,0.0,0.0,0.0,0.0,0.0,0.0,0.0,0.0,0.0,0.0,0.0,0.0,0.0,0.0,0.0,0.0,0.0,0.0,0.0,0.0,0.0,0.0,-1.6914,-1.632,0.0,0.0,0.0,0.0,0.0,0.0,0.0,0.0,0.0,0.0,0.0,0.0,0.0,-1.7005,-1.7957,-1.8034,-1.8414,-1.9079,-1.9563,-1.9732,-1.9687,-2.042,-2.08,-2.0898,-2.1204,0.0,-1.804,-1.7503,0.0,0.0,0.0,0.0,0.0,0.0,0.0,0.0,0.0,0.0,0.0,0.0,0.0,0.0,0.0,0.0,0.0,0.0,0.0,0.0,0.0,-1.4326,-1.4251,-1.3635,-1.299,-1.288,-1.3525,-1.2954,0.0,0.0,0.0,-1.3711,-1.3821,-1.5024,-1.7042,-1.9905,-2.3821,-2.6057,-2.6736,-2.776,-2.8081,-2.7817,-2.602,-2.4235,-2.246,-2.1167,0.0,0.0,0.0,0.0,0.0,0.0,0.0,0.0,0.0,0.0,0.0,0.0,0.0,0.0,0.0,0.0,0.0,0.0,0.0,0.0,0.0,0.0,0.0,0.0,0.0,0.0,0.0,0.0,0.0,0.0,0.0,0.0,0.0,0.0,0.0,0.0,0.0,0.0,0.0,-1.7055,-1.6945,-1.7395,-1.5558,-1.4176,0.0,0.0,0.0,0.0,0.0,0.0,0.0,0.0,0.0,-1.4908,-1.5817,-1.6929,-1.8146,-1.8415,-1.9184,-2.0381,-2.0527,-2.0781,-2.1035,-2.1426,-2.1602,-2.1611,-2.1807,-2.124,-2.0117,-1.9189,-1.8154,-1.7142,0.0,0.0,0.0,0.0,-1.74,-1.6848,0.0,0.0,0.0,0.0,0.0,0.0,0.0,0.0,0.0,0.0,0.0,0.0,-1.4194,-1.472,-1.4782,-1.411,-1.3108,-1.2727,-1.3232,-1.2284,-1.193,-1.2426,-1.2813,-1.3262,-1.3774,-1.5365,-1.7998,-2.1686,-2.4418,-2.6162,-2.6922,-2.7833,-2.8299,-2.8333,-2.8985,-2.7787,-2.5185,-2.4329,-2.2397,-1.971,0.0,0.0,0.0,0.0,0.0,0.0,0.0,0.0,0.0,0.0,0.0,0.0,0.0,0.0,0.0,0.0,0.0,0.0,0.0,0.0,0.0,0.0,0.0,0.0,0.0,0.0,0.0,0.0,0.0,0.0,0.0,0.0,0.0,0.0,0.0,0.0,0.0,-1.7024,-1.6778,-1.778,-1.5455,-1.3695,0.0,0.0,0.0,0.0,0.0,0.0,-1.3406,-1.4037,-1.4634,-1.514,-1.6073,-1.7119,-1.825,-1.8619,-1.9326,-2.0423,-2.0423,-2.0632,-2.0973,-2.1076,-2.1123,-2.109,-2.1236,-2.1226,-2.109,-2.0622,-1.9795,-1.8763,-1.8161,-1.7097,-1.6063,-1.73,-1.6999,-1.6219,0.0,0.0,0.0,0.0,0.0,0.0,0.0,0.0,0.0,0.0,0.0,-1.3624,-1.4128,-1.3689,-1.3484,-1.3884,-1.3452,-1.3445,-1.4166,-1.2894,-1.2287,-1.2758,-1.2135,-1.2122,-1.2852,-1.5253,-1.7876,-2.0755,-2.3163,-2.5224,-2.6925,-2.8973,-2.986,-2.9894,-3.0387,-2.9862,-2.8445,-2.6952,-2.5598,-2.4173,-2.0916,0.0,0.0,0.0,0.0,0.0,0.0,0.0,0.0,0.0,0.0,0.0,0.0,0.0,0.0,0.0,0.0,0.0,0.0,0.0,0.0,0.0,0.0,0.0,0.0,0.0,0.0,0.0,0.0,0.0,0.0,0.0,0.0,0.0,0.0,0.0,0.0,0.0,0.0,-1.6042,-1.4985,0.0,0.0,0.0,0.0,-1.2527,-1.2409,-1.2624,-1.3165,-1.4514,-1.5486,-1.604,-1.7379,-1.8145,-1.8204,-1.8229,-1.8288,-1.8347,-1.8347,-1.8356,-1.8389,-1.877,-1.8963,-1.8988,-1.9425,-1.9376,-1.9106,-2.1016,-2.1504,-2.0905,-1.9745,-1.8806,-1.8071,-1.7405,-1.6947,-1.6723,0.0,0.0,0.0,-0.9784,-1.0079,-1.0303,-1.0303,-1.0935,-1.1581,-1.2009,-1.2835,-1.3546,-1.3948,-1.4016,-1.4087,-1.415,-1.3384,-1.2999,-1.3236,-1.2348,-1.2018,-1.258,-1.2625,-1.3445,-1.5142,-1.6773,-1.8467,-2.0195,-2.2169,-2.389,-2.5282,-2.689,-2.7803,-2.813,-2.9056,-2.9235,-2.8738,-2.8032,-2.6135,-2.3571,-2.2731,-2.0585,0.0,0.0,0.0,0.0,0.0,0.0,0.0,0.0,0.0,0.0,0.0,0.0,0.0,0.0,0.0,0.0,0.0,0.0,0.0,0.0,0.0,0.0,0.0,0.0,0.0,0.0,0.0,0.0,0.0,0.0,0.0,0.0,0.0,0.0,0.0,0.0,0.0,-1.5377,-1.4316,0.0,-1.2905,-1.305,-1.3096,-1.2948,-1.3628,-1.4108,-1.4329,-1.4811,-1.5179,-1.5395,-1.5897,-1.6477,-1.7157,-1.7157,-1.7659,-1.8586,-1.8586,-1.8753,-1.9019,-1.9196,-1.9253,-1.9261,-1.9439,-1.9422,-1.929,-2.0067,-1.9947,-1.9251,-1.882,-1.806,-1.7259,-1.7649,-1.7313,-1.6753,0.0,0.0,0.0,-0.9239,-0.9518,-0.9765,-0.9765,-1.0432,-1.1126,-1.1627,-1.2467,-1.3179,-1.3654,-1.366,-1.3631,-1.3648,-1.3257,-1.2947,-1.2748,-1.238,-1.2211,-1.2294,-1.2794,-1.3873,-1.566,-1.7102,-1.8351,-1.9375,-2.1626,-2.3226,-2.418,-2.5824,-2.6826,-2.7288,-2.8207,-2.8584,-2.843,-2.8235,-2.6873,-2.4801,-2.4582,-2.2639,-1.9776,0.0,0.0,0.0,0.0,0.0,0.0,0.0,0.0,0.0,0.0,0.0,0.0,0.0,0.0,0.0,0.0,0.0,0.0,0.0,0.0,0.0,0.0,0.0,0.0,0.0,0.0,0.0,0.0,0.0,0.0,0.0,0.0,0.0,0.0,-1.4116,-1.4289,-1.5234,-1.4216,-1.3312,-1.3035,-1.3379,-1.3403,-1.2885,-1.374,-1.4315,-1.4315,-1.4404,-1.4683,-1.511,-1.5204,-1.5609,-1.6299,-1.6352,-1.6807,-1.7781,-1.7781,-1.7949,-1.8257,-1.8257,-1.8257,-1.8257,-1.8257,-1.8257,-1.8257,-1.8257,-1.7903,-1.7414,-1.7867,-1.7523,-1.684,-1.7157,-1.6743,-1.6168,0.0,0.0,-0.8675,-0.8675,-0.8683,-0.8695,-0.8695,-0.9874,-1.1017,-1.1735,-1.2011,-1.2446,-1.3185,-1.2431,-1.2027,-1.2328,-1.3171,-1.344,-1.2851,-1.3114,-1.2889,-1.1982,-1.2536,-1.3273,-1.4193,-1.6168,-1.7589,-1.8354,-2.1477,-2.3286,-2.3976,-2.6037,-2.7256,-2.7757,-2.8115,-2.8066,-2.7738,-2.7738,-2.7949,-2.822,-2.6614,-2.481,-2.2783,0.0,0.0,0.0,0.0,0.0,0.0,0.0,0.0,0.0,0.0,0.0,0.0,0.0,0.0,0.0,0.0,0.0,0.0,0.0,0.0,0.0,0.0,0.0,0.0,0.0,0.0,0.0,0.0,0.0,0.0,0.0,0.0,0.0,-1.4691,-1.4347,-1.4318,-1.5461,-1.4657,-1.3898,-1.3558,-1.4103,-1.379,-1.2252,-1.2705,-1.2996,-1.2945,-1.3223,-1.3975,-1.5312,-1.5584,-1.5778,-1.5784,-1.5791,-1.5798,-1.5798,-1.5804,-1.5804,-1.5804,-1.5804,-1.5804,-1.5804,-1.5804,-1.5804,-1.5804,-1.5804,-1.5804,-1.5947,-1.7185,-1.7429,-1.6995,-1.5851,-1.5231,-1.5035,-0.8221,-0.8118,-0.8118,-0.8118,-0.8439,-0.8695,-0.8695,-0.9393,-1.0003,-1.0212,-1.088,-1.1571,-1.222,-1.2041,-1.2396,-1.3576,-1.3704,-1.3541,-1.3186,-1.3258,-1.3158,-1.2851,-1.4015,-1.5211,-1.6322,-1.7136,-1.8202,-1.9469,-2.1648,-2.3217,-2.4226,-2.612,-2.7412,-2.8125,-2.8242,-2.8232,-2.8125,-2.8125,-2.8021,-2.7873,-2.7546,-2.6038,-2.3948,0.0,0.0,0.0,0.0,0.0,0.0,0.0,0.0,0.0,0.0,0.0,0.0,0.0,0.0,0.0,0.0,0.0,0.0,0.0,0.0,0.0,0.0,0.0,0.0,0.0,0.0,0.0,0.0,0.0,0.0,0.0,-1.151,-1.1777,-1.3187,-1.2798,-1.2503,-1.3043,-1.2184,-1.1815,-1.2433,-1.3061,-1.3249,-1.2814,-1.3327,-1.3235,-1.2241,-1.2251,-1.2912,-1.4254,-1.4375,-1.4854,-1.5778,-1.6046,-1.6152,-1.6152,-1.6366,-1.6466,-1.6466,-1.6466,-1.6466,-1.6466,-1.6466,-1.6466,-1.6466,-1.6466,-1.6466,-1.642,-1.6368,-1.6284,-1.6161,-1.5799,-1.5658,-1.5591,-0.8057,-0.7899,-0.7808,-0.7572,-0.7773,-0.7992,-0.7992,-0.8716,-0.9306,-0.9413,-1.0257,-1.1115,-1.1826,-1.2144,-1.2763,-1.3903,-1.4214,-1.4086,-1.3512,-1.3339,-1.3338,-1.3581,-1.4629,-1.5622,-1.6411,-1.7781,-1.8644,-1.8972,-2.1942,-2.362,-2.4194,-2.6092,-2.7471,-2.8291,-2.8291,-2.8291,-2.8291,-2.8291,-2.8154,-2.7933,-2.8064,-2.6946,-2.5214,-2.5482,-2.4106,-2.2007,-2.1673,-2.0569,-1.9344,-1.9445,0.0,0.0,0.0,0.0,0.0,0.0,0.0,0.0,0.0,0.0,0.0,0.0,0.0,0.0,0.0,0.0,0.0,0.0,0.0,0.0,0.0,0.0,0.0,0.0,-1.1103,-1.1537,-1.2035,-1.1598,-1.1413,-1.1793,-1.1318,-1.1207,-1.1797,-1.227,-1.2269,-1.1559,-1.1977,-1.194,-1.117,-1.1147,-1.1781,-1.3155,-1.3849,-1.4551,-1.5248,-1.6065,-1.6453,-1.646,-1.6627,-1.6707,-1.6707,-1.6707,-1.6707,-1.6707,-1.6707,-1.6707,-1.6707,-1.6707,-1.6707,-1.666,0.0,0.0,0.0,0.0,-1.5784,-1.5784,-0.8214,-0.7995,-0.7821,-0.7294,-0.7147,-0.7105,-0.7105,-0.8033,-0.8864,-0.9124,-0.996,-1.0868,-1.1718,-1.2416,-1.3085,-1.3733,-1.4681,-1.4832,-1.3902,-1.3449,-1.352,-1.4115,-1.473,-1.5313,-1.584,-1.824,-1.9093,-1.8326,-2.2391,-2.4326,-2.4165,-2.6078,-2.7441,-2.8223,-2.8223,-2.8193,-2.8144,-2.8144,-2.8144,-2.8144,-2.8144,-2.75,-2.6445,-2.5712,-2.459,-2.3354,-2.2607,-2.1533,-2.043,-2.001,0.0,0.0,0.0,0.0,0.0,0.0,0.0,0.0,0.0,0.0,0.0,0.0,0.0,0.0,0.0,0.0,0.0,0.0,0.0,0.0,0.0,0.0,0.0,0.0,-1.0689,-1.1554,-1.1013,-1.057,-1.0557,-1.1261,-1.121,-1.1157,-1.1305,-1.1554,-1.1123,-0.9698,-0.9857,-0.9962,-0.9813,-0.9962,0.0,0.0,0.0,-1.4242,-1.4496,-1.5865,-1.6603,-1.676,-1.6787,-1.6807,-1.6807,-1.6807,-1.6807,-1.6807,-1.6807,-1.6807,-1.6807,-1.6807,-1.6787,-1.6727,-1.6433,-1.6375,-1.6286,-1.5985,-1.5879,-1.5872,-0.8829,-0.8541,-0.8513,-0.839,-0.8008,-0.7725,-0.7725,-0.8147,-0.8564,-0.8851,-0.9653,-1.0448,-1.1089,-1.1883,-1.2915,-1.4385,-1.5039,-1.5215,-1.4857,-1.4004,-1.378,-1.4409,-1.5224,-1.66,-1.8661,-1.9227,-2.0359,-2.205,-2.3621,-2.4722,-2.5391,-2.646,-2.7295,-2.7836,-2.7836,-2.7588,-2.7266,-2.7266,-2.7266,-2.7266,-2.7266,-2.7324,-2.7454,-2.7278,-2.6582,-2.5693,-2.5176,-2.459,-2.4004,-2.3574,-2.2461,-2.123,-2.1064,-1.9697,0.0,0.0,0.0,0.0,0.0,0.0,0.0,0.0,0.0,0.0,0.0,0.0,0.0,0.0,0.0,0.0,0.0,0.0,0.0,-0.9817,-0.9664,-0.96,-0.9798,-0.9047,-0.8946,-1.0125,-0.9359,-0.9113,-1.0183,-1.0451,-1.0393,-1.0108,-1.023,-0.9876,-0.8857,-0.8834,-0.9413,-1.0694,-1.1039,-1.2289,-1.4496,-1.5065,-1.5906,-1.7119,-1.7301,0.0,-1.7415,-1.7415,-1.7415,-1.7415,-1.7415,-1.7415,-1.7415,-1.7415,-1.7326,-1.7085,-1.674,-1.662,-1.6587,-1.6293,-1.6186,-1.6152,-1.0298,-0.9605,-0.9019,-0.8736,-0.8646,-0.859,-0.859,-0.9174,-0.9805,-1.039,-1.109,-1.1878,-1.2769,-1.3451,-1.4236,-1.5204,-1.5497,-1.5425,-1.4879,-1.5245,-1.5514,-1.5647,-1.6956,-1.8211,-1.9488,-2.0079,-2.098,-2.2217,-2.35,-2.4551,-2.541,-2.584,-2.6504,-2.7334,-2.7119,-2.7021,-2.7012,-2.7012,-2.7012,-2.7012,-2.7012,-2.7148,-2.7344,-2.7344,-2.6943,-2.6328,-2.5889,-2.5312,-2.4678,-2.4248,-2.3389,-2.248,-2.2266,-2.1162,-1.9728,0.0,0.0,0.0,0.0,0.0,0.0,0.0,0.0,0.0,0.0,0.0,0.0,0.0,0.0,-0.8942,-0.854,0.0,-0.9123,-0.8855,-0.9034,-0.9071,-0.881,-0.8333,-0.8237,-0.892,-0.8361,-0.8231,-0.9083,-0.9145,-0.9159,-0.9322,-0.9413,-0.9153,-0.8535,-0.8554,-0.891,-0.9538,-1.0302,-1.1774,-1.3881,-1.4738,-1.5919,-1.742,-1.7515,-1.7582,-1.7582,-1.7582,-1.7582,-1.7582,-1.7582,-1.7582,-1.7582,-1.7582,-1.7495,-1.74,-1.7201,-1.6967,-1.6687,-1.6547,-1.6486,-1.6466,-1.1954,-1.0975,-0.9907,-0.9357,-0.944,-0.9593,-0.9593,-1.0253,-1.1029,-1.1885,-1.2439,-1.3174,-1.4255,-1.4827,-1.5327,-1.5775,-1.5862,-1.5625,-1.5011,-1.6341,-1.7113,-1.6891,-1.8406,-1.9405,-1.9751,-2.0695,-2.1354,-2.1658,-2.3099,-2.4189,-2.4988,-2.5077,-2.5625,-2.6621,-2.6279,-2.6269,-2.6514,-2.6602,-2.6641,-2.6641,-2.6641,-2.6641,-2.6621,-2.6543,-2.6465,-2.6328,-2.5889,-2.5225,-2.4463,-2.3965,-2.3555,-2.314,-2.2773,-2.2116,-2.1395,-2.0557,-2.0,0.0,0.0,0.0,0.0,0.0,0.0,0.0,0.0,-1.1321,-1.0043,-1.0182,-0.9133,-0.812,-0.7946,-0.8428,-0.8551,-0.7755,-0.8493,-0.8873,-0.8117,-0.7988,-0.7988,-0.7988,-0.788,-0.7953,-0.8201,-0.8167,-0.8225,-0.8465,-0.8537,-0.857,-0.857,-0.8686,-0.8754,-0.8754,-1.0007,-1.1374,-1.2832,-1.4288,-1.5743,-1.7147,-1.7147,-1.7147,-1.7147,-1.7147,-1.7147,-1.7199,-1.747,-1.7582,-1.7582,-1.7582,-1.7582,-1.7582,-1.7582,-1.7132,-1.65,-1.6706,-1.6794,-1.678,-1.3184,-1.2654,-1.1973,-1.1385,-1.0922,-1.0632,-1.0632,-1.053,-1.0706,-1.1465,-1.1826,-1.2315,-1.3099,-1.3557,-1.4282,-1.5437,-1.5762,-1.6017,-1.6273,-1.6593,-1.6861,-1.7073,-1.7896,-1.9037,-2.0552,-2.0692,-2.145,-2.2906,-2.3485,-2.4033,-2.4502,-2.4883,-2.5194,-2.5331,-2.5282,-2.5029,-2.4736,-2.5117,-2.5331,-2.5331,-2.5331,-2.5331,-2.5292,-2.4853,-2.541,-2.6328,-2.5889,-2.542,-2.492,-2.4062,-2.376,-2.3643,-2.3159,-2.2955,-2.2721,-2.1914,-2.1357,-2.0507,-1.8349,-1.643,-1.4892,-1.4185,-1.2991,-1.1911,0.0,-1.0585,-0.9461,-0.902,-0.8836,-0.8587,-0.7791,-0.7722,-0.7759,-0.7763,-0.7897,-0.8007,-0.8018,-0.7988,-0.7988,-0.7988,-0.7975,-0.7978,-0.8012,-0.8286,-0.8445,-0.8479,-0.8733,-0.8834,-0.8834,-0.8848,-0.8858,-0.8858,-0.9037,-0.986,-1.1324,-1.2778,-1.4234,-1.563,-1.563,-1.563,-1.563,-1.563,-1.563,-1.5737,-1.7041,-1.7582,-1.7582,-1.7582,-1.7582,-1.7582,-1.7582,-1.6785,-1.5676,-1.6769,-1.7152,-1.7112,-1.4163,-1.4006,-1.3649,-1.2991,-1.2181,-1.172,-1.2074,-1.1973,-1.2227,-1.3285,-1.39,-1.4468,-1.5087,-1.5081,-1.5355,-1.6136,-1.6308,-1.6496,-1.6753,-1.7687,-1.8105,-1.7804,-1.8936,-1.9933,-2.0649,-2.0853,-2.1453,-2.2412,-2.2842,-2.3389,-2.4053,-2.3984,-2.4209,-2.4678,-2.4434,-2.4355,-2.4424,-2.4609,-2.4687,-2.4687,-2.4687,-2.4687,-2.4639,-2.4209,-2.4238,-2.4499,-2.4023,-2.374,0.0,-2.2598,-2.2471,-2.2695,-2.2754,-2.2389,-2.1884,-2.1358,-2.0685,-1.9743,-1.7738,-1.5796,-1.4077,-1.3028,-1.1802,-1.0856,-1.0751,-0.9861,-0.9017,-0.8939,-0.9275,-0.918,-0.7947,-0.8505,-0.8829,-0.8031,-0.7894,-0.7917,-0.7982,-0.7988,-0.8022,-0.8163,-0.8096,-0.8025,-0.8167,-0.8204,-0.8333,-0.8598,-0.8733,-0.8845,-0.8878,-0.8885,-0.8885,-0.8885,-0.8885,-0.9588,-1.1105,-1.1701,-1.2729,-1.418,-1.418,-1.418,-1.418,-1.418,-1.4609,-1.547,-1.6982,-1.7094,-1.6333,-1.6333,-1.5849,-1.5097,-1.5097,-1.4716,-1.4438,-1.6642,-1.6866,-1.6153,-1.5169,-1.5129,-1.4868,-1.4368,-1.339,-1.2732,-1.3011,-1.2966,-1.3277,-1.4297,-1.5171,-1.5967,-1.6687,-1.6447,-1.6387,-1.6815,-1.6754,-1.6858,-1.7238,-1.8428,-1.891,-1.8405,-1.9592,-2.0302,-2.0381,-2.0703,-2.1152,-2.1709,-2.2012,-2.2598,-2.3428,-2.3071,-2.3257,-2.3887,-2.3691,-2.3711,-2.3906,-2.4141,-2.4248,-2.4248,-2.4248,-2.417,-2.4023,-2.3594,-2.3027,-2.2464,-2.2227,-2.208,-2.1846,-2.0986,-2.0986,-2.1396,-2.1699,-2.1455,-2.096,-2.0668,-1.9476,-1.7977,-1.656,-1.467,-1.2801,-1.1794,-1.0668,-0.9828,-0.9828,-0.9299,-0.8875,-0.9145,-0.9855,-1.0118,-0.9219,-0.9645,-0.9813,-0.8835,-0.8311,-0.8137,-0.8482,-0.8233,-0.8165,-0.8632,-0.8279,-0.8065,-0.8136,-0.8119,-0.8238,-0.8564,-0.8665,-0.876,-0.8814,-0.8861,-0.8885,-0.8885,-0.8885,-0.9427,-1.0457,-1.0891,-1.1647,-1.2674,-1.2674,-1.2674,-1.2674,-1.2674,-1.348,-1.4877,-1.5962,-1.5796,-1.4824,-1.4824,-1.4234,-1.3318,-1.3318,-1.3048,-1.2994,-1.5476,-1.5743,-1.4824,-1.6341,-1.5983,-1.5564,-1.5554,-1.455,-1.3555,-1.2997,-1.2895,-1.3037,-1.3486,-1.4517,-1.5682,-1.6874,-1.6686,-1.6673,-1.7132,-1.6878,-1.7067,-1.7901,-1.8383,-1.8627,-1.8601,-1.9056,-1.9512,-1.9922,-1.9951,-2.0342,-2.121,-2.1229,-2.1668,-2.2549,-2.2539,-2.2549,-2.2588,-2.2935,-2.2896,-2.2627,-2.3457,-2.3809,-2.3809,-2.3809,-2.3564,-2.3198,-2.2715,-2.1758,-2.0742,-2.1123,-2.0996,-2.0537,-1.9639,-1.9629,-1.998,-1.999,-2.0264,-2.0585,-2.0287,-1.7962,-1.5293,-1.4793,-1.2751,-1.0692,-1.0644,-0.9783,-0.8925,-0.8925,-0.9017,-0.9149,-0.9427,-1.0552,-1.1637,-1.2178,-1.1055,-1.0057,-1.0285,-0.9026,-0.8432,-0.9756,-0.8825,-0.8424,-0.9608,-0.8728,-0.7934,-0.7838,-0.8089,-0.832,-0.8333,-0.855,-0.8713,-0.8716,-0.8804,-0.8885,-0.8885,-0.8885,-0.8937,-0.8992,-1.0402,-1.1105,-1.116,-1.116,-1.116,-1.116,-1.116,-1.1969,-1.3372,-1.3426,-1.3426,-1.3372,-1.3372,-1.3318,-1.3318,-1.3318,-1.2403,-1.1378,-1.2891,-1.3372,-1.3372,-1.6974,-1.6918,-1.6534,-1.5672,-1.5203,-1.4462,-1.3115,-1.2905,-1.3135,-1.3802,-1.5512,0.0,0.0,0.0,0.0,0.0,-1.8151,-1.8548,-1.9105,-1.9254,-1.9339,-1.9339,-1.9126,-1.9094,-1.9242,-1.989,-2.025,-2.0286,-2.1219,-2.1659,-2.1629,-2.1963,-2.21,-2.2141,-2.2896,-2.3145,-2.3053,-2.3676,-2.3757,-2.3492,-2.3808,-2.345,-2.2768,-2.2961,-2.2031,-2.0557,0.0,-1.9658,-1.916,-1.8311,-1.8486,-1.9085,-1.9404,-1.878,-1.7798,-1.6925,-1.5255,-1.3642,-1.3653,-1.1698,-0.9593,-0.9593,-0.9326,-0.9023,-0.9023,-0.9647,-1.0249,-1.0319,-1.1953,-1.3067,-1.2253,-1.2681,-1.2857,-1.1888,-1.1104,-1.073,-1.1214,-1.0877,-1.0506,-1.0243,-0.9663,-0.9034,-0.8343,-0.8174,-0.816,-0.8313,-0.8448,-0.8604,-0.8706,-0.8801,-0.8885,-0.8885,-0.8885,-0.8885,-0.8885,-0.9372,-0.9644,-0.9644,-0.9644,-0.9644,-0.9699,-1.0672,-1.1378,-1.1914,-1.2891,-1.2724,-1.1864,-1.1864,-1.1269,-1.0406,-1.0406,-1.008,-0.9699,-1.0186,-1.0406,-1.0511,-1.7277,-1.7526,-1.7176,-1.5633,-1.5439,0.0,0.0,0.0,0.0,0.0,0.0,0.0,0.0,0.0,0.0,0.0,0.0,-1.8996,-1.9374,-1.9605,-1.9705,-1.9705,-1.9374,-1.9285,-1.9505,-1.9961,-2.0314,-2.0602,-2.15,-2.1889,-2.1759,-2.2401,-2.2544,-2.2231,-2.3339,-2.3649,-2.3321,-2.3783,-2.4036,-2.4095,-2.3605,-2.3296,-2.3019,-2.2283,-2.099,0.0,-1.8671,-1.8193,-1.7837,-1.7334,-1.7477,-1.7925,-1.8053,-1.7063,-1.5655,-1.4569,-1.3231,-1.2021,-1.1855,-1.0218,-0.8581,-0.8581,-0.8844,-0.9107,-0.9107,-1.0257,-1.1377,-1.1506,-1.3136,-1.4292,-1.3445,-1.3952,-1.4257,-1.3516,-1.273,-1.2381,-1.287,-1.2529,-1.1879,-1.1042,-1.0397,-0.9616,-0.8412,-0.8201,-0.814,-0.8184,-0.837,-0.8523,-0.8625,-0.8825,-0.8885,-0.8885,-0.8885,-0.8885,-0.8885,-0.8885,-0.8885,-0.8885,-0.8885,-0.8885,-0.8937,-0.986,-1.0292,-1.0351,-1.1324,-1.1214,-1.0292,-1.0292,-0.9754,-0.8885,-0.8885,-0.8885,-0.8885,-0.8885,-0.8885,-0.9047,-1.7229,-1.7726,-1.7593,0.0,0.0,0.0,0.0,0.0,0.0,0.0,0.0,0.0,0.0,0.0,0.0,0.0,0.0,0.0,-1.8963,-1.9462,-1.9761,-1.9784,-1.9792,-2.0079,-2.0681,-2.0251,-2.0683,-2.2026,-2.2071,-2.2257,-2.2622,-2.3601,-2.3574,-2.2724,-2.4122,-2.4174,-2.3279,-2.3779,-2.4519,-2.5217,-2.3128,-2.2955,-2.3653,-2.0857,-1.8968,-1.7677,-1.701,-1.6694,-1.6604,-1.6621,-1.6648,-1.6529,-1.5918,-1.5178,-1.433,-1.3285,-1.1915,-1.0506,-0.9582,-0.8488,-0.7607,-0.7695,-0.8444,-0.921,-0.9246,-1.0894,-1.2484,-1.282,-1.4008,-1.5169,-1.5665,-1.4775,-1.4266,-1.5065,-1.3946,-1.3389,-1.4657,-1.3705,-1.2643,-1.1982,-1.092,-0.9609,-0.8172,-0.8197,-0.8218,-0.8012,-0.8319,-0.8482,-0.8482,-0.8771,-0.8885,-0.8885,-0.8885,-0.8888,-0.8895,-0.8895,-0.8895,-0.8895,-0.8888,-0.8885,-0.8885,-0.8885,-0.8888,-0.8895,-0.8888,-0.8888,-0.8895,-0.8888,-0.8885,-0.8885,-0.8885,-0.8885,-0.8885,-0.8885,-0.8885,-0.8885,0.0,0.0,0.0,0.0,0.0,0.0,0.0,0.0,0.0,0.0,0.0,0.0,0.0,0.0,0.0,0.0,0.0,0.0,-2.0226,-2.036,-2.0616,-2.1006,-2.1189,-2.1504,-2.2076,-2.2893,-2.2894,-2.2074,-2.2827,-2.2653,-2.162,-2.2194,-2.2371,-2.2158,-2.32,-2.3328,-2.2712,-2.3155,-2.3086,-2.2656,-2.2405,-2.1718,-2.0852,-2.0819,-1.9436,-1.7536,-1.7618,-1.6663,-1.5398,-1.5695,-1.593,-1.567,-1.3763,-1.3387,-1.3337,-1.1849,-1.049,-0.9541,-0.9648,-0.8751,-0.7921,-0.8687,-0.9721,-1.0778,-1.156,-1.2701,-1.3665,-1.3743,-1.4421,-1.4988,-1.4863,-1.5107,-1.5343,-1.5356,-1.5178,-1.5164,-1.5509,-1.4544,-1.3385,-1.238,-1.1108,-0.984,-0.8526,-0.8404,-0.8367,-0.8221,-0.8381,-0.8482,-0.8482,-0.8771,-0.8885,-0.8885,-0.8885,-0.8991,-0.9096,-0.9096,-0.9096,-0.9096,-0.8991,-0.8885,-0.8885,-0.8885,-0.8998,-0.9093,-0.8984,-0.8998,-0.9089,-0.8984,-0.8885,-0.8885,-0.8885,-0.8885,-0.8885,-0.8885,-0.8885,-0.8885,0.0,0.0,0.0,0.0,0.0,0.0,0.0,0.0,0.0,0.0,0.0,0.0,0.0,0.0,0.0,0.0,0.0,0.0,0.0,-2.0314,-2.0445,-2.0744,-2.1145,-2.1727,-2.2494,-2.3286,-2.3432,-2.3039,-2.3315,-2.2786,-2.1482,-2.1873,-2.1864,-2.1508,-2.2452,-2.2686,-2.2419,-2.2648,-2.274,0.0,0.0,-2.0953,-2.0587,-1.9539,-1.8244,-1.6992,-1.6873,-1.6067,-1.5078,-1.5248,-1.5009,-1.4366,-1.2969,-1.2351,-1.1935,-1.0536,-0.9782,-0.9335,-0.9063,-0.8437,-0.8062,-0.9066,-1.015,-1.1206,-1.2173,-1.3279,-1.4015,-1.3754,-1.4275,-1.4636,-1.4173,-1.4963,-1.5625,-1.5591,-1.5939,-1.6011,-1.5462,-1.4847,-1.3745,-1.1779,-1.0932,-1.0047,-0.874,-0.8581,-0.852,-0.8374,-0.8499,-0.8581,-0.8581,-0.8808,-0.8885,-0.8885,-0.8885,-0.9008,-0.9207,-0.921,-0.9245,-0.9309,-0.9103,-0.9032,-0.9035,-0.9103,-0.914,-0.921,-0.914,-0.914,-0.9204,-0.9066,-0.8994,-0.8885,-0.8885,-0.8885,-0.8885,-0.8885,-0.8885,-0.8885,0.0,0.0,0.0,0.0,0.0,0.0,0.0,0.0,0.0,-1.7417,-1.8121,-1.9254,-2.1166,-2.0918,0.0,0.0,0.0,0.0,0.0,0.0,-1.9838,-1.9891,-2.0556,-2.1392,-2.2402,-2.2706,-2.322,-2.398,-2.346,-2.2691,-2.1645,-2.1875,-2.1527,-2.0801,-2.1687,-2.2046,-2.1983,-2.1943,-2.2463,-2.3051,-2.0394,-2.0121,-2.0913,0.0,-1.6436,-1.6236,-1.543,-1.5159,-1.5149,-1.4934,-1.4062,-1.3048,-1.2758,-1.1745,-1.0394,-0.9374,-0.928,-0.9294,-0.8248,-0.7899,-0.803,-0.9215,-1.014,-1.1056,-1.2052,-1.3201,-1.3874,-1.3327,-1.3814,-1.4153,-1.364,-1.4482,-1.5317,-1.5558,-1.6034,-1.5939,-1.4847,-1.4539,-1.3435,-1.0759,-1.0437,-1.0011,-0.8817,-0.8726,-0.8676,-0.8523,-0.8655,-0.873,-0.8713,-0.8801,-0.8885,-0.8885,-0.8902,-0.9035,-0.9238,-0.9241,-0.9316,-0.9408,-0.9313,-0.9241,-0.9245,-0.932,-0.932,-0.9275,-0.9334,-0.9306,-0.9238,-0.9217,-0.9069,-0.8885,-0.8885,-0.8885,-0.8885,-0.8885,-0.8885,-0.8885,0.0,0.0,0.0,0.0,0.0,0.0,0.0,0.0,0.0,0.0,-1.8915,-1.9234,0.0,0.0,0.0,0.0,0.0,0.0,0.0,0.0,0.0,-2.0441,-2.1156,-2.1837,-2.2484,-2.3641,-2.3766,-2.2776,-2.2804,-2.2128,-2.0798,-2.0409,-2.0159,-2.0026,-2.0673,-2.0717,-2.0223,-2.0116,-1.9904,-1.9506,-1.84,-1.7756,-1.7384,-1.675,0.0,0.0,-1.4197,-1.4289,-1.4864,-1.3878,-1.331,-1.2847,-1.1862,-1.0635,-0.938,-0.8335,-0.803,-0.7981,-0.7866,-0.7746,-0.811,-1.0071,-1.0666,-1.124,-1.2948,-1.3508,-1.358,-1.328,-1.3333,-1.3407,-1.3307,-1.3848,-1.4409,-1.4696,-1.4443,-1.4242,-1.4202,-1.2626,-1.1243,-1.0735,-0.9772,-0.9064,-0.8723,-0.8825,-0.8835,-0.8682,-0.8811,-0.8845,-0.8716,-0.8801,-0.8885,-0.8885,-0.9055,-0.9245,-0.934,-0.934,-0.9418,-0.9568,-0.9415,-0.934,-0.9344,-0.9367,-0.9435,-0.9523,-0.9425,-0.9364,-0.9334,-0.9262,-0.9069,-0.8885,-0.8885,-0.8885,-0.8885,-0.8885,-0.8885,-0.8885,0.0,0.0,0.0,0.0,0.0,0.0,0.0,-1.8071,-1.9564,-2.0742,-2.1212,-2.1362,-2.1127,-2.0326,-2.0037,0.0,0.0,0.0,0.0,0.0,0.0,-2.0214,-2.0566,-2.1189,-2.2067,-2.2753,-2.2753,-2.208,0.0,-2.1379,-1.9813,-1.9562,-1.9274,-1.8958,-1.8869,-1.8985,-1.9188,-1.8744,-1.8382,-1.8058,-1.733,-1.6821,-1.6464,-1.6065,0.0,0.0,-1.4072,-1.4201,-1.4704,-1.3575,-1.3027,-1.2709,-1.2291,-1.1354,-1.0133,-0.9131,-0.8731,-0.8621,-0.8653,-0.8534,-0.8889,-1.1043,-1.1598,-1.1942,-1.3274,-1.36,-1.3473,-1.306,-1.3093,-1.3113,-1.2799,-1.348,-1.391,-1.3342,-1.3481,-1.3298,-1.2136,-1.1254,-1.0428,-0.9652,-0.9175,-0.8854,-0.8835,-0.8841,-0.8854,-0.8835,-0.8841,-0.8851,-0.8832,-0.8844,-0.8885,-0.8885,-0.9079,-0.9282,-0.9381,-0.9381,-0.9496,-0.9717,-0.9571,-0.95,-0.9503,-0.9578,-0.9608,-0.9608,-0.9608,-0.9523,-0.9374,-0.9361,-0.914,-0.8885,-0.8885,-0.8885,-0.8885,-0.8885,-0.8885,-0.8885,0.0,0.0,0.0,0.0,0.0,0.0,0.0,-1.9799,-2.1486,-2.2936,-2.385,-2.3803,-2.2359,-2.1091,-2.0376,0.0,0.0,0.0,0.0,0.0,0.0,0.0,0.0,0.0,-2.1465,0.0,0.0,-2.1485,-2.152,0.0,0.0,0.0,0.0,0.0,-1.7545,-1.7725,-1.8481,-1.7698,-1.7357,0.0,0.0,-1.6265,-1.6208,0.0,0.0,0.0,0.0,-1.4216,-1.4506,-1.3533,-1.2908,-1.2595,-1.3009,-1.229,-1.1099,-1.0303,-0.9931,-0.9789,-0.9789,-0.9627,-0.9895,-1.1817,-1.2285,-1.2523,-1.3406,-1.3553,-1.34,-1.2898,-1.2893,-1.2886,-1.2472,-1.3008,-1.3201,-1.2344,-1.2512,-1.2138,-1.0282,-1.0195,-0.9827,-0.8702,-0.8771,-0.8885,-0.8885,-0.8885,-0.8885,-0.8885,-0.8885,-0.8885,-0.8885,-0.8885,-0.8885,-0.8885,-0.9079,-0.9282,-0.9381,-0.9415,-0.9561,-0.9819,-0.9707,-0.9656,-0.9659,-0.9771,-0.9744,-0.9615,-0.9758,-0.9635,-0.9337,-0.9367,-0.9205,-0.8885,-0.8885,-0.8885,-0.8885,-0.8885,-0.8885,-0.8885,0.0,0.0,0.0,0.0,0.0,0.0,0.0,-2.1976,-2.3798,-2.6469,-2.6011,-2.5209,-2.4582,-2.302,-2.1481,0.0,0.0,0.0,0.0,0.0,0.0,0.0,0.0,0.0,0.0,0.0,0.0,-2.08,-2.0914,0.0,0.0,0.0,0.0,0.0,0.0,-1.7893,-1.7908,-1.6978,0.0,0.0,0.0,0.0,0.0,0.0,0.0,0.0,0.0,-1.3999,-1.4058,-1.3425,-1.2815,-1.2456,-1.3291,-1.2432,-1.1119,-1.1,-1.0858,-1.0696,-1.0696,-1.0563,-1.0766,-1.1986,-1.2285,-1.2523,-1.3406,-1.34,-1.3153,-1.2851,-1.2589,-1.2452,-1.2703,-1.2055,-1.1726,-1.2452,-1.097,-0.9806,-1.0117,-0.9444,-0.881,-0.8693,-0.8835,-0.8885,-0.8885,-0.8885,-0.8885,-0.8885,-0.8885,-0.8885,-0.8885,-0.8885,-0.8885,-0.8885,-0.9079,-0.9282,-0.9381,-0.952,-0.9666,-0.9822,-0.9808,-0.9802,-0.9802,-0.9815,-0.9744,-0.9615,-0.9758,-0.9574,-0.9241,-0.9323,-0.9205,-0.8885,-0.8885,-0.8885,-0.8885,-0.8885,-0.8885,-0.8885,0.0,0.0,0.0,0.0,0.0,0.0,-1.9863,-2.0855,-2.2755,-2.636,-2.6406,-2.6197,-2.6289,-2.482,-2.2706,-2.0037,0.0,0.0,0.0,0.0,0.0,0.0,0.0,0.0,0.0,0.0,-2.0202,-2.0166,-2.0617,0.0,0.0,0.0,0.0,0.0,0.0,-1.7824,-1.7676,-1.6847,0.0,0.0,0.0,0.0,0.0,0.0,0.0,0.0,0.0,0.0,-1.4536,-1.3316,-1.3288,-1.3666,-1.2849,-1.272,-1.268,-1.1929,-1.169,-1.1734,-1.1844,-1.1745,-1.1935,-1.3274,-1.3627,-1.3731,-1.4067,-1.3766,-1.3347,-1.3086,-1.2639,-1.2146,-1.1684,-1.1389,-1.0948,-1.0193,-0.9562,-0.9065,-0.8679,-0.8549,-0.8445,-0.8445,-0.8655,-0.8835,-0.8875,-0.8885,-0.8885,-0.8885,-0.8885,-0.8885,-0.8885,-0.8885,-0.8885,-0.8885,-0.9079,-0.9282,-0.9381,-0.9534,-0.968,-0.9819,-0.9734,-0.9693,-0.969,-0.9598,-0.9527,-0.9476,-0.9534,-0.9401,-0.9214,-0.9275,-0.9123,-0.8885,-0.8885,-0.8885,-0.8885,-0.8885,-0.8885,-0.8885,0.0,0.0,0.0,0.0,0.0,-1.8151,-1.9832,-2.0554,-2.2272,-2.6226,-2.6457,-2.6449,-2.7014,-2.5272,-2.3125,-2.0752,-2.0087,0.0,0.0,0.0,0.0,0.0,0.0,0.0,0.0,0.0,-1.9944,-2.0111,-2.0718,-2.0422,0.0,0.0,-1.9859,-1.9208,0.0,0.0,0.0,0.0,0.0,0.0,0.0,0.0,0.0,0.0,0.0,0.0,0.0,0.0,0.0,0.0,0.0,-1.4159,-1.2987,-1.3389,-1.405,-1.2909,-1.2608,-1.2784,-1.3223,-1.3137,-1.3213,-1.4351,-1.4649,-1.4629,-1.4536,-1.4026,-1.352,-1.3273,-1.2726,-1.1996,-1.0975,-1.0734,-1.0203,-0.8632,-0.848,-0.8325,-0.7722,-0.7974,-0.8218,-0.8316,-0.8489,-0.8703,-0.8801,-0.8858,-0.8885,-0.8885,-0.8885,-0.8885,-0.8885,-0.8885,-0.8885,-0.8885,-0.9079,-0.9282,-0.9381,-0.9534,-0.9659,-0.9758,-0.9656,-0.9585,-0.9537,-0.9432,-0.9357,-0.9317,-0.9361,-0.9269,-0.9096,-0.9241,-0.9133,-0.9001,-0.9001,-0.9001,-0.8998,-0.8898,-0.8885,-0.8885,0.0,0.0,0.0,0.0,0.0,0.0,-2.1514,-2.199,-2.3268,-2.6812,-2.6302,-2.5824,-2.6436,-2.4004,-2.2322,-2.2284,-2.0765,0.0,0.0,0.0,0.0,0.0,0.0,0.0,0.0,0.0,-2.0263,-2.0782,-2.1337,-2.0966,-1.9798,-2.0402,-2.0365,-1.976,0.0,0.0,0.0,0.0,0.0,0.0,0.0,0.0,-1.541,0.0,0.0,0.0,0.0,0.0,0.0,0.0,0.0,0.0,0.0,-1.4595,-1.4808,-1.3846,-1.3606,-1.38,-1.4716,-1.4736,-1.4539,-1.4928,-1.5001,-1.4928,-1.4589,-1.4026,-1.352,-1.3273,-1.2726,-1.1996,-1.0975,-1.0116,-0.9284,-0.8506,-0.769,-0.7299,-0.7746,-0.7894,-0.8099,-0.8252,-0.8397,-0.8547,-0.8699,-0.8849,-0.8885,-0.8885,-0.8885,-0.8885,-0.8885,-0.8885,-0.8885,-0.8885,-0.9079,-0.9282,-0.9381,-0.9534,-0.9608,-0.9612,-0.9608,-0.953,-0.9384,-0.9381,-0.9357,-0.9221,-0.9317,-0.9211,-0.8908,-0.9259,-0.9347,-0.9207,-0.9207,-0.9207,-0.919,-0.8991,-0.8885,-0.8885,0.0,0.0,0.0,0.0,0.0,0.0,0.0,-1.9264,-2.0288,-2.396,-2.3803,-2.3853,-2.5197,-2.3527,-2.2309,-2.2309,-2.0778,0.0,0.0,0.0,0.0,0.0,0.0,0.0,0.0,-1.9952,-2.0335,-2.1266,-2.1444,-2.1348,-2.0953,-2.1169,-2.0715,-1.9798,-1.9553,-1.9044,0.0,0.0,0.0,0.0,0.0,-1.541,-1.541,0.0,0.0,0.0,0.0,0.0,0.0,0.0,0.0,0.0,0.0,0.0,0.0,-1.5022,-1.4944,-1.4968,-1.5353,-1.5511,-1.5627,-1.5727,-1.5914,-1.5994,-1.5677,-1.4871,-1.4006,-1.3353,-1.2886,-1.2269,-1.1043,-1.0024,-0.9208,-0.8691,-0.7856,-0.7417,-0.7763,-0.8035,-0.8214,-0.8316,-0.8581,-0.8815,-0.8807,-0.8854,-0.8885,-0.8885,-0.8885,-0.8885,-0.8885,-0.8885,-0.8885,-0.8885,-0.9079,-0.9282,-0.9381,-0.9534,-0.9659,-0.9751,-0.9551,-0.9429,-0.9374,-0.9171,-0.9052,-0.9011,-0.9059,-0.9025,-0.8892,-0.9039,-0.9049,-0.9008,-0.9008,-0.9008,-0.9001,-0.8898,-0.8885,-0.8885,0.0,0.0,0.0,0.0,0.0,0.0,0.0,-1.7774,-1.8617,-2.1687,-2.1605,-2.203,-2.3942,-2.2498,-2.1619,-2.2246,-2.0778,0.0,0.0,0.0,0.0,0.0,0.0,0.0,-1.9798,-1.9798,-2.0464,-2.1794,-2.2008,-2.2221,-2.2435,-2.2435,-2.1719,-2.0426,-2.0225,-1.9462,0.0,0.0,0.0,0.0,-1.569,-1.5642,-1.541,0.0,0.0,0.0,0.0,0.0,0.0,0.0,0.0,0.0,0.0,0.0,0.0,0.0,-1.6397,-1.63,-1.6407,-1.658,-1.6765,-1.6846,-1.6743,-1.6505,-1.6171,-1.5085,-1.3959,-1.3347,-1.2872,-1.2249,-1.1005,-1.0343,-0.9594,-0.8614,-0.8106,-0.7818,-0.7658,-0.7906,-0.814,-0.8306,-0.8615,-0.8797,-0.8797,-0.8797,-0.8821,-0.8878,-0.8831,-0.8821,-0.8878,-0.8885,-0.8885,-0.8885,-0.9025,-0.9171,-0.9381,-0.9476,-0.9568,-0.9652,-0.9469,-0.9323,-0.9208,-0.8969,-0.8885,-0.8885,-0.8885,-0.8885,0.0,-0.8998,-0.9018,-0.9018,-0.9018,-0.9018,-0.9015,-0.8902,-0.8885,-0.8885,0.0,0.0,0.0,0.0,0.0,0.0,0.0,-1.7344,-1.8021,-1.9957,-1.9773,-2.029,-2.2486,-2.0877,-2.0266,-2.1823,0.0,0.0,0.0,0.0,0.0,0.0,0.0,0.0,-1.9798,-1.9849,-2.069,-2.2372,-2.2932,-2.3521,-2.4117,-2.4117,-2.3201,-2.1518,-2.0939,-1.9534,-1.755,0.0,0.0,0.0,-1.6179,-1.6007,0.0,0.0,0.0,0.0,0.0,0.0,0.0,0.0,0.0,0.0,0.0,0.0,0.0,0.0,0.0,0.0,0.0,-1.7688,-1.7837,-1.8014,-1.7337,-1.6481,-1.6109,-1.474,0.0,-1.324,-1.2726,-1.2072,-1.1141,-1.0936,-1.0284,-0.8524,-0.8467,-0.8346,-0.7576,-0.7672,-0.7967,-0.8265,-0.8554,-0.873,-0.874,-0.8733,-0.8784,-0.8871,-0.8808,-0.8791,-0.8875,-0.8885,-0.8885,-0.8885,-0.8885,-0.9076,-0.9361,-0.9364,-0.9371,-0.9381,-0.9371,-0.9222,-0.8898,-0.8888,-0.8885,-0.8885,-0.8885,-0.8885,-0.8895,-0.9083,-0.9193,-0.9193,-0.9193,-0.9193,-0.9176,-0.8988,-0.8885,-0.8885,0.0,0.0,0.0,0.0,0.0,0.0,0.0,0.0,0.0,0.0,-1.8157,-1.8269,-1.882,-1.8428,-1.8289,0.0,0.0,0.0,0.0,0.0,0.0,0.0,0.0,0.0,-1.9798,-2.0264,-2.128,-2.2907,-2.391,-2.4662,-2.5222,-2.5222,-2.4104,-2.2054,-2.0941,-1.9399,-1.755,-1.681,0.0,0.0,-1.5816,-1.5555,0.0,0.0,0.0,0.0,-1.541,-1.5918,0.0,0.0,0.0,0.0,0.0,0.0,0.0,0.0,-1.817,-1.8194,-1.7473,0.0,-1.7795,-1.6907,-1.6668,-1.638,0.0,-1.4316,-1.3453,-1.3005,-1.2777,-1.2674,-1.2635,-1.1047,-0.9859,-1.028,-0.9062,-0.7988,-0.7862,-0.8136,-0.8394,-0.8584,-0.8771,-0.893,-0.9094,-0.895,-0.8844,-0.8881,-0.8851,-0.8844,-0.8881,-0.8885,-0.8885,-0.8885,-0.8885,-0.9025,-0.9262,-0.9265,-0.9323,-0.9381,-0.932,-0.9228,-0.91,-0.8988,-0.8885,-0.8885,-0.8885,-0.8885,-0.8885,-0.8974,-0.8988,-0.8988,-0.8988,-0.8988,-0.8984,-0.8895,-0.8885,-0.8885,0.0,0.0,0.0,0.0,0.0,0.0,0.0,0.0,0.0,0.0,0.0,0.0,0.0,0.0,0.0,0.0,0.0,0.0,0.0,0.0,0.0,0.0,0.0,-1.9798,-1.9798,-2.0402,-2.1396,-2.283,-2.3704,-2.4519,-2.5326,-2.4837,-2.3633,-2.1692,-1.9569,-1.8052,-1.7062,-1.668,-1.6283,-1.5979,-1.5921,0.0,0.0,0.0,0.0,0.0,-1.541,-1.5946,0.0,-1.6689,-1.7529,-1.8525,0.0,0.0,0.0,0.0,-1.7193,-1.6936,-1.643,-1.7292,-1.8101,-1.6977,-1.6484,-1.606,-1.5363,-1.4186,-1.314,-1.2851,-1.2677,-1.2677,-1.2939,-1.1465,-1.03,-1.0691,-0.9456,-0.8338,-0.8153,-0.8516,-0.8771,-0.8716,-0.8903,-0.9042,-0.9052,-0.892,-0.8807,-0.8878,-0.8817,-0.8811,-0.8878,-0.8885,-0.8885,-0.8885,-0.8885,-0.9008,-0.9207,-0.921,-0.9251,-0.9333,-0.9251,-0.9176,-0.9052,-0.8974,-0.8885,-0.8885,-0.8885,-0.8885,-0.8885,-0.8885,-0.8885,-0.8885,-0.8885,-0.8885,-0.8885,-0.8885,-0.8885,-0.8885,0.0,0.0,0.0,0.0,0.0,0.0,0.0,0.0,0.0,0.0,0.0,0.0,0.0,0.0,0.0,0.0,0.0,0.0,0.0,0.0,0.0,0.0,-1.9475,-1.9651,-2.0017,-2.0443,-2.1399,-2.2866,-2.3368,-2.4141,-2.5176,-2.4336,-2.2878,-2.0908,-1.7986,-1.6618,-1.6482,-1.6379,-1.6036,-1.5604,-1.6122,0.0,0.0,0.0,0.0,0.0,0.0,0.0,0.0,-1.6896,-1.7837,-1.882,-1.8276,0.0,0.0,0.0,0.0,0.0,-1.5124,-1.6645,-1.8,-1.7022,-1.6121,-1.5483,-1.5224,-1.3909,-1.2717,-1.2717,-1.2399,-1.2216,-1.2641,-1.1655,-1.073,-1.0431,-0.9594,-0.8854,-0.8429,-0.8804,-0.903,-0.8771,-0.8967,-0.9083,-0.8981,-0.8835,-0.8798,-0.8871,-0.8818,-0.8801,-0.8875,-0.8885,-0.8885,-0.8885,-0.8885,-0.8998,-0.9176,-0.9176,-0.9176,-0.9176,-0.9176,-0.9055,-0.8885,-0.8885,-0.8885,-0.8885,-0.8885,-0.8885,-0.8885,-0.8885,-0.8885,-0.8885,-0.8885,-0.8885,-0.8885,-0.8885,-0.8885,-0.8892,0.0,0.0,0.0,0.0,0.0,0.0,0.0,0.0,0.0,0.0,0.0,0.0,0.0,0.0,0.0,0.0,0.0,0.0,0.0,0.0,0.0,-1.7934,-1.7922,-1.889,-2.0935,-2.0639,-2.1745,-2.4457,-2.4859,-2.5421,-2.6107,-2.5939,-2.3875,-2.019,-1.8386,-1.7184,-1.6464,-1.5835,-1.5864,-1.6293,-1.5777,0.0,0.0,0.0,0.0,0.0,0.0,0.0,0.0,-1.5317,-1.5978,-1.7103,-1.6058,0.0,0.0,0.0,0.0,0.0,-1.4797,-1.5319,-1.5711,-1.4547,-1.4501,-1.4421,-1.3127,-1.2577,-1.2371,-1.2371,-1.1759,-1.1414,-1.2076,-1.0484,-0.9335,-1.0108,-0.9218,-0.848,-0.8598,-0.8608,-0.8665,-0.8824,-0.8888,-0.9011,-0.9166,-0.8988,-0.8858,-0.8881,-0.8861,-0.8858,-0.8881,-0.8885,-0.8885,-0.8885,-0.8885,-0.8895,-0.8971,-0.8971,-0.8971,-0.8971,-0.8971,-0.8905,-0.8885,-0.8885,-0.8885,-0.8885,-0.8885,-0.8885,-0.8885,-0.8885,-0.8885,-0.8885,-0.8885,-0.8885,-0.8885,-0.8885,-0.8885,-0.8919,0.0,0.0,0.0,0.0,0.0,0.0,0.0,0.0,0.0,0.0,0.0,0.0,0.0,0.0,0.0,0.0,0.0,0.0,0.0,0.0,-1.6605,-1.7095,-1.6896,-1.8159,-2.1147,-2.1554,-2.2923,-2.5335,-2.5436,-2.5656,-2.5861,-2.3833,-2.1455,-1.8887,-1.7234,-1.6275,-1.5892,-1.5555,-1.5613,-1.5864,0.0,0.0,0.0,0.0,0.0,0.0,0.0,0.0,0.0,0.0,-1.625,-1.6862,-1.5864,0.0,0.0,0.0,0.0,0.0,-1.3409,-1.3919,-1.4307,-1.361,-1.4144,-1.4608,-1.3925,-1.3494,-1.3267,-1.3267,-1.2305,-1.1665,-1.2255,-1.0494,-0.8995,-0.9224,-0.9076,-0.8832,-0.8726,-0.8859,-0.896,-0.8885,-0.9008,-0.9049,-0.9039,-0.8977,-0.8885,-0.8885,-0.8885,-0.8885,-0.8885,-0.8885,-0.8885,-0.8885,-0.8885,-0.8885,-0.8885,-0.8885,-0.8885,-0.8885,-0.8885,-0.8885,-0.8885,-0.8885,-0.8885,-0.8885,-0.8885,-0.8885,-0.8885,-0.8885,-0.8885,-0.8885,-0.8885,-0.8885,-0.8885,-0.8885,-0.8885,-0.8912,0.0,0.0,0.0,0.0,0.0,0.0,0.0,0.0,0.0,0.0,0.0,0.0,0.0,0.0,0.0,0.0,0.0,0.0,0.0,0.0,-1.5762,-1.6543,-1.6476,-1.803,-2.1536,-2.2106,-2.3639,-2.6288,-2.6029,-2.59,-2.5883,-2.2297,-1.9829,-1.8417,-1.6538,-1.5576,-1.541,-1.541,-1.541,-1.541,0.0,0.0,0.0,0.0,0.0,0.0,0.0,0.0,0.0,0.0,0.0,0.0,0.0,0.0,0.0,-1.4126,-1.3557,-1.2943,-1.2868,-1.3317,-1.375,-1.3474,-1.4041,-1.4676,-1.4787,-1.4081,-1.3442,-1.362,-1.2318,-1.1326,-1.1705,-1.0263,-0.8886,-0.8615,-0.8954,-0.9157,-0.8811,-0.9028,-0.9154,-0.8905,-0.9035,-0.9059,-0.8895,-0.8885,-0.8885,-0.8885,-0.8885,-0.8885,-0.8885,-0.8885,-0.8885,-0.8885,-0.8885,-0.8885,-0.8885,-0.8885,-0.8885,-0.8885,-0.8885,-0.8885,-0.8885,-0.8885,-0.8885,-0.8885,-0.8885,-0.8885,-0.8885,-0.8885,-0.8885,-0.8885,-0.8885,-0.8885,-0.8885,-0.8885,-0.8885,-0.8905,0.0,0.0,0.0,0.0,0.0,0.0,0.0,0.0,0.0,0.0,0.0,0.0,0.0,0.0,0.0,0.0,0.0,0.0,0.0,0.0,-1.5615,-1.6124,-1.6897,-1.9031,-2.269,-2.1458,-2.3047,-2.7742,-2.7111,-2.6856,-2.6932,-2.4049,-2.1718,-1.9842,-1.7596,-1.6151,-1.541,-1.541,-1.541,-1.541,-1.541,0.0,0.0,0.0,0.0,0.0,0.0,0.0,0.0,0.0,0.0,0.0,0.0,0.0,-1.432,-1.4912,-1.5057,-1.4917,-1.4523,-1.4477,-1.4439,-1.413,-1.3881,-1.3766,-1.4088,-1.2721,-1.1554,-1.2113,-1.0587,-0.9182,-0.9343,-0.8998,-0.8695,-0.8686,-0.8849,-0.8905,-0.8871,-0.8828,-0.8804,-0.8868,-0.8892,-0.8895,-0.8885,-0.8885,-0.8885,-0.8885,-0.8885,-0.8885,-0.8885,-0.8885,-0.8885,-0.8885,-0.8885,-0.8885,-0.8885,-0.8885,-0.8885,-0.8885,-0.8885,-0.8885,-0.8885,-0.8885,-0.8885,-0.8885,-0.8885,-0.8885,-0.8885,-0.8885,-0.8885,-0.8885,-0.8885,-0.8885,-0.8885,-0.8885,-0.8885,-0.8905,0.0,0.0,0.0,0.0,0.0,0.0,0.0,0.0,0.0,0.0,0.0,0.0,0.0,0.0,0.0,0.0,0.0,0.0,0.0,-1.541,-1.5732,-1.6445,-1.7061,-1.8528,-2.0992,-2.2257,-2.5036,-2.9432,-2.8869,-2.7473,-2.5258,-2.3013,-2.0954,-1.9068,-1.7162,-1.6289,-1.6171,-1.5615,-1.5566,-1.5821,-1.5518,-1.541,0.0,0.0,0.0,0.0,0.0,0.0,0.0,0.0,-1.5432,-1.5516,-1.4561,-1.4508,-1.4876,-1.5133,-1.5199,-1.5185,-1.5029,-1.4935,-1.4899,-1.4751,-1.4448,-1.4269,-1.4563,-1.356,-1.273,-1.324,-1.1318,-0.936,-0.8716,-0.8731,-0.8821,-0.8726,-0.8913,-0.9042,-0.8895,-0.8834,-0.8817,-0.8875,-0.8885,-0.8885,-0.8885,-0.8885,-0.8885,-0.8885,-0.8885,-0.8885,-0.8885,-0.8885,-0.8885,-0.8885,-0.8885,-0.8885,-0.8885,-0.8885,-0.8885,-0.8885,-0.8885,-0.8885,-0.8885,-0.8885,-0.8885,-0.8885,-0.8885,-0.8885,-0.8885,-0.8885,-0.8885,-0.8885,-0.8885,-0.8885,-0.8885,-0.8885,-0.8885,-0.9054,0.0,0.0,0.0,0.0,0.0,0.0,0.0,0.0,0.0,0.0,0.0,0.0,0.0,0.0,0.0,0.0,0.0,0.0,-1.541,-1.5613,-1.5979,-1.6494,-1.707,-1.8115,-1.9678,-2.2219,-2.5239,-2.8709,-2.8661,-2.7163,-2.4266,-2.2344,-2.0705,-1.9219,-1.734,-1.6719,-1.7048,-1.6171,-1.6006,-1.6261,-1.5791,-1.5615,0.0,0.0,0.0,0.0,0.0,0.0,0.0,0.0,-1.5136,-1.5282,-1.4324,-1.4497,-1.5025,-1.5025,-1.5614,-1.6086,-1.5157,-1.5097,-1.5215,-1.4863,-1.4504,-1.4369,-1.4901,-1.4085,-1.3303,-1.345,-1.1359,-0.9253,-0.8511,-0.8587,-0.8774,-0.872,-0.892,-0.9052,-0.8898,-0.8885,-0.8885,-0.8885,-0.8885,-0.8885,-0.8885,-0.8885,-0.8885,-0.8885,-0.8885,-0.8885,-0.8885,-0.8885,-0.8885,-0.8885,-0.8885,-0.8885,-0.8885,-0.8885,-0.8885,-0.8885,-0.8885,-0.8885,-0.8885,-0.8885,-0.8885,-0.8885,-0.8885,-0.8885,-0.8885,-0.8885,-0.8885,-0.8885,-0.8885,-0.8885,-0.8885,-0.8885,-0.921,-0.9754,0.0,0.0,0.0,0.0,0.0,0.0,0.0,0.0,0.0,0.0,0.0,0.0,0.0,0.0,0.0,0.0,0.0,0.0,-1.5439,-1.6093,-1.6384,-1.6096,-1.6936,-1.7969,-1.9238,-2.0967,-2.2884,-2.501,-2.6077,-2.5836,-2.4412,-2.2516,-2.1305,-2.0691,-1.8412,-1.7627,-1.7949,-1.7067,-1.6697,-1.6668,-1.625,-1.6095,-1.6046,0.0,0.0,0.0,0.0,0.0,0.0,0.0,-1.3668,-1.3129,-1.4299,-1.4687,-1.4687,-1.4712,-1.654,-1.7932,-1.4998,-1.4969,-1.5514,-1.4386,-1.3874,-1.3853,-1.477,-1.3948,-1.2824,-1.2285,-1.0129,-0.8371,-0.8459,-0.8486,-0.8537,-0.8686,-0.8784,-0.8881,-0.8885,-0.8885,-0.8885,-0.8885,-0.8885,-0.8885,-0.8885,-0.8885,-0.8885,-0.8885,-0.8885,-0.8885,-0.8885,-0.8885,-0.8885,-0.8885,-0.8885,-0.8885,-0.8885,-0.8885,-0.8885,-0.8885,-0.8885,-0.8885,-0.8885,-0.8885,-0.8885,-0.8885,-0.8885,-0.8885,-0.8885,-0.8885,-0.8885,-0.8885,-0.8885,-0.8885,-0.8937,-0.8937,-0.986,-1.1105,0.0,0.0,0.0,0.0,0.0,0.0,0.0,0.0,0.0,0.0,0.0,0.0,0.0,0.0,0.0,0.0,0.0,0.0,-1.541,-1.5613,-1.5692,-1.5596,-1.6455,-1.7067,-1.7447,-1.918,-2.1527,-2.445,-2.5209,-2.4525,-2.2457,-2.1775,-2.0659,-1.9223,-1.8532,-1.813,-1.7949,-1.7067,-1.6882,-1.7129,-1.6398,-1.6095,-1.6075,0.0,0.0,0.0,0.0,0.0,0.0,0.0,0.0,0.0,-1.3768,-1.4348,-1.5018,-1.4761,-1.5402,-1.5981,-1.483,-1.4916,-1.523,-1.4896,-1.4988,-1.491,-1.4072,-1.2952,-1.1638,-1.008,-0.919,-0.872,-0.8655,-0.7855,-0.7572,-0.8554,-0.7953,-0.7706,-0.8771,-0.8885,-0.8885,-0.8885,-0.8885,-0.8885,-0.8885,-0.8885,-0.8885,-0.8885,-0.8885,-0.8885,-0.8885,-0.8885,-0.8885,-0.8885,-0.8885,-0.8885,-0.8885,-0.8885,-0.8885,-0.8885,-0.8885,-0.8885,-0.8885,-0.8885,-0.8885,-0.8885,-0.8885,-0.8885,-0.8885,-0.8885,-0.8885,-0.8885,-0.8885,-0.9537,-1.0457,-1.0457,-1.1374,-1.2783,0.0,0.0,0.0,0.0,0.0,0.0,0.0,0.0,-1.5508,-1.5762,-1.5831,-1.5831,0.0,0.0,0.0,-1.543,-1.5671,-1.5719,-1.541,-1.5671,-1.57,-1.541,-1.6084,-1.6787,-1.7438,-1.8672,-2.0198,-2.1986,-2.2717,-2.2184,-2.0411,-2.0872,-2.0481,-1.9404,-1.9553,-1.9203,-1.8415,-1.7546,-1.6996,-1.662,-1.5929,-1.5901,-1.6149,0.0,0.0,0.0,0.0,0.0,0.0,0.0,0.0,0.0,-1.2653,-1.3275,-1.4048,-1.3801,-1.4617,-1.5442,-1.4811,-1.5033,-1.5496,-1.5383,-1.5438,-1.5052,-1.3326,-1.2036,-1.0859,-0.9606,-0.9061,-0.8838,-0.8808,-0.761,-0.7067,-0.8532,-0.7599,-0.7204,-0.8716,-0.8885,-0.8885,-0.8885,-0.8885,-0.8885,-0.8885,-0.8885,-0.8885,-0.8885,-0.8885,-0.8885,-0.8885,-0.8885,-0.8885,-0.8885,-0.8885,-0.8885,-0.8885,-0.8885,-0.8885,-0.8885,-0.8885,-0.8885,-0.8885,-0.8885,-0.8885,-0.8885,-0.8885,-0.8885,-0.8885,-0.8885,-0.8885,-0.8937,-0.9533,-1.0296,-1.116,-1.1755,-1.2886,-1.4234,0.0,0.0,0.0,0.0,0.0,0.0,0.0,-1.541,-1.541,-1.541,-1.541,-1.541,0.0,0.0,0.0,-1.541,-1.6007,-1.6122,-1.5439,-1.6036,-1.6093,-1.5439,-1.5869,-1.6875,-1.8451,-1.8916,-1.8916,-1.849,-1.9414,-1.9358,-1.852,-1.9922,-2.0537,-2.0449,-2.0937,-2.0326,-1.893,-1.8088,-1.6876,-1.5495,-1.507,-1.5432,-1.6078,-1.4778,0.0,0.0,0.0,0.0,0.0,0.0,0.0,0.0,-1.1336,-1.1806,-1.2299,-1.2201,-1.3955,-1.5661,-1.4594,-1.5119,-1.5937,-1.5764,-1.5206,-1.4262,-1.2545,-1.1156,-1.024,-1.0256,-0.9413,-0.8774,-0.8858,-0.7607,-0.7018,-0.8637,-0.7651,-0.7204,-0.8716,-0.8885,-0.8885,-0.8885,-0.8885,-0.8885,-0.8885,-0.8885,-0.8885,-0.8885,-0.8885,-0.8885,-0.8885,-0.8885,-0.8885,-0.8885,-0.8885,-0.8885,-0.8885,-0.8885,-0.8885,-0.8885,-0.8885,-0.8992,-0.9103,-0.8937,-0.8885,-0.8885,-0.8885,-0.8885,-0.8885,-0.8885,-0.8992,-0.921,-1.0566,-1.1269,-1.1647,-1.2994,-1.4395,-1.5583,0.0,0.0,0.0,0.0,0.0,0.0,-1.5497,-1.541,-1.541,-1.541,-1.541,-1.541,-1.541,-1.541,0.0,-1.541,-1.5555,-1.5584,-1.541,-1.5555,-1.5584,-1.541,-1.6132,-1.6924,-1.7637,-1.7744,-1.7744,-1.7656,-1.8838,-1.8818,-1.7695,-1.9686,-2.0019,-1.9065,-2.0215,-1.944,-1.7295,-1.6715,-1.5851,-1.4851,-1.4461,-1.4554,-1.4864,-1.4338,-1.3839,0.0,0.0,0.0,0.0,0.0,0.0,0.0,-1.1336,-1.1512,-1.156,-1.135,-1.2334,-1.3425,-1.2901,-1.3784,-1.4915,-1.5134,-1.3835,-1.2464,-1.2078,-1.0357,-0.893,-0.9058,-0.8944,-0.8844,-0.8878,-0.7683,-0.7172,-0.8654,-0.7651,-0.7204,-0.8716,-0.8885,-0.8885,-0.8885,-0.8885,-0.8885,-0.8885,-0.8885,-0.8885,-0.8885,-0.8885,-0.8885,-0.8885,-0.8885,-0.8885,-0.8885,-0.8885,-0.8885,-0.8885,-0.8885,-0.8885,-0.8885,-0.8885,-0.9482,-1.0566,-0.9427,-0.8885,-0.8885,-0.8885,-0.8885,-0.8885,-0.8885,-0.9588,-1.0676,-1.1,-1.2453,-1.4502,-1.4824,-1.5849,-1.7147,0.0,0.0,0.0,0.0,0.0,0.0,0.0,0.0,-1.6425,-1.5517,-1.541,-1.541,-1.541,-1.541,0.0,0.0,-1.541,-1.541,-1.541,-1.541,-1.5508,-1.5743,-1.6162,-1.6621,-1.7061,-1.6897,-1.678,-1.678,-1.7637,-1.7832,-1.7422,-1.9187,-1.959,-1.8984,-1.9863,-1.8835,-1.6404,-1.5939,-1.4901,-1.3532,-1.3324,-1.3607,-1.4061,-1.3464,-1.3043,-1.277,-1.2488,0.0,0.0,0.0,0.0,0.0,0.0,0.0,-1.1062,-1.1363,-1.198,-1.269,-1.3213,-1.4035,-1.4836,-1.5271,-1.3596,-1.1814,-1.1871,-1.0067,-0.8421,-0.857,-0.8781,-0.8885,-0.8885,-0.7706,-0.7204,-0.8657,-0.7651,-0.7204,-0.8716,-0.8885,-0.8885,-0.8885,-0.8885,-0.8885,-0.8885,-0.8885,-0.921,-0.9915,-0.932,-0.921,-0.9915,-0.9265,-0.8885,-0.8885,-0.8885,-0.8885,-0.8885,-0.9588,-0.997,-0.997,-1.0676,-1.1433,-1.2132,-1.1378,-1.0621,-0.997,-0.997,-0.997,-0.997,-0.997,-1.0836,-1.224,-1.2886,-1.4073,-1.547,-1.6174,-1.6929,-1.7582,0.0,0.0,0.0,0.0,0.0,0.0,0.0,0.0,0.0,-1.5615,-1.541,-1.541,-1.541,-1.541,-1.541,0.0,0.0,0.0,-1.541,-1.541,-1.5546,-1.5883,-1.5903,-1.6046,-1.6381,-1.5988,-1.5827,-1.5977,-1.6318,-1.6775,-1.7445,-1.8691,-1.9248,-1.9189,-1.9541,-1.822,-1.5709,-1.5277,-1.3905,-1.2004,-1.2058,-1.2568,-1.3215,-1.238,-1.2263,-1.2457,-1.1621,-1.1315,-1.1403,-1.1785,0.0,0.0,0.0,0.0,-1.0734,-1.1464,-1.1924,-1.2485,-1.3667,-1.4396,-1.5008,-1.5598,-1.3702,-1.1704,-1.1796,-0.9995,-0.8279,-0.8445,-0.8726,-0.8885,-0.8885,-0.7931,-0.7485,-0.8716,-0.7875,-0.7485,-0.8716,-0.8885,-0.8885,-0.8885,-0.8885,-0.8885,-0.8885,-0.8885,-0.9537,-1.1,-0.9754,-0.9533,-1.0996,-0.9699,-0.8885,-0.8885,-0.8885,-0.9047,-0.9265,-1.0539,-1.1244,-1.1483,-1.294,-1.3642,-1.3696,-1.3911,-1.3102,-1.1487,-1.1487,-1.1487,-1.1487,-1.1487,-1.2349,-1.3804,-1.4931,-1.5577,-1.5902,-1.7147,-1.7582,-1.7582,0.0,0.0,0.0,0.0,0.0,0.0,0.0,0.0,0.0,0.0,-1.541,-1.541,-1.541,-1.541,-1.541,-1.541,-1.5078,-1.5029,-1.5391,0.0,0.0,-1.5069,-1.5056,-1.5084,-1.5139,-1.4684,-1.4801,-1.5498,-1.5557,-1.6201,-1.7445,-1.8691,-1.9082,-1.8695,-1.8744,-1.7269,-1.4671,-1.4103,-1.2683,-1.0847,-1.1069,-1.1384,-1.1682,-1.1296,-1.1216,-1.1247,-1.1115,-1.1049,-1.1136,-1.1718,-1.1511,0.0,0.0,0.0,-1.0613,-1.0734,-1.1337,-1.1917,-1.1857,-1.2999,-1.4402,-1.5244,-1.3573,-1.1664,-1.1589,-0.975,-0.815,-0.8425,-0.8726,-0.8885,-0.8885,-0.8716,-0.866,-0.8881,-0.8716,-0.866,-0.8881,-0.8885,-0.8885,-0.8885,-0.8885,-0.8885,-0.8885,-0.8885,-0.9537,-1.1,-0.9754,-0.9533,-1.0996,-0.9699,-0.8885,-0.8885,-0.8885,-0.9537,-1.0781,-1.121,-1.1976,-1.2999,-1.4449,-1.5097,-1.515,-1.6446,-1.5583,-1.2994,-1.2994,-1.2994,-1.2994,-1.2994,-1.3857,-1.5144,-1.531,-1.6174,-1.7312,-1.7529,-1.7582,-1.7582,0.0,0.0,0.0,0.0,0.0,0.0,0.0,0.0,0.0,0.0,0.0,-1.541,-1.541,-1.541,-1.5312,-1.5078,-1.4893,-1.4756,-1.4669,-1.4487,-1.432,-1.4171,-1.3965,-1.3761,-1.3614,-1.3156,-1.3129,-1.3546,-1.4183,-1.5166,-1.6485,-1.7905,-1.8594,-1.8578,-1.8144,-1.6854,-1.5009,-1.4035,-1.2686,-1.1257,-1.1121,-1.1323,-1.161,-1.1022,-1.0955,-1.1169,-1.0675,-1.0501,-1.0568,-1.1022,-1.0995,-1.0834,-1.1089,0.0,0.0,0.0,-1.0981,-1.157,-1.2394,-1.336,-1.4295,-1.5177,-1.3835,-1.2352,-1.253,-1.0633,-0.8973,-0.9352,-0.905,-0.8733,-0.8851,-0.8885,-0.8885,-0.8885,-0.8885,-0.8885,-0.8885,-0.8885,-0.8885,-0.8885,-0.8885,-0.8885,-0.8885,-0.8885,-0.9537,-1.1,-1.0511,-1.0781,-1.224,-1.1701,-1.1378,-1.1378,-1.1378,-1.1701,-1.2349,-1.3427,-1.4653,-1.5922,-1.6582,-1.6769,-1.6658,-1.7312,-1.6446,-1.4502,-1.4502,-1.4502,-1.4502,-1.4502,-1.531,-1.6605,-1.6605,-1.7041,-1.7582,-1.7582,-1.7582,-1.7582,0.0,0.0,0.0,0.0,0.0,0.0,0.0,0.0,0.0,0.0,0.0,-1.569,-1.569,0.0,0.0,0.0,-1.4687,-1.4482,-1.4133,-1.371,-1.3405,-1.3312,-1.2839,-1.2427,-1.2109,-1.193,-1.1889,-1.1952,-1.3247,-1.4495,-1.5735,-1.7288,-1.8291,-1.8734,-1.792,-1.6815,-1.5474,-1.4261,-1.3042,-1.1919,-1.202,-1.1967,-1.1794,-1.1847,-1.1868,-1.1715,-1.0763,-1.0501,-1.0561,-1.0593,-1.0593,-1.064,-1.0935,-1.0827,0.0,0.0,0.0,-1.1015,-1.2601,-1.32,-1.3661,-1.4696,-1.3806,-1.2795,-1.3176,-1.1567,-1.0005,-1.0179,-0.9512,-0.892,-0.8825,-0.8801,-0.8838,-0.8875,-0.8885,-0.8885,-0.8885,-0.8885,-0.8885,-0.8885,-0.921,-0.9482,-0.9482,-0.9482,-1.0241,-1.2077,-1.1483,-1.1919,-1.375,-1.348,-1.3318,-1.3318,-1.3318,-1.348,-1.3804,-1.5567,-1.698,-1.7995,-1.7995,-1.7883,-1.7582,-1.7582,-1.6982,-1.5956,-1.5956,-1.5956,-1.5956,-1.5956,-1.6605,-1.7582,-1.7582,-1.7582,-1.7582,-1.7582,-1.7582,-1.7582,0.0,0.0,0.0,0.0,0.0,0.0,0.0,0.0,0.0,0.0,0.0,-1.6436,-1.6436,-1.5473,-1.4805,-1.4813,-1.4377,-1.4133,-1.4104,-1.3495,-1.2924,-1.2493,-1.1768,0.0,-1.0802,-1.1407,-1.1647,-1.1524,-1.3245,-1.4649,-1.5735,-1.7288,-1.8457,-1.9219,-1.8359,-1.7125,-1.562,-1.4611,-1.3399,-1.2336,-1.4024,-1.3392,-1.1729,-1.4417,-1.4481,-1.2966,-1.1748,-1.1536,-1.1692,-1.0868,-1.0593,-1.064,-1.0935,-1.0827,-1.0593,0.0,0.0,0.0,-1.1216,-1.1515,-1.1875,-1.3333,-1.301,-1.2437,-1.2913,-1.2078,-1.1012,-1.0345,-1.0167,-0.978,-0.8734,-0.8625,-0.8771,-0.8861,-0.8885,-0.8885,-0.8885,-0.8885,-0.8885,-0.8885,-1.0131,-1.1,-1.1,-1.1,-1.2132,-1.4984,-1.2615,-1.2349,-1.5144,-1.4019,-1.3318,-1.3318,-1.3318,-1.3965,-1.5257,-1.701,-1.7935,-1.7995,-1.7995,-1.7883,-1.7582,-1.7582,-1.7582,-1.7477,-1.7477,-1.7477,-1.7477,-1.7477,-1.7529,-1.7582,-1.7582,-1.7582,-1.7582,-1.7582,-1.7582,-1.7582,0.0,0.0,0.0,0.0,0.0,0.0,0.0,0.0,0.0,0.0,0.0,0.0,0.0,-1.5694,-1.4961,-1.4387,-1.3948,-1.3821,-1.4085,-1.3663,-1.3225,-1.2746,-1.2504,-1.1977,-1.1091,-1.1558,-1.1444,-1.0673,-1.2528,-1.3793,-1.4533,-1.6635,-1.7773,-1.8066,-1.8027,-1.7697,-1.7049,-1.5335,-1.392,-1.2922,-1.377,-1.403,-1.3859,-1.4034,-1.4588,-1.5044,-1.3034,-1.1977,-1.1536,-1.1223,-1.0868,-1.0579,-1.0454,-1.0361,-1.0241,-1.0084,-0.998,-1.0134,-1.0935,-1.1283,-1.1608,-1.2552,-1.2824,-1.3038,-1.3557,-1.3013,-1.2444,-1.2571,-1.1909,-1.0938,-0.9827,-0.9113,-0.8726,-0.8781,-0.8821,-0.8885,-0.8885,-0.9699,-1.0292,-1.0292,-1.1592,-1.2512,-1.2512,-1.2512,-1.2945,-1.3965,-1.3906,-1.4282,-1.5364,-1.5796,-1.6068,-1.6068,-1.6068,-1.6373,-1.7051,-1.7713,-1.8089,-1.833,-1.8082,-1.7935,-1.7876,-1.7675,-1.7582,-1.7582,-1.7582,-1.7582,-1.7582,-1.7582,-1.7582,-1.7582,-1.7582,-1.7582,-1.7582,-1.7582,-1.7582,-1.7582,0.0,0.0,0.0,0.0,0.0,0.0,0.0,0.0,-1.8774,-1.8964,0.0,0.0,0.0,0.0,-1.5342,-1.4601,-1.4016,-1.387,-1.4299,-1.3784,-1.3346,-1.3128,-1.2816,-1.2291,-1.1529,-1.1971,-1.1637,-1.0393,-1.243,-1.3543,-1.3863,-1.5973,-1.7132,-1.7383,-1.7363,-1.7598,-1.7857,-1.5846,-1.4508,-1.3827,-1.4535,-1.4587,-1.4271,-1.4744,-1.524,-1.55,-1.383,-1.2857,-1.2305,-1.2168,-1.1917,-1.149,-1.0895,-1.0367,-0.9913,-0.9619,-0.974,-1.0033,-1.0327,-1.0656,-1.1176,-1.1957,-1.2162,-1.2447,-1.3496,-1.2953,-1.2445,-1.3112,-1.2522,-1.1649,-1.0893,-1.0275,-0.9795,-0.9487,-0.949,-0.9742,-1.0288,-1.1214,-1.1864,-1.1864,-1.3102,-1.4019,-1.4019,-1.4019,-1.4234,-1.4722,-1.515,-1.563,-1.6121,-1.7094,-1.7582,-1.7582,-1.7582,-1.7682,-1.7836,-1.7942,-1.8096,-1.8183,-1.8083,-1.7929,-1.7883,-1.7675,-1.7582,-1.7582,-1.7582,-1.7582,-1.7582,-1.7582,-1.7582,-1.7582,-1.7582,-1.7582,-1.7582,-1.7582,-1.7891,-1.8251,0.0,0.0,0.0,0.0,0.0,0.0,0.0,0.0,-1.8878,-1.9468,0.0,0.0,0.0,0.0,0.0,-1.5449,-1.4621,-1.4328,-1.4775,-1.3792,-1.3322,-1.3618,0.0,0.0,-1.1961,-1.2612,-1.2263,-1.0847,-1.3021,-1.3982,-1.3817,-1.5359,-1.6535,-1.7285,-1.6455,-1.6746,-1.7789,-1.6011,-1.5083,-1.4974,-1.6411,-1.5154,-1.2835,-1.6734,-1.6555,-1.426,-1.4211,-1.4148,-1.4082,-1.3746,-1.362,-1.3367,-1.2198,-1.0861,-0.9613,-0.9284,-0.9446,-0.9619,0.0,0.0,0.0,-1.1558,-1.0962,-1.0609,-1.2513,-1.1833,-1.1033,-1.1775,-1.1963,-1.1963,-1.194,-1.2117,-1.1996,-1.1164,-1.0969,-1.1514,-1.3057,-1.3298,-1.3357,-1.3362,-1.4598,-1.5464,-1.547,-1.547,-1.6062,-1.7477,-1.628,-1.6062,-1.7529,-1.7582,-1.7582,-1.7582,-1.7582,-1.7582,-1.7582,-1.7883,-1.7883,-1.7602,-1.7869,-1.7862,-1.7595,-1.7589,-1.7582,-1.7582,-1.7582,-1.7582,-1.7582,-1.7582,-1.7582,-1.7582,-1.7582,-1.7582,-1.7582,-1.7582,-1.8454,-1.9576,0.0,0.0,0.0,0.0,0.0,-1.945,-1.8801,-1.8259,-1.7952,0.0,0.0,0.0,-1.772,-1.6748,-1.5919,-1.5449,-1.5167,-1.5107,-1.5234,-1.4945,-1.4687,-1.4477,-1.4449,-1.3989,-1.3073,-1.3861,-1.3472,-1.1808,-1.3349,-1.3927,-1.3614,-1.4963,-1.5723,-1.5937,-1.5738,-1.5705,-1.5673,-1.4547,-1.3958,-1.3824,-1.4568,-1.5065,-1.5426,-1.6186,-1.7039,-1.765,-1.6436,-1.5578,-1.5023,-1.4937,-1.4055,-1.275,-1.1109,-1.0033,-0.9277,-0.8984,-0.9285,-0.9619,-0.9291,0.0,0.0,0.0,0.0,0.0,-1.0819,-1.0837,-1.1178,-1.2574,-1.2763,-1.2823,-1.3261,-1.34,-1.34,-1.3356,-1.2587,-1.2148,-1.2571,-1.3511,-1.4257,-1.4489,-1.5833,-1.6762,-1.6962,-1.6988,-1.7147,-1.7582,-1.7199,-1.7147,-1.7582,-1.7582,-1.7582,-1.7582,-1.7582,-1.7582,-1.7582,-1.7669,-1.7782,-1.7862,-1.7769,-1.7776,-1.7856,-1.7689,-1.7582,-1.7582,-1.7582,-1.7582,-1.7582,-1.7582,-1.7582,-1.7582,-1.7582,-1.7582,-1.7582,-1.7582,-1.8454,-1.9576,0.0,0.0,-2.057,-2.0811,-2.0161,-1.9512,-1.9228,-1.8344,-1.7705,0.0,0.0,0.0,-1.752,-1.731,-1.7044,-1.6749,-1.6386,-1.6094,-1.595,-1.5729,-1.5359,-1.4823,-1.4844,-1.4582,-1.4053,-1.4531,-1.4121,-1.274,-1.3841,-1.4092,-1.3525,-1.4639,-1.5059,-1.4846,-1.4619,-1.4246,-1.3787,-1.2697,-1.2628,-1.3379,-1.4116,-1.475,-1.5367,-1.5939,-1.6732,-1.7368,-1.6885,-1.6139,-1.5491,-1.6106,-1.497,-1.3099,-1.1657,-1.0561,-0.9686,-0.9118,-0.9229,-0.9438,-0.8975,-0.9219,-0.9541,-0.9533,0.0,0.0,-0.9842,-0.9425,-0.964,-1.2121,-1.2547,-1.2909,-1.442,-1.4704,-1.4723,-1.4767,-1.4121,-1.3788,-1.4145,-1.4907,-1.548,-1.5692,-1.6489,-1.7132,-1.7427,-1.7454,-1.7507,-1.7569,-1.7582,-1.7582,-1.7582,-1.7582,-1.7582,-1.7582,-1.7582,-1.7582,-1.7582,-1.7582,-1.7669,-1.7849,-1.7669,-1.7675,-1.7849,-1.7662,-1.7582,-1.7582,-1.7582,-1.7582,-1.7582,-1.7582,-1.7582,-1.7582,-1.7582,-1.7582,-1.7701,-1.8443,-1.9487,-2.0562,0.0,0.0,-2.0667,-2.1919,-2.0759,-1.9673,-1.9805,-1.8666,-1.7854,0.0,-1.7411,-1.7291,-1.8135,-1.8481,-1.8695,-1.8667,-1.7809,-1.7145,-1.6793,-1.6229,-1.5594,-1.491,-1.4482,-1.4406,-1.4775,-1.4873,-1.4482,-1.3574,-1.4346,-1.4346,-1.3662,-1.4336,-1.4463,-1.4077,-1.3385,-1.2786,-1.2208,-1.1,-1.1546,-1.3285,-1.4296,-1.4335,-1.3999,-1.5939,-1.6099,-1.5438,-1.644,-1.6299,-1.5825,-1.7034,-1.6032,-1.4102,-1.3105,-1.1913,-1.0693,-0.9644,-0.9398,-0.9285,-0.8685,-0.8617,-0.8768,-0.9053,-0.8207,0.0,-0.8946,-0.7684,-0.7281,-1.0807,-1.1436,-1.2164,-1.489,-1.5491,-1.5438,-1.515,-1.5244,-1.5631,-1.6446,-1.6533,-1.6547,-1.6647,-1.6627,-1.6734,-1.7119,-1.7152,-1.7273,-1.7515,-1.7562,-1.7582,-1.7582,-1.7582,-1.7582,-1.7582,-1.7582,-1.7582,-1.7582,-1.7582,-1.7582,-1.7582,-1.7582,-1.7582,-1.7582,-1.7582,-1.7582,-1.7582,-1.7582,-1.7582,-1.7582,-1.7582,-1.7687,-1.7838,-1.7838,-1.7937,-1.8286,-1.9896,-2.1095,-2.2156,-2.0691,-2.0783,-2.092,-2.1117,-2.0426,-1.9705,-1.9303,-1.8507,-1.7978,-1.7988,-1.8463,-1.8984,-1.9492,-1.9316,-1.9153,-1.9147,-1.826,-1.7558,-1.7281,-1.6409,-1.5729,-1.5302,-1.5205,-1.5049,-1.4823,-1.5488,-1.5225,-1.3987,-1.4153,-1.4328,-1.4521,-1.4004,-1.3896,-1.4077,-1.3286,-1.2399,-1.151,-1.1631,-1.2007,-1.2501,-1.2735,-1.3721,-1.515,-1.6025,-1.6814,-1.7442,-1.7422,-1.7301,-1.7088,-1.6667,-1.6066,-1.517,-1.3367,-1.2757,-1.2378,-1.0807,-1.0252,-1.0032,-0.9451,-0.8717,-0.8116,-0.7896,-0.7665,0.0,-0.6502,-0.6171,-0.664,-0.8664,-0.9059,-0.9846,-1.2492,-1.3394,-1.3621,-1.3353,-1.4311,-1.519,-1.5598,-1.5451,-1.5611,-1.6273,-1.6146,-1.6206,-1.674,-1.6794,-1.6914,-1.7259,-1.7501,-1.7582,-1.7582,-1.7582,-1.7582,-1.7582,-1.7582,-1.7582,-1.7582,-1.7582,-1.7582,-1.7582,-1.7582,-1.7582,-1.7582,-1.7582,-1.7582,-1.7582,-1.7582,-1.7582,-1.7582,-1.7582,-1.8251,-1.922,-1.922,-1.9878,-2.0979,-2.1658,-2.2485,-2.3379,-1.9769,-2.0044,-2.0679,-2.1314,-2.0411,-1.9813,-2.0444,-1.9646,-1.8887,-1.8672,-1.9394,-1.9844,-1.9629,-1.96,-1.9511,-1.9304,-1.8966,-1.8525,-1.7966,-1.7273,-1.6475,-1.569,-1.5287,-1.5195,-1.5449,-1.5654,-1.542,-1.4747,-1.4561,-1.4355,-1.4141,-1.3926,-1.4277,-1.503,-1.3423,-1.3001,-1.3383,-1.1822,-1.1729,-1.2704,-1.3377,-1.4516,-1.5912,-1.6647,-1.7295,-1.7796,-1.7642,-1.7582,-1.7573,-1.7519,-1.6566,-1.5374,-1.5142,-1.4296,-1.312,-1.1824,-1.0954,-1.0212,-0.9305,-0.8319,-0.7491,-0.716,-0.7044,0.0,0.0,-0.5876,-0.6101,-0.8107,-0.8499,-0.9157,-1.1353,-1.2187,-1.2538,-1.2563,-1.3527,-1.4309,-1.4309,-1.4937,-1.5558,-1.5999,-1.5919,-1.5999,-1.6446,-1.6486,-1.6673,-1.7166,-1.7333,-1.7481,-1.7575,-1.7582,-1.7582,-1.7582,-1.7582,-1.7582,-1.7582,-1.7582,-1.7582,-1.7582,-1.7582,-1.7582,-1.7582,-1.7582,-1.7582,-1.7582,-1.7582,-1.7996,-1.861,-1.861,-1.9775,-2.1507,-2.0135,-2.0436,-2.1844,-2.2895,-2.3461,-2.3845,-1.8758,-1.9334,-2.0292,-2.1194,-2.0213,-1.9796,-2.1261,-2.0587,-1.9853,-1.9687,-2.038,-2.0702,-2.0299,-2.0458,-2.0511,-2.027,-2.0444,-2.013,-1.9081,-1.8459,-1.7656,-1.6592,-1.5483,-1.5381,-1.633,-1.5801,-1.5498,-1.541,-1.4912,-1.4346,-1.376,-1.3821,-1.4531,-1.5644,-1.3941,-1.3995,-1.5149,-1.2497,-1.2354,-1.3974,-1.5107,-1.569,-1.6028,-1.7154,-1.7517,-1.7442,-1.7675,-1.7928,-1.8133,-1.8253,-1.7118,-1.5774,-1.6454,-1.5453,-1.3793,-1.2652,-1.1498,-1.0342,-0.9081,-0.7893,-0.6945,-0.67,-0.6481,-0.6384,0.0,0.0,0.0,-0.7546,-0.811,-0.8685,-1.0227,-1.1007,-1.1443,-1.1677,-1.2521,-1.3094,-1.2861,-1.4321,-1.5415,-1.5391,-1.5558,-1.5846,-1.6368,-1.6334,-1.6697,-1.7665,-1.7116,-1.7106,-1.7828,-1.7652,-1.7522,-1.7582,-1.7582,-1.7582,-1.7582,-1.7582,-1.7582,-1.7582,-1.7582,-1.7582,-1.7582,-1.7582,-1.7582,-1.7582,-1.7582,-1.8349,-1.9576,-1.9576,-2.1202,-2.3484,-2.1253,-2.1245,-2.266,-2.4175,-2.4436,-2.431,-1.8527,-1.9596,-2.0192,-1.918,-1.9156,-1.9353,-1.9597,-1.9772,-2.0176,-2.0878,-2.1435,-2.2227,-2.3492,-2.3322,-2.3225,-2.3597,-2.3722,-2.2963,-2.1006,-1.9908,-1.9182,-1.8944,-1.6598,-1.5937,-1.7207,-1.6447,-1.5831,-1.541,-1.4582,-1.4328,-1.4619,-1.3535,-1.3496,-1.4367,-1.5284,-1.5058,-1.4081,-1.4912,-1.592,-1.7032,-1.7358,-1.6332,-1.4832,-1.6772,-1.7196,-1.6941,-1.8003,-1.9005,-1.9506,-1.7583,-1.7358,-1.7473,-1.4865,-1.473,-1.5105,-1.2946,-1.1848,-1.1069,-0.963,-0.791,-0.6538,-0.6465,-0.6244,-0.5937,-0.5555,0.0,-0.507,-0.5558,0.0,-0.7086,-0.7931,0.0,0.0,-0.955,-1.0729,-1.1628,-1.1595,-1.2993,-1.3961,-1.3869,-1.4583,-1.5507,-1.6625,-1.6491,-1.7226,-1.9438,-1.6921,-1.6304,-1.873,-1.7856,-1.7367,-1.7575,-1.7582,-1.7582,-1.7582,-1.7582,-1.7582,-1.7582,-1.7582,-1.7582,-1.7582,-1.7582,-1.7582,-1.7582,-1.7582,-1.8349,-1.9576,-1.9576,-2.1202,-2.3683,-2.3384,-2.4048,-2.5332,-2.5913,-2.5856,-2.5547,-1.7301,-1.8165,-1.8833,-1.8043,-1.8245,-1.8799,-1.9541,-2.0664,-2.1553,-2.1924,-2.2353,-2.3036,-2.4126,-2.3585,-2.337,-2.3876,-2.4747,-2.419,-2.1641,-2.1315,-2.0796,-1.9976,-1.7522,-1.6643,-1.7726,-1.6396,-1.5596,-1.541,-1.428,-1.3841,-1.4023,-1.3267,-1.4004,-1.6025,-1.6075,-1.6844,-1.8021,-1.6895,-1.6833,-1.747,-1.7829,-1.7106,-1.6063,-1.8424,-1.8698,-1.7909,-1.9306,-1.9521,-1.9377,-2.0668,-1.9464,-1.7656,-1.902,-1.7602,-1.5347,-1.5112,-1.3535,-1.1598,-1.0484,-0.9422,-0.8365,-0.7218,-0.6981,-0.6712,-0.5359,-0.4873,-0.4736,-0.5005,0.0,0.0,0.0,0.0,0.0,0.0,-0.9973,-1.1094,-1.0711,-1.2423,-1.3667,-1.342,-1.3919,-1.4884,-1.6359,-1.6584,-1.754,-1.9761,-1.7736,-1.7401,-1.9695,-1.9572,-1.91,-1.8444,-1.8615,-1.8401,-1.7635,-1.7582,-1.7989,-1.876,-1.876,-1.9213,-1.9973,-1.9973,-1.9973,-1.9973,-1.9973,-2.0743,-2.1963,-2.1963,-2.3135,-2.4864,-2.4864,-2.5226,-2.5713,-2.5947,-2.5849,-2.5713,-1.702,-1.7613,-1.8191,-1.7676,-1.7813,-1.8398,-1.9561,-2.0908,-2.2007,-2.2685,-2.3056,-2.3764,-2.5102,-2.453,-2.4333,-2.4977,-2.5938,-2.5605,-2.3589,-2.2766,-2.2378,-2.2516,-1.9008,-1.7768,-1.9308,-1.6979,-1.5678,-1.554,-1.4178,-1.3633,-1.3848,-1.3301,-1.4373,-1.6701,-1.6652,-1.7988,-2.0206,-1.8674,-1.8501,-1.9358,-1.9686,-1.9359,-1.8861,-2.0388,-2.0271,-1.9536,-2.104,-2.0776,-2.015,-2.2341,-2.1053,-1.892,-2.1227,-1.9203,-1.6115,-1.6802,-1.5003,-1.2595,-1.1455,-1.0755,-0.9938,-0.8186,-0.769,-0.7205,-0.5722,-0.4973,-0.4665,-0.4819,-0.5335,0.0,0.0,0.0,-0.7506,-0.7611,0.0,-1.0673,-1.0092,-1.1902,-1.3217,-1.2932,-1.3903,-1.5071,-1.6354,-1.6431,-1.7473,-2.0045,-1.8095,-1.7805,-2.0163,-2.0523,-2.0172,-1.9091,-1.9671,-1.9582,-1.8753,-1.87,-1.9213,-2.0187,-2.0187,-2.0692,-2.1702,-2.1702,-2.1702,-2.1702,-2.1702,-2.2466,-2.3692,-2.3692,-2.4501,-2.5693,-2.5693,-2.5693,-2.5693,-2.5693,-2.5693,-2.5693,-1.8532,-1.893,-1.8983,-1.8144,-1.7978,-1.8311,-1.918,-1.9697,-2.0814,-2.3146,-2.3494,-2.4538,-2.7291,-2.7231,-2.7363,-2.8344,-2.7954,-2.7708,-2.7881,-2.4331,-2.3908,-2.7672,-2.1486,-1.9458,-2.2665,-1.875,-1.6409,-1.5873,-1.4282,-1.3936,-1.4727,-1.3877,-1.3984,-1.4961,-1.7021,-1.8008,-1.8242,-2.0235,-2.2272,-2.4199,-2.4192,-2.3958,-2.3422,-2.2063,-2.1514,-2.1662,-2.3175,-2.34,-2.2733,-2.0645,-2.1213,-2.2211,-1.8682,-1.7864,-1.8027,-1.7256,-1.5894,-1.4298,-1.2553,-1.1427,-1.0491,-0.9264,-0.8044,-0.701,-0.6633,-0.5674,-0.4863,-0.4724,-0.6169,-0.7128,-0.6164,-0.7702,-0.877,-0.7693,-0.9079,0.0,0.0,-1.127,-1.2274,-1.2142,-1.4722,-1.6616,-1.6963,-1.5888,-1.6837,-2.0855,-1.7495,-1.661,-1.9728,-1.9909,-1.9718,-1.9227,-2.0329,-2.1138,-2.1541,-2.155,-2.16,-2.1651,-2.1651,-2.1651,-2.1702,-2.1702,-2.1702,-2.1702,-2.1702,-2.2466,-2.3692,-2.3692,-2.4501,-2.5693,-2.5693,-2.5693,-2.5693,-2.5693,-2.5693,-2.5693,-1.9802,-1.9128,-1.8148,-1.7299,-1.7402,-1.7978,-1.9111,-2.0916,-2.2598,-2.384,-2.3842,-2.4933,-2.8066,-2.7249,-2.6824,-2.7857,-2.8173,-2.7689,-2.6204,-2.4536,-2.4577,-2.6818,-2.2369,-2.0994,-2.3391,-1.9924,-1.7771,-1.7153,-1.5294,-1.4606,-1.5057,-1.4255,-1.4348,-1.5283,-1.7168,-1.8809,-2.0186,-2.1533,-2.2666,-2.3633,-2.4199,-2.4395,-2.4184,-2.232,-2.1591,-2.1805,-2.3263,-2.3692,-2.3604,-2.3519,-2.2809,-2.176,-2.1034,-1.9177,-1.7433,-1.798,-1.6631,-1.4806,-1.4178,-1.404,-1.3577,-1.1342,-1.0443,-0.9622,-0.7636,-0.7071,-0.6815,-0.6389,-0.7259,-0.7865,-0.713,-0.7845,-0.8334,-0.7732,-0.9306,-1.0337,0.0,-1.0771,-1.2123,-1.292,-1.4705,-1.5803,-1.562,-1.6449,-1.8058,-2.0615,-1.925,-1.9418,-2.1874,-2.2316,-2.1986,-2.0937,-2.1847,-2.1961,-2.1238,-2.1527,-2.2156,-2.3018,-2.3018,-2.3484,-2.4353,-2.4353,-2.4353,-2.4353,-2.4353,-2.4609,-2.502,-2.502,-2.5274,-2.5693,-2.5693,-2.6197,-2.6945,-2.6945,-2.6945,-2.7078,-2.0528,-1.9464,-1.8282,-1.772,-1.8014,-1.869,-1.9696,-2.2052,-2.4126,-2.53,-2.5581,-2.6517,-2.8723,-2.7785,-2.7224,-2.7746,-2.767,-2.711,-2.6033,-2.4806,-2.5087,-2.7289,-2.3687,-2.2758,-2.5147,-2.1097,-1.8887,-1.8715,-1.5927,-1.5031,-1.5976,-1.4864,-1.4708,-1.5478,-1.6882,-1.8715,-2.081,-2.2178,-2.3437,-2.4609,-2.5449,-2.5562,-2.5034,-2.3714,-2.2696,-2.2206,-2.4573,-2.5049,-2.4731,-2.5415,-2.4738,-2.347,-2.2897,-2.096,-1.8921,-1.9115,-1.7711,-1.5972,-1.5591,-1.5705,-1.5445,-1.3134,-1.2366,-1.1532,-0.9094,-0.856,-0.8581,-0.8463,-0.8865,-0.937,-0.9825,-0.9803,-0.9514,-0.8997,-1.0268,-1.1063,0.0,-1.1269,-1.2308,-1.2969,-1.4213,-1.5142,-1.5508,-1.6047,-1.75,-2.0137,-1.9512,-1.9956,-2.214,-2.309,-2.3031,-2.1933,-2.2795,-2.2926,-2.2228,-2.2663,-2.3319,-2.418,-2.4328,-2.4864,-2.5693,-2.5693,-2.5965,-2.639,-2.639,-2.661,-2.703,-2.703,-2.703,-2.703,-2.703,-2.7531,-2.8179,-2.7778,-2.7861,-2.8366,-2.0627,-1.9857,-1.9306,-1.9306,-1.9742,-2.0263,-2.0709,-2.2849,-2.5135,-2.7189,-2.8274,-2.8951,-2.9182,-2.8755,-2.8364,-2.8107,-2.662,-2.6205,-2.7348,-2.5168,-2.5476,-2.9183,-2.5392,-2.4689,-2.7926,-2.2375,-1.9801,-2.0518,-1.629,-1.5338,-1.7435,-1.5642,-1.5029,-1.5449,-1.6307,-1.7896,-2.0088,-2.2268,-2.4648,-2.7119,-2.7959,-2.741,-2.6019,-2.6191,-2.4721,-2.3082,-2.6842,-2.734,-2.6209,-2.61,-2.6745,-2.6984,-2.4034,-2.2855,-2.2175,-2.0507,-1.9045,-1.7742,-1.6647,-1.6339,-1.604,-1.4556,-1.3651,-1.268,-1.1032,-1.0325,-1.0244,-1.1032,-1.1122,-1.1724,-1.3894,-1.3294,-1.2176,-1.1263,-1.1777,-1.2268,-1.2261,-1.2617,-1.2725,-1.2369,-1.3402,-1.4757,-1.6326,-1.4777,-1.5381,-1.9453,-1.834,-1.8459,-2.0682,-2.2187,-2.2694,-2.2071,-2.3174,-2.3984,-2.4385,-2.4908,-2.5134,-2.521,-2.5642,-2.5858,-2.5868,-2.5868,-2.6524,-2.7683,-2.7683,-2.8319,-2.9407,-2.9407,-2.9407,-2.9407,-2.9407,-2.9453,-2.9361,-2.8179,-2.8541,-2.959,-1.9713,-1.9455,-1.9302,-1.9302,-1.9733,-2.0205,-2.0587,-2.2098,-2.4065,-2.6645,-2.6184,-2.6573,-2.9055,-2.7604,-2.6444,-2.6346,-2.5937,-2.5817,-2.6162,-2.498,-2.5976,-2.9795,-2.6282,-2.5759,-2.9071,-2.4007,-2.1656,-2.2336,-1.8114,-1.6786,-1.8171,-1.6185,-1.5312,-1.5449,-1.6307,-1.8096,-2.0537,-2.2031,-2.4541,-2.7549,-2.8076,-2.6993,-2.5243,-2.7034,-2.6231,-2.4371,-2.6059,-2.7105,-2.7555,-2.649,-2.5537,-2.4463,-2.2576,-2.1018,-1.9731,-1.9105,-1.8482,-1.7876,-1.7395,-1.7248,-1.7001,-1.5972,-1.5239,-1.475,-1.4655,-1.4457,-1.4543,-1.5325,-1.5721,-1.5568,-1.4488,-1.4016,-1.3248,-1.1519,-1.1625,-1.2223,-1.3055,-1.2701,-1.2832,-1.3994,-1.4414,-1.4297,-1.3441,-1.5205,-1.6709,-1.7457,-1.832,-1.977,-2.193,-2.1525,-2.1741,-2.2757,-2.3479,-2.3838,-2.3945,-2.5224,-2.6058,-2.6434,-2.7405,-2.8055,-2.8448,-2.8448,-2.8634,-2.8947,-2.8947,-2.9085,-2.9407,-2.9407,-2.9407,-2.9407,-2.9407,-2.9943,-3.0721,-3.0406,-3.1057,-3.2152,-1.9721,-1.9747,-1.9902,-2.0098,-2.0998,-2.1829,-2.2248,-2.3481,-2.5288,-2.781,-2.7355,-2.7291,-2.8511,-2.7875,-2.6887,-2.5781,-2.6425,-2.6661,-2.6064,-2.6822,-2.8236,-3.0454,-2.7978,-2.7938,-3.0976,-2.6144,-2.3783,-2.421,-2.0078,-1.8124,-1.8239,-1.6302,-1.5312,-1.5186,-1.6229,-1.7744,-1.9666,-2.2441,-2.4863,-2.6914,-2.7891,-2.7463,0.0,-2.7786,-2.7453,-2.6314,-2.6861,-2.7618,-2.8184,-2.734,-2.6499,-2.5498,-2.4036,-2.2408,-2.0842,-1.979,-1.8844,-1.8143,-1.7702,-1.7582,-1.7462,-1.6967,-1.7033,-1.7161,-1.6957,-1.7286,-1.7849,-1.8479,-1.8386,-1.8152,-1.8149,-1.6457,-1.4423,-1.2342,-1.2054,-1.231,-1.2861,-1.2837,-1.2983,-1.3603,-1.4326,-1.4189,-1.2666,-1.5293,-1.6914,-1.6475,-1.7861,-1.9502,-2.1279,-2.123,-2.1758,-2.3052,-2.362,-2.3991,-2.4216,-2.5535,-2.6464,-2.6982,-2.8065,-2.8779,-2.9048,-2.9306,-2.9681,-3.0181,-3.0181,-3.0496,-3.1012,-3.1012,-3.1012,-3.1012,-3.1012,-3.1412,-3.2052,-3.2052,-3.2469,-3.3124,-2.0421,-2.0687,-2.1096,-2.1182,-2.2925,-2.4432,-2.4822,-2.5945,-2.7462,-2.953,-2.984,-2.9453,-2.8372,-2.9026,-2.8661,-2.6599,-2.7845,-2.8269,-2.7168,-2.9548,-3.1135,-3.1332,-2.9989,-3.0425,-3.2958,-2.8433,-2.6009,-2.5882,-2.1905,-1.9318,-1.7936,-1.6136,-1.5127,-1.4834,-1.5995,-1.7262,-1.8799,-2.3247,-2.542,-2.6123,-2.7676,-2.8291,-2.8291,-2.8291,-2.8291,-2.8291,-2.8291,-2.8291,-2.8291,-2.8291,-2.8184,-2.778,-2.649,-2.4931,-2.3126,-2.1231,-1.9654,-1.8357,-1.7749,-1.7733,-1.7838,-1.7838,-1.8864,-1.9684,-1.8861,-1.9513,-2.0466,-2.0977,-2.0192,-2.0054,-2.233,-1.9383,-1.5851,-1.3674,-1.3249,-1.314,-1.3035,-1.3441,0.0,0.0,0.0,0.0,-1.313,0.0,0.0,0.0,-1.7002,-1.833,-1.9834,-2.084,-2.1997,-2.326,-2.382,-2.4409,-2.5041,-2.6036,-2.679,-2.7369,-2.8436,-2.9,-2.9091,-2.9636,-3.0451,-3.1456,-3.1456,-3.2096,-3.3124,-3.3124,-3.3124,-3.3124,-3.3124,-3.3124,-3.3124,-3.3124,-3.3119,-3.3181,-2.185,-2.2765,-2.3073,-2.1499,-2.4585,-2.7238,-2.7031,-2.7197,-2.7969,-2.9665,-2.9645,-2.9942,-3.1196,-3.056,-3.0075,-3.0057,-3.036,-3.0448,-3.0228,-3.0732,-3.1661,-3.3183,-3.1577,-3.1547,-3.3494,-3.0238,-2.7747,-2.6223,-2.2744,-1.9943,-1.7779,-1.5815,-1.4882,-1.4805,-1.5381,-1.7715,-2.1377,-2.402,-2.5996,-2.7383,-2.8037,-2.8291,-2.8291,-2.8291,-2.8291,-2.8291,-2.8291,-2.8291,-2.8291,-2.8291,-2.7501,-2.6436,-2.6155,-2.4203,-2.1846,-2.0958,-1.9654,-1.8357,-1.7749,-1.8401,-1.9272,-1.9272,-2.0282,-2.1585,-2.2487,-2.258,-2.2693,-2.3551,-2.3274,-2.2504,-2.1269,-1.9976,-1.8291,-1.591,-1.6226,-1.6944,-1.7422,-1.6073,-1.5264,0.0,0.0,-1.6685,-1.3674,0.0,0.0,0.0,0.0,-1.7051,-1.9775,-1.9141,-2.0482,-2.4364,-2.4587,-2.5177,-2.6182,-2.7238,-2.8062,-2.858,-3.0148,-3.1156,-3.1612,-3.2179,-3.2568,-3.2754,-3.2754,-3.2884,-3.3124,-3.3124,-3.3124,-3.3124,-3.3124,-3.3124,-3.3124,-3.3124,-3.337,-3.3759,-2.3889,-2.3763,-2.3386,-2.2673,-2.5634,-2.8153,-2.8207,-2.9699,-3.0565,-2.9833,-2.9143,-2.9105,-3.0157,-3.0812,-3.1146,-3.1021,-3.188,-3.2377,-3.2377,-3.3303,-3.4197,-3.5071,-3.3599,-3.3491,-3.5071,-3.2674,-3.0074,-2.746,-2.5016,-2.1686,-1.7551,-1.6061,-1.5024,-1.4521,-1.6268,-1.8496,-2.1064,-2.4121,-2.5898,-2.6758,-2.7851,-2.8291,-2.8291,-2.8291,-2.8291,-2.8291,-2.8291,-2.8291,-2.8291,-2.8291,-2.734,-2.6209,-2.6997,-2.516,-2.2663,-2.226,-2.1449,-2.0409,-1.9237,-1.9754,-2.0692,-2.0692,-2.1702,-2.2926,-2.3534,-2.4049,-2.4487,-2.4703,-2.491,-2.4454,-2.2625,-2.152,-2.0247,-1.83,-1.8513,-1.8997,-1.9132,-1.8965,-1.8897,0.0,0.0,0.0,0.0,0.0,0.0,0.0,0.0,0.0,-2.0886,-2.0073,-2.1418,-2.5574,-2.5957,-2.6506,-2.7319,-2.8122,-2.8778,-2.938,-3.0742,-3.1537,-3.1813,-3.2679,-3.3398,-3.3911,-3.3911,-3.422,-3.4678,-3.4137,-3.3598,-3.3124,-3.3124,-3.3124,-3.3106,-3.3395,-3.3671,-3.3897,-2.5441,-2.4703,-2.3999,-2.3942,-2.6451,-2.8622,-2.9128,-3.1523,-3.2621,-3.0898,-2.9985,-2.9646,-3.002,-3.1729,-3.2659,-3.2202,-3.3458,-3.4293,-3.4293,-3.5623,-3.6263,-3.6013,-3.5223,-3.5174,-3.5966,-3.4737,-3.2521,-2.929,-2.745,-2.3663,-1.8159,-1.6722,-1.5622,-1.4941,-1.7842,-1.9777,-2.1084,-2.4309,-2.5898,-2.6347,-2.7744,-2.8291,-2.8291,-2.8291,-2.8291,-2.8291,-2.8291,-2.8291,-2.8291,-2.8291,-2.7501,-2.6771,-2.795,-2.6445,-2.4255,-2.3938,-2.3357,-2.2499,-2.0969,-2.137,-2.2249,-2.2131,-2.3126,-2.4146,-2.4146,-2.4922,-2.5654,-2.5526,-2.6028,-2.6012,-2.4386,-2.3731,-2.2746,-2.0576,-2.0789,-2.1138,-2.0826,-2.1442,-2.1987,0.0,0.0,0.0,-2.0274,-1.9257,0.0,0.0,0.0,0.0,-2.1667,-2.1421,-2.2812,-2.6404,-2.6901,-2.7436,-2.8077,-2.8881,-2.9515,-2.998,-3.1185,-3.1798,-3.1942,-3.3085,-3.414,-3.502,-3.502,-3.548,-3.6132,-3.5359,-3.454,-3.3742,-3.3513,-3.3504,-3.3657,-3.4101,-3.4256,-3.4293,-2.552,-2.626,-2.6423,-2.4667,-2.733,-2.9805,-3.0036,-3.0708,-3.1914,-3.3962,-3.413,-3.4284,-3.4785,-3.5039,-3.536,-3.5861,-3.6056,-3.6141,-3.6141,-3.6332,-3.587,-3.4629,-3.5619,-3.5715,-3.4629,-3.5618,-3.4727,-3.1851,-2.9049,-2.5278,-2.07,-1.7919,-1.6803,-1.7191,-1.9798,-2.2089,-2.4072,-2.5196,-2.6631,-2.8066,-2.8223,-2.8291,-2.8291,-2.8291,-2.8291,-2.8291,-2.8291,-2.8291,-2.8291,-2.8291,-2.8237,-2.8121,-2.8237,-2.7168,-2.5792,-2.5505,-2.4397,-2.3141,-2.2297,-2.3057,-2.3973,-2.3623,-2.451,-2.5528,-2.5528,-2.5586,-2.5885,-2.6574,-2.7354,-2.7262,-2.5017,-2.6628,-2.6878,-2.2648,-2.3686,-2.485,-2.4395,-2.2791,-2.245,-2.4661,0.0,0.0,-2.2209,-1.8073,0.0,0.0,-1.8622,0.0,-2.0673,-2.1587,-2.3438,-2.6429,-2.6567,-2.7059,-2.81,-2.9639,-3.0482,-3.0557,-3.2152,-3.3152,-3.3606,-3.4748,-3.5541,-3.6053,-3.6053,-3.6119,-3.6198,-3.6093,-3.6013,-3.5814,-3.4897,-3.4868,-3.5299,-3.5381,-3.5406,-3.5516,-2.9954,-2.8659,-2.7468,-2.7198,-2.7889,-2.8843,-2.9731,-3.1334,-3.2946,-3.4351,-3.3971,-3.3823,-3.437,-3.5053,-3.5429,-3.5222,-3.5918,-3.5702,-3.4044,-3.5499,-3.581,-3.4434,-3.5667,-3.5763,-3.4434,-3.5715,-3.4761,-3.1482,-2.946,-2.6492,-2.2737,-2.0364,-1.9421,-1.9795,-2.2375,-2.4019,-2.4959,-2.742,-2.8416,-2.8398,-2.9154,-2.9006,-2.8291,-2.8291,-2.8291,-2.8291,-2.8291,-2.8291,-2.8291,-2.8291,-2.7726,-2.7105,-2.8014,-2.7276,-2.6064,-2.5955,-2.5926,-2.5724,-2.4483,-2.4854,-2.55,-2.5389,-2.5516,-2.5693,-2.5693,-2.6294,-2.6941,-2.7254,-2.8454,-2.9331,-2.8799,-2.8827,-2.8317,-2.6517,-2.6686,-2.7017,-2.6804,-2.6623,-2.7102,-2.8658,0.0,-2.5768,0.0,-2.196,-1.9742,0.0,0.0,-1.7299,-2.0948,-2.1821,-2.3358,-2.5889,-2.7582,-2.8522,-2.8562,-2.9616,-3.0444,-3.1085,-3.175,-3.2698,-3.382,-3.4665,-3.5791,-3.7214,-3.7852,-3.7776,-3.7175,-3.7175,-3.6774,-3.6158,-3.5734,-3.5559,-3.5616,-3.6708,-3.6867,-3.6702,-3.2418,-3.013,-2.8452,-2.9087,-2.8447,-2.8289,-2.9637,-3.1716,-3.3449,-3.4277,-3.4126,-3.4084,-3.4459,-3.5241,-3.5402,-3.4508,-3.5125,-3.4691,-3.2431,-3.4,-3.445,-3.3254,-3.4508,-3.4534,-3.3047,-3.4424,-3.3886,-3.1204,-2.9678,-2.752,-2.48,-2.3176,-2.2553,-2.2863,-2.564,-2.6931,-2.7198,-2.9815,-3.0317,-2.9555,-3.0525,-3.0317,-2.9408,-2.9049,-2.89,-2.8847,-2.8441,-2.8291,-2.8291,-2.8291,-2.7609,-2.6943,-2.795,-2.7609,-2.6771,-2.6771,-2.7292,-2.7573,-2.6216,-2.6224,-2.6514,-2.626,-2.5967,-2.5781,-2.6149,-2.6935,-2.7814,-2.8495,-2.9994,-3.1278,-3.156,-3.0683,-2.9706,-2.9237,-2.9088,-2.8885,-2.8397,-2.9028,-2.9707,-3.0158,-2.8389,-2.7487,-2.8377,-2.3882,-2.1558,-2.317,-1.8982,-1.8166,-2.2241,-2.2936,-2.4164,-2.6276,-2.826,-2.9176,-2.8888,-3.0304,-3.1231,-3.1637,-3.2821,-3.3762,-3.4527,-3.5611,-3.688,-3.8308,-3.9068,-3.898,-3.8271,-3.8271,-3.7814,-3.7137,-3.701,-3.6861,-3.6877,-3.8366,-3.8556,-3.8175,-3.1258,-3.0285,-2.9676,-2.9686,-2.8894,-2.8721,-3.0099,-3.1418,-3.2844,-3.4227,-3.5559,-3.6345,-3.6345,-3.6405,-3.5858,-3.4532,-3.4006,-3.332,-3.2348,-3.1944,-3.134,-3.04,-3.1633,-3.1565,-2.9809,-3.1442,-3.2134,-3.169,-2.988,-2.8342,-2.7059,-2.6168,-2.5975,-2.6585,-2.9597,-3.1171,-3.1663,-3.2068,-3.228,-3.223,-3.228,-3.228,-3.214,-3.0773,-3.0266,-3.012,-2.8804,-2.8291,-2.8291,-2.8291,-2.8291,-2.8291,-2.8291,-2.8291,-2.8291,-2.8291,-2.8291,-2.8096,-2.7204,-2.697,-2.6807,-2.5908,-2.5693,-2.6014,-2.7315,-2.7589,-2.8272,-3.0676,-3.2183,-3.2893,-3.2303,-3.219,-3.165,-3.0055,-3.067,-3.0783,-2.9126,-2.89,-2.8677,-2.802,-2.3728,-2.2677,-2.7451,-2.2063,-2.0288,-2.5184,-2.3459,-2.2957,-2.4675,-2.5252,-2.6339,-2.8021,-2.8109,-2.8386,-2.8888,-3.2241,-3.3348,-3.2215,-3.6165,-3.7372,-3.6223,-3.8368,-3.9337,-3.9388,-3.9388,-3.9388,-3.9388,-3.9388,-3.9373,-3.9324,-3.8917,-3.91,-3.9653,-4.0447,-4.0377,-4.0015,-3.4747,-3.3702,-3.2616,-3.1655,-3.0471,-2.9513,-2.9006,-3.0865,-3.2431,-3.2894,-3.4166,-3.5367,-3.631,-3.6405,-3.5364,-3.2771,-3.324,-3.228,-2.891,-3.0584,-3.0993,-2.9484,-3.1282,-3.1453,-2.9758,-3.1392,-3.181,-3.0753,-2.9558,-2.8791,-2.8396,-2.8099,-2.8864,-3.0517,-3.145,-3.1954,-3.2168,-3.3296,-3.3204,-3.2381,-3.3353,-3.3155,-3.2129,-3.0824,-3.0317,-3.011,-2.8804,-2.8291,-2.8291,-2.8291,-2.8291,-2.8291,-2.8291,-2.8291,-2.8291,-2.8291,-2.8086,-2.7803,-2.7529,-2.7031,-2.6704,-2.7272,-2.7208,-2.7315,-2.8541,-2.9453,-3.0496,-3.2152,-3.284,-3.3061,-3.283,-3.2805,-3.2503,-3.1587,-3.1725,-3.1637,-3.0733,-3.0306,-3.0241,-3.0621,-2.8466,-2.7768,-2.9917,-2.5968,-2.3753,-2.4938,-2.2661,-2.1907,-2.3547,-2.5272,-2.6285,-2.6389,-2.931,-3.0781,-3.0546,-3.3538,-3.5041,-3.4942,-3.6289,-3.7049,-3.7343,-3.8745,-3.9388,-3.9388,-3.9388,-3.9388,-3.9388,-3.9388,-3.9388,-3.9448,-3.978,-3.9779,-3.9787,-4.1302,-4.1532,-4.1127,-3.6405,-3.5319,-3.3981,-3.2543,-3.1622,-3.0421,-2.8601,-3.0577,-3.2129,-3.1622,-3.2744,-3.3909,-3.4751,-3.5307,-3.4751,-3.2589,-3.2574,-3.1248,-2.7895,-2.8959,-2.9352,-2.8522,-2.9863,-3.0083,-2.8962,-3.019,-3.0337,-2.931,-2.9455,-2.9488,-2.9525,-3.0541,-3.1794,-3.3105,-3.3601,-3.3836,-3.3885,-3.4763,-3.4654,-3.3946,-3.4812,-3.4605,-3.3639,-3.1774,-3.1071,-3.0824,-2.8953,-2.8291,-2.8291,-2.8291,-2.8291,-2.8398,-2.89,-2.9049,-2.8923,-2.8255,-2.7924,-2.765,-2.7327,-2.7131,-2.7237,-2.7821,-2.8121,-2.8588,-2.9818,-3.1045,-3.2152,-3.2939,-3.3124,-3.3124,-3.3124,-3.3124,-3.2998,-3.2591,-3.2541,-3.234,-3.1775,-3.1235,-3.0732,-3.0272,-2.9248,-2.877,-2.9375,-2.73,-2.6138,-2.6653,-2.5084,-2.4544,-2.554,-2.5774,-2.6251,-2.7143,-3.0431,-3.2218,-3.2309,-3.5346,-3.6799,-3.6597,-3.6822,-3.7434,-3.842,-3.9104,-3.9388,-3.9388,-3.9388,-3.9388,-3.9403,-3.9694,-3.9783,-3.9873,-4.0786,-4.0935,-4.0812,-4.2227,-4.252,-4.2249,-3.6405,-3.5415,-3.4117,-3.2694,-3.2431,-3.1531,-2.8857,-3.0618,-3.1836,-3.0473,-3.1378,-3.218,-3.228,-3.3464,-3.4002,-3.3374,-3.1915,-3.031,-2.869,-2.7202,-2.6738,-2.7591,-2.7689,-2.7718,-2.7718,-2.8182,-2.8298,-2.8009,-2.9663,-3.0473,-3.0618,-3.3216,-3.4434,-3.4581,-3.581,-3.6405,-3.6405,-3.6405,-3.6405,-3.6405,-3.6405,-3.6405,-3.6108,-3.3441,-3.2431,-3.214,-2.9513,-2.8601,-2.8548,-2.8441,-2.8495,-2.8804,-2.9964,-3.0369,-3.013,-2.8433,-2.7939,-2.7742,-2.6893,-2.7443,-2.8199,-2.792,-2.8773,-2.9954,-3.1089,-3.2239,-3.3124,-3.3124,-3.3124,-3.3124,-3.3124,-3.3124,-3.3124,-3.3124,-3.3124,-3.288,-3.2353,-3.18,-3.0495,-2.7921,-2.7178,-2.6826,-2.6788,-2.6788,-2.7568,-2.9415,-2.9603,-2.9603,-2.9566,-2.676,-2.6571,-2.9691,-3.1498,-3.2982,-3.41,-3.7466,-3.8574,-3.7433,-3.7733,-3.8435,-3.9388,-3.9388,-3.9388,-3.9388,-3.9388,-3.9454,-3.9529,-4.0142,-4.0427,-4.0591,-4.1901,-4.2396,-4.247,-4.309,-4.329,-4.329,-3.6405,-3.6156,-3.5511,-3.4117,-3.392,-3.2955,-3.0214,-3.1224,-3.1836,-3.0473,-3.0577,-3.1173,-3.218,-3.2593,-3.2442,-3.1567,-3.1182,-2.9698,-2.6643,-2.6399,-2.6484,-2.668,-2.7366,-2.7718,-2.7718,-2.908,-3.0265,-3.1215,-3.1618,-3.2392,-3.3464,-3.408,-3.4933,-3.5966,-3.6263,-3.6405,-3.6405,-3.6405,-3.6405,-3.6405,-3.6405,-3.6405,-3.6203,-3.452,-3.392,-3.3662,-3.1988,-3.1378,-3.1224,-3.0162,-3.0525,-3.1224,-3.0514,-3.1019,-3.1686,-3.0863,-3.0372,-3.0008,-2.9304,-2.9117,-2.9322,-3.0158,-3.1279,-3.2295,-3.2612,-3.2884,-3.3124,-3.3124,-3.3124,-3.3124,-3.3124,-3.3124,-3.3124,-3.3124,-3.3124,-3.3074,-3.2893,-3.2378,-3.1775,-3.1122,-3.0557,-3.0068,-2.9666,-2.9628,-2.8976,-2.7404,-2.7668,-2.7695,-2.7304,-2.8084,-2.8935,-2.978,-3.3056,-3.495,-3.5239,-3.8942,-4.0446,-3.9627,-3.9217,-3.9141,-3.9388,-3.9388,-3.9388,-3.9388,-3.9388,-3.9709,-4.0187,-4.0337,-4.0696,-4.1235,-4.2081,-4.2396,-4.247,-4.309,-4.329,-4.329,-3.6405,-3.6405,-3.5966,-3.4629,-3.4933,-3.4154,-3.0824,-3.1429,-3.1582,-2.966,-2.9408,-2.966,-3.0369,-3.0837,-3.0819,-3.0019,-3.1115,-3.0602,-2.7594,-2.7122,-2.7107,-2.7461,-2.7406,-2.7851,-2.8844,-2.9839,-3.0979,-3.228,-3.2944,-3.3662,-3.4434,-3.503,-3.5715,-3.6405,-3.6405,-3.6405,-3.6405,-3.6405,-3.6405,-3.6405,-3.6405,-3.6405,-3.6263,-3.4933,-3.4231,-3.3811,-3.2453,-3.1945,-3.1795,-3.1102,-3.1497,-3.228,-3.2191,-3.2655,-3.3203,-3.3005,-3.1953,-3.0729,-2.9943,-2.9965,-3.0496,-3.1777,-3.2612,-3.3124,-3.3124,-3.3124,-3.3124,-3.3124,-3.3124,-3.3124,-3.3124,-3.3124,-3.3124,-3.3124,-3.3124,-3.3124,-3.3124,-3.2579,-3.2215,-3.2215,-3.1725,-3.1286,-3.0997,-3.0972,-3.0344,-2.8862,-2.9026,-2.9239,-2.9439,-3.0572,-3.1239,-3.1371,-3.484,-3.7001,-3.7621,-4.0144,-4.1055,-4.0382,-3.9738,-3.9388,-3.9388,-3.9388,-3.9388,-3.9439,-3.9738,-4.0068,-4.0442,-4.1055,-4.1542,-4.1931,-4.2551,-4.2806,-4.2851,-4.317,-4.329,-4.329,-3.6405,-3.6405,-3.6061,-3.4872,-3.5475,-3.4848,-3.1173,-3.1378,-3.1122,-2.8591,-2.8291,-2.8291,-2.8291,-2.9322,-2.9648,-2.8875,-3.1428,-3.1993,-2.9555,-2.8272,-2.8036,-2.9088,-2.8126,-2.8544,-3.0545,-3.0824,-3.1582,-3.2932,-3.4117,-3.4678,-3.4727,-3.587,-3.6405,-3.6405,-3.6405,-3.6405,-3.6405,-3.6405,-3.6405,-3.6405,-3.6405,-3.6405,-3.6263,-3.5126,-3.4342,-3.3672,-3.2531,-3.2048,-3.1942,-3.1826,-3.2229,-3.299,-3.4044,-3.4532,-3.4727,-3.4707,-3.3188,-3.1244,-3.0228,-3.0732,-3.1733,-3.284,-3.3124,-3.3124,-3.3124,-3.3124,-3.3124,-3.3124,-3.3124,-3.3124,-3.3124,-3.324,-3.3194,-3.2784,-3.3076,-3.3194,-3.2784,-3.2491,-3.2382,-3.2579,-3.2162,-3.1914,-3.1988,-3.1853,-3.1747,-3.1671,-3.1618,-3.2049,-3.2948,-3.3366,-3.3759,-3.405,-3.6717,-3.8817,-4.0202,-4.0908,-4.0905,-4.0247,-3.9694,-3.9388,-3.9388,-3.9388,-3.9469,-3.9568,-4.0157,-4.0502,-4.0786,-4.1931,-4.2455,-4.2605,-4.312,-4.329,-4.329,-4.329,-4.329,-4.329,-3.6405,-3.6405,-3.631,-3.6121,-3.5319,-3.4117,-3.2292,-3.1224,-3.0068,-2.8495,-2.8291,-2.8291,-2.8291,-3.0062,-3.0575,-2.8914,-3.1809,-3.2487,-2.9578,-2.8272,-2.8513,-3.0504,-3.0403,-3.0855,-3.1955,-3.3155,-3.4422,-3.575,-3.5953,-3.6108,-3.6108,-3.631,-3.6405,-3.6405,-3.6405,-3.6405,-3.6405,-3.6405,-3.6405,-3.6405,-3.6405,-3.6405,-3.6358,-3.6156,-3.5724,-3.5158,-3.4947,-3.4604,-3.4099,-3.3422,-3.4018,-3.491,-3.4546,-3.5174,-3.5896,-3.4948,-3.4429,-3.3864,-3.2822,-3.2655,-3.284,-3.3068,-3.3124,-3.3124,-3.3124,-3.3124,-3.3124,-3.3124,-3.3124,-3.3124,-3.3124,-3.3839,-3.3682,-3.1372,-3.2941,-3.3643,-3.1307,-3.2114,-3.3301,-3.4214,-3.4247,-3.4351,-3.4755,-3.394,-3.3237,-3.2791,-3.2752,-3.2817,-3.2987,-3.5169,-3.6925,-3.8059,-3.8558,-3.9589,-4.1164,-4.0793,-4.0217,-3.9574,-3.9433,-3.9388,-3.9388,-3.9388,-3.9723,-4.0247,-4.0352,-4.1025,-4.2111,-4.2306,-4.2686,-4.3155,-4.3245,-4.329,-4.329,-4.329,-4.329,-4.329,-3.6405,-3.5823,-3.5319,-3.5319,-3.4166,-3.2794,-3.1429,-3.1327,-3.0618,-2.8548,-2.8953,-2.9264,-2.8978,-2.9581,-3.0182,-3.0457,-3.1101,-3.1451,-3.1392,-3.0536,-3.0556,-3.1806,-3.153,-3.2007,-3.3392,-3.4763,-3.6071,-3.7322,-3.7322,-3.7322,-3.7322,-3.7322,-3.6977,-3.6405,-3.6405,-3.6405,-3.6405,-3.6405,-3.6405,-3.6405,-3.6405,-3.6405,-3.6367,-3.6031,-3.5579,-3.5019,-3.4718,-3.45,-3.4222,-3.3847,-3.4523,-3.544,-3.5115,-3.5437,-3.5768,-3.4964,-3.4299,-3.3721,-3.3219,-3.3124,-3.3124,-3.3124,-3.3124,-3.3124,-3.3124,-3.3124,-3.3124,-3.3124,-3.3124,-3.3124,-3.3124,-3.3513,-3.3414,-3.2147,-3.3017,-3.3402,-3.2122,-3.3113,-3.415,-3.4622,-3.517,-3.5599,-3.58,-3.5365,-3.4979,-3.4748,-3.4734,-3.4983,-3.5526,-3.7087,-3.869,-4.0241,-4.0648,-4.084,-4.0861,-4.0546,-4.0068,-3.9388,-3.9388,-3.9604,-3.9948,-3.9948,-4.0307,-4.095,-4.1309,-4.1841,-4.2425,-4.2746,-4.306,-4.329,-4.329,-4.329,-4.329,-4.329,-4.329,-4.329,-3.6405,-3.5571,-3.4787,-3.4434,-3.3254,-3.1927,-3.0916,-3.1378,-3.1224,-2.946,-3.012,-3.054,-3.0022,-2.9792,-3.0278,-3.1781,-3.0889,-3.1104,-3.3158,-3.2906,-3.2858,-3.3164,-3.2922,-3.3461,-3.4812,-3.6131,-3.7243,-3.8107,-3.8379,-3.8514,-3.8514,-3.8243,-3.7632,-3.6803,-3.6546,-3.6405,-3.6405,-3.6405,-3.6405,-3.6405,-3.6405,-3.6329,-3.6119,-3.5658,-3.5082,-3.4474,-3.4048,-3.3897,-3.3922,-3.4048,-3.4738,-3.5495,-3.5495,-3.5495,-3.537,-3.4726,-3.3847,-3.3124,-3.3124,-3.3124,-3.3124,-3.3124,-3.3124,-3.3124,-3.3124,-3.3124,-3.3124,-3.3124,-3.3124,-3.3124,-3.3124,-3.3313,-3.3271,-3.2608,-3.3073,-3.3344,-3.2949,-3.3944,-3.4869,-3.5346,-3.6107,-3.6682,-3.6916,-3.6721,-3.6565,-3.6565,-3.6565,-3.693,-3.7753,-3.8663,-3.9771,-4.1145,-4.1826,-4.1617,-4.0412,-4.0247,-3.9918,-3.9388,-3.9574,-3.9903,-4.0412,-4.0561,-4.0995,-4.1677,-4.2186,-4.2485,-4.2626,-4.3135,-4.329,-4.329,-4.329,-4.329,-4.329,-4.329,-4.329,-4.329,-3.6405,-3.631,-3.5858,-3.4629,-3.3254,-3.228,-3.218,-3.1173,-3.0813,-3.1876,-3.2079,-3.1951,-3.1412,-3.1986,-3.2253,-3.1918,-3.247,-3.3108,-3.3809,-3.4259,-3.454,-3.4532,-3.5531,-3.6118,-3.6263,-3.7356,-3.8017,-3.8107,-3.9227,-3.9768,-3.9724,-3.8604,-3.8062,-3.7939,-3.6896,-3.6405,-3.6405,-3.6405,-3.6405,-3.6405,-3.6405,-3.6056,-3.5558,-3.552,-3.4843,-3.396,-3.3909,-3.3897,-3.3972,-3.4487,-3.5006,-3.5495,-3.5495,-3.5495,-3.5295,-3.4274,-3.3533,-3.3124,-3.3124,-3.3124,-3.3124,-3.3124,-3.3124,-3.3124,-3.3124,-3.3124,-3.3124,-3.3124,-3.3124,-3.3124,-3.3124,-3.3911,-3.3753,-3.1196,-3.2933,-3.4028,-3.25,-3.3647,-3.5413,-3.7357,-3.7639,-3.8069,-3.9053,-3.8271,-3.7663,-3.7663,-3.7663,-3.7715,-3.7791,-3.9401,-4.0338,-4.0472,-4.1115,-4.1115,-4.0412,-3.9798,-3.9433,-3.9388,-4.0038,-4.0352,-4.0427,-4.1025,-4.1707,-4.2336,-4.2381,-4.2701,-4.323,-4.3275,-4.329,-4.329,-4.329,-4.329,-4.329,-4.329,-4.329,-4.329,-3.6405,-3.5715,-3.4715,-3.3353,-3.2644,-3.2028,-3.1173,-3.209,-3.2694,-3.2331,-3.3044,-3.325,-3.2354,-3.2524,-3.269,-3.2631,-3.2922,-3.3307,-3.3859,-3.4412,-3.5027,-3.5705,-3.6179,-3.6405,-3.6405,-3.7494,-3.8469,-3.9227,-4.039,-4.0575,-3.9899,-3.9448,-3.8437,-3.7023,-3.6581,-3.6405,-3.6405,-3.6405,-3.6157,-3.5855,-3.5855,-3.5529,-3.4956,-3.4605,-3.4261,-3.3859,-3.3508,-3.3608,-3.3884,-3.3746,-3.4299,-3.4931,-3.4625,-3.4525,-3.4374,-3.3608,-3.3244,-3.3124,-3.3124,-3.3124,-3.3124,-3.3124,-3.3124,-3.3124,-3.3124,-3.3124,-3.3124,-3.3124,-3.3124,-3.3124,-3.3124,-3.3441,-3.3394,-3.2323,-3.3022,-3.3733,-3.3739,-3.4821,-3.6186,-3.7639,-3.8383,-3.8943,-3.9337,-3.9017,-3.8782,-3.8782,-3.8782,-3.8782,-3.8782,-3.9802,-4.0397,-4.0397,-4.0651,-4.0457,-3.9798,-3.9544,-3.9634,-4.0023,-4.0277,-4.0831,-4.1662,-4.1916,-4.2342,-4.297,-4.297,-4.3105,-4.329,-4.329,-4.329,-4.329,-4.329,-4.329,-4.329,-4.329,-4.329,-4.3409,-3.6405,-3.5667,-3.4569,-3.3204,-3.2944,-3.2644,-3.1735,-3.3166,-3.4227,-3.3639,-3.441,-3.457,-3.3435,-3.3327,-3.328,-3.3126,-3.3124,-3.3382,-3.411,-3.5174,-3.5956,-3.638,-3.6194,-3.6107,-3.6107,-3.7415,-3.8577,-3.9609,-4.1133,-4.1538,-4.093,-4.0246,-3.9064,-3.7474,-3.6722,-3.6405,-3.6405,-3.6405,-3.6044,-3.5495,-3.5495,-3.5069,-3.4424,-3.4048,-3.3796,-3.3596,-3.3219,-3.3432,-3.3847,-3.347,-3.396,-3.4625,-3.4073,-3.3784,-3.3571,-3.3224,-3.3124,-3.3124,-3.3124,-3.3124,-3.3124,-3.3124,-3.3124,-3.3124,-3.3124,-3.3124,-3.3124,-3.3124,-3.3124,-3.3124,-3.3124,-3.3124,-3.3197,-3.3556,-3.3598,-3.4066,-3.5494,-3.6265,-3.7098,-3.8182,-3.8943,-3.9388,-3.9388,-3.9388,-3.9388,-3.9388,-3.9388,-3.9514,-3.9709,-3.9963,-4.0187,-4.0382,-4.0202,-3.9873,-3.9388,-3.9388,-3.9753,-4.0397,-4.0606,-4.1332,-4.241,-4.262,-4.291,-4.329,-4.329,-4.329,-4.329,-4.329,-4.329,-4.329,-4.329,-4.329,-4.329,-4.329,-4.3512,-4.3888,-3.6405,-3.6405,-3.5966,-3.4629,-3.4434,-3.4434,-3.4385,-3.4434,-3.4872,-3.6216,-3.6405,-3.5943,-3.4839,-3.468,-3.4274,-3.3169,-3.3124,-3.3545,-3.465,-3.6826,-3.7586,-3.6499,-3.5843,-3.5542,-3.5542,-3.7217,-3.8422,-3.8988,-4.1284,-4.2686,-4.325,-4.0972,-3.9899,-3.9768,-3.7428,-3.6405,-3.6405,-3.6405,-3.6031,-3.5495,-3.5495,-3.4831,-3.3884,-3.3884,-3.3558,-3.3124,-3.3124,-3.3432,-3.3897,-3.3897,-3.4261,-3.4625,-3.406,-3.352,-3.3124,-3.3124,-3.3124,-3.3124,-3.3124,-3.3124,-3.3124,-3.3124,-3.3124,-3.3124,-3.3124,-3.3124,-3.3124,-3.3124,-3.3124,-3.3124,-3.3124,-3.3124,-3.3441,-3.4553,-3.4705,-3.5413,-3.751,-3.7791,-3.8196,-3.9265,-3.9388,-3.9388,-3.9388,-3.9388,-3.9388,-3.9388,-3.9388,-3.9709,-4.0367,-3.9768,-3.9709,-4.0367,-3.9768,-3.9388,-3.9388,-3.9388,-3.9753,-4.0412,-4.107,-4.1767,-4.2425,-4.3045,-4.329,-4.329,-4.329,-4.329,-4.329,-4.329,-4.329,-4.329,-4.329,-4.329,-4.329,-4.329,-4.3927,-4.4774,-3.6405,-3.6405,-3.5966,-3.4629,-3.5174,-3.5475,-3.4532,-3.5223,-3.5966,-3.6358,-3.6031,-3.5516,-3.4801,-3.4374,-3.3859,-3.3144,-3.3124,-3.3911,-3.5861,-3.7648,-3.8735,-3.8859,-3.8219,-3.7883,-3.7883,-3.8699,-3.9479,-4.0146,-4.1632,-4.2303,-4.207,-4.0575,-3.9461,-3.8559,-3.707,-3.6405,-3.638,-3.5956,-3.5466,-3.4893,-3.455,-3.396,-3.3319,-3.3319,-3.3262,-3.3124,-3.3124,-3.3432,-3.3847,-3.3458,-3.3684,-3.4048,-3.3495,-3.3206,-3.3124,-3.3124,-3.3124,-3.3124,-3.3124,-3.3124,-3.3124,-3.3124,-3.3124,-3.3124,-3.3124,-3.3124,-3.3124,-3.3124,-3.3124,-3.3124,-3.3124,-3.3124,-3.3441,-3.4553,-3.4705,-3.5413,-3.751,-3.7791,-3.8196,-3.9265,-3.9388,-3.9388,-3.9388,-3.9388,-3.9388,-3.9388,-3.9388,-3.9514,-3.9709,-3.9493,-3.9514,-3.9709,-3.9514,-3.9388,-3.9388,-3.9388,-3.9978,-4.1085,-4.128,-4.1968,-4.3045,-4.32,-4.329,-4.329,-4.329,-4.329,-4.329,-4.329,-4.329,-4.329,-4.329,-4.329,-4.329,-4.329,-4.3472,-4.395,-3.6405,-3.6405,-3.6156,-3.5319,-3.5858,-3.6108,-3.5319,-3.587,-3.6405,-3.6405,-3.5881,-3.5295,-3.4776,-3.4223,-3.3671,-3.3174,-3.3921,-3.5128,-3.6713,-3.8803,-4.0013,-4.0167,-4.0262,-3.9729,-3.8601,-3.9325,-3.9902,-4.0277,-4.171,-4.2129,-4.1587,-4.0181,-3.904,-3.8062,-3.6654,-3.6157,-3.6367,-3.578,-3.5182,-3.4675,-3.4123,-3.3571,-3.3124,-3.3124,-3.3124,-3.3124,-3.3124,-3.3294,-3.352,-3.3194,-3.3307,-3.352,-3.3181,-3.3124,-3.3124,-3.3124,-3.3124,-3.3124,-3.3124,-3.3124,-3.3124,-3.3124,-3.3124,-3.3124,-3.3124,-3.3124,-3.3124,-3.3124,-3.3124,-3.3124,-3.3124,-3.3441,-3.4066,-3.5129,-3.5641,-3.6529,-3.8196,-3.8435,-3.8671,-3.9301,-3.9388,-3.9388,-3.9388,-3.9388,-3.9388,-3.9388,-3.9388,-3.9388,-3.9388,-3.9388,-3.9388,-3.9388,-3.9388,-3.9388,-3.9388,-3.9388,-4.0083,-4.1422,-4.1422,-4.2073,-4.329,-4.329,-4.329,-4.329,-4.329,-4.329,-4.329,-4.329,-4.329,-4.329,-4.329,-4.329,-4.329,-4.329,-4.3551,-4.409,-3.6405,-3.6405,-3.6405,-3.6405,-3.6405,-3.6405,-3.6405,-3.6405,-3.6405,-3.6405,-3.5843,-3.5232,-3.4731,-3.4186,-3.3621,-3.3162,-3.5098,-3.6601,-3.7272,-3.9816,-4.1153,-4.0674,-4.1775,-4.1071,-3.831,-3.9382,-3.9902,-3.9881,-4.141,-4.1867,-4.132,-3.9578,-3.8505,-3.7957,-3.6233,-3.578,-3.6304,-3.5608,-3.5069,-3.46,-3.4048,-3.352,-3.3124,-3.3124,-3.3124,-3.3124,-3.3124,-3.3124,-3.3124,-3.3124,-3.3124,-3.3124,-3.3124,-3.3124,-3.3124,-3.3124,-3.3124,-3.3124,-3.3124,-3.3124,-3.3124,-3.3124,-3.3124,-3.3124,-3.3124,-3.3124,-3.3124,-3.3124,-3.3124,-3.3124,-3.3124,-3.3995,-3.502,-3.6053,-3.7098,-3.8182,-3.9265,-3.9388,-3.9388,-3.9388,-3.9388,-3.9388,-3.9388,-3.9388,-3.9388,-3.9388,-3.9388,-3.9388,-3.9388,-3.9388,-3.9388,-3.9388,-3.9388,-3.9388,-3.9388,-3.9448,-4.0142,-4.1422,-4.1422,-4.2073,-4.329,-4.329,-4.329,-4.329,-4.329,-4.329,-4.329,-4.329,-4.329,-4.329,-4.329,-4.329,-4.329,-4.329,-4.3888,-4.4796,-3.6329,-3.6405,-3.6405,-3.6405,-3.6405,-3.6405,-3.6405,-3.6405,-3.6405,-3.6405,-3.5516,-3.4806,-3.4693,-3.3847,-3.3206,-3.3124,-3.4341,-3.5688,-3.7126,-3.8609,-3.995,-4.1151,-4.1995,-4.1415,-3.9316,-4.0466,-4.0832,-4.0449,-4.0383,-4.0072,-3.9522,-3.7811,-3.7187,-3.7408,-3.5647,-3.5157,-3.5608,-3.4675,-3.4186,-3.4035,-3.3483,-3.3181,-3.3124,-3.3124,-3.3124,-3.3124,-3.3124,-3.3124,-3.3124,-3.3124,-3.3124,-3.3124,-3.3124,-3.3124,-3.3124,-3.3124,-3.3124,-3.3124,-3.3124,-3.3124,-3.3124,-3.3124,-3.3124,-3.3124,-3.3124,-3.3124,-3.3124,-3.3124,-3.3124,-3.3124,-3.3124,-3.3995,-3.502,-3.6053,-3.7098,-3.8182,-3.9265,-3.9388,-3.9388,-3.9388,-3.9388,-3.9388,-3.9388,-3.9388,-3.9388,-3.9388,-3.9388,-3.9388,-3.9388,-3.9388,-3.9388,-3.9388,-3.9388,-3.9388,-3.9388,-3.9933,-4.0591,-4.1422,-4.1422,-4.2073,-4.329,-4.329,-4.329,-4.329,-4.329,-4.329,-4.329,-4.329,-4.329,-4.329,-4.329,-4.329,-4.329,-4.329,-4.3448,-4.3771,-3.6304,-3.6405,-3.6405,-3.6405,-3.6405,-3.6405,-3.6405,-3.6405,-3.6405,-3.6405,-3.5403,-3.468,-3.468,-3.3972,-3.3571,-3.3847,-3.5118,-3.6375,-3.7537,-3.9132,-4.0303,-4.0905,-4.1326,-4.0938,-3.965,-4.032,-4.0392,-3.98,-4.0063,-3.949,-3.816,-3.7252,-3.6575,-3.6012,-3.4819,-3.4638,-3.5056,-3.4261,-3.3897,-3.3847,-3.3307,-3.3124,-3.3124,-3.3124,-3.3124,-3.3124,-3.3124,-3.3124,-3.3124,-3.3124,-3.3124,-3.3124,-3.3124,-3.3124,-3.3124,-3.3124,-3.3124,-3.3124,-3.3124,-3.3124,-3.3124,-3.3124,-3.3124,-3.3124,-3.3124,-3.3124,-3.3124,-3.3124,-3.3513,-3.3869,-3.3869,-3.5142,-3.6358,-3.6866,-3.7852,-3.8745,-3.9301,-3.9388,-3.9388,-3.9388,-3.9388,-3.9388,-3.9388,-3.9388,-3.9388,-3.9388,-3.9388,-3.9388,-3.9388,-3.9388,-3.9388,-3.9388,-3.9388,-3.9388,-3.9388,-4.0068,-4.0726,-4.1422,-4.1737,-4.2372,-4.329,-4.329,-4.329,-4.329,-4.329,-4.329,-4.329,-4.329,-4.329,-4.329,-4.329,-4.329,-4.329,-4.329,-4.3591,-4.4066,-3.6304,-3.6405,-3.6405,-3.6405,-3.6405,-3.6405,-3.6405,-3.6405,-3.6405,-3.6405,-3.5491,-3.4818,-3.4818,-3.4286,-3.4085,-3.4537,-3.5918,-3.7043,-3.7744,-3.9673,-4.0568,-4.0122,-4.0299,-4.0048,-3.9215,-3.9447,-3.9278,-3.8605,-3.9646,-3.9089,-3.6977,-3.6849,-3.6102,-3.4806,-3.4086,-3.406,-3.455,-3.3985,-3.3759,-3.3721,-3.3257,-3.3124,-3.3124,-3.3124,-3.3124,-3.3124,-3.3124,-3.3124,-3.3124,-3.3124,-3.3124,-3.3124,-3.3124,-3.3124,-3.3124,-3.3124,-3.3124,-3.3124,-3.3124,-3.3124,-3.3124,-3.3124,-3.3124,-3.3124,-3.3124,-3.3124,-3.3124,-3.3124,-3.3953,-3.4705,-3.4705,-3.6411,-3.7791,-3.7791,-3.8708,-3.9388,-3.9388,-3.9388,-3.9388,-3.9388,-3.9388,-3.9388,-3.9388,-3.9388,-3.9388,-3.9388,-3.9388,-3.9388,-3.9388,-3.9388,-3.9388,-3.9388,-3.9388,-3.9388,-3.9388,-4.0068,-4.0726,-4.1384,-4.2081,-4.2701,-4.329,-4.329,-4.329,-4.329,-4.329,-4.329,-4.329,-4.329,-4.329,-4.329,-4.329,-4.329,-4.329,-4.329,-4.381,-4.4548,-3.6304,-3.6405,-3.6405,-3.6405,-3.6405,-3.6405,-3.6405,-3.6405,-3.6405,-3.6405,-3.5818,-3.5382,-3.5382,-3.4512,-3.3935,-3.401,-3.4634,-3.5439,-3.6407,-3.7599,-3.8442,-3.8837,-3.9402,-3.9003,-3.747,-3.8033,-3.8042,-3.7502,-3.814,-3.7494,-3.5746,-3.5252,-3.5169,-3.5329,-3.3883,-3.3495,-3.3972,-3.342,-3.3194,-3.3181,-3.3106,-3.3124,-3.3124,-3.3124,-3.3124,-3.3124,-3.3124,-3.3124,-3.3124,-3.3124,-3.3124,-3.3124,-3.3124,-3.3124,-3.3124,-3.3124,-3.3124,-3.3124,-3.3124,-3.3124,-3.3124,-3.3124,-3.3124,-3.3124,-3.3124,-3.3124,-3.3124,-3.3124,-3.3953,-3.4705,-3.4705,-3.6411,-3.7791,-3.7791,-3.8708,-3.9388,-3.9388,-3.9388,-3.9388,-3.9388,-3.9388,-3.9388,-3.9388,-3.9388,-3.9388,-3.9388,-3.9388,-3.9388,-3.9388,-3.9388,-3.9388,-3.9388,-3.9388,-3.9388,-3.9388,-4.0068,-4.0726,-4.1384,-4.2081,-4.2701,-4.329,-4.329,-4.329,-4.329,-4.329,-4.329,-4.329,-4.329,-4.329,-4.329,-4.329,-4.329,-4.329,-4.329,-4.3369,-4.3512,-3.6304,-3.6405,-3.6405,-3.6405,-3.6405,-3.6405,-3.6405,-3.6405,-3.6405,-3.6405,-3.5881,-3.5495,-3.5495,-3.4562,-3.3897,-3.3897,-3.4403,-3.5276,-3.6669,-3.7427,-3.8222,-3.9108,-3.8809,-3.8157,-3.7103,-3.7117,-3.702,-3.6718,-3.7599,-3.7122,-3.5508,-3.552,-3.5642,-3.5805,-3.3942,-3.3568,-3.4314,-3.3457,-3.3124,-3.3124,-3.3124,-3.3124,-3.3124,-3.3124,-3.3124,-3.3124,-3.3124,-3.3124,-3.3124,-3.3124,-3.3124,-3.3124,-3.3124,-3.3124,-3.3124,-3.3124,-3.3124,-3.3124,-3.3124,-3.3124,-3.3124,-3.3124,-3.3124,-3.3124,-3.3124,-3.3124,-3.3124,-3.3124,-3.3953,-3.4856,-3.544,-3.6788,-3.7994,-3.8583,-3.9104,-3.9388,-3.9388,-3.9388,-3.9388,-3.9388,-3.9388,-3.9388,-3.9388,-3.9388,-3.9388,-3.9388,-3.9388,-3.9388,-3.9388,-3.9388,-3.9388,-3.9388,-3.9388,-3.9388,-3.9388,-4.0068,-4.0726,-4.1384,-4.2081,-4.2701,-4.329,-4.329,-4.329,-4.329,-4.329,-4.329,-4.329,-4.329,-4.329,-4.329,-4.329,-4.363,-4.4143,-4.4143,-4.4143,-4.4066]},{"header":{"parameterUnit":"m.s-1","parameterCategory":1,"la1":30.6,"la2":28.766,"lo1":-90.7593,"lo2":-88.6598,"dx":0.0162,"dy":0.0183,"nx":116,"ny":114,"refTime":"2023-01-01T18:00:00:Z","depth":0,"parameterNumber":3,"parameterNumberName":"V-component_of_WINDS"},"data":[0.0,0.0,0.0,0.0,0.0,0.0,0.0,0.0,0.0,0.0,0.0,0.0,0.0,0.0,0.0,0.0,0.0,0.0,0.0,0.0,0.0,0.0,0.0,0.0,0.0,0.0,0.0,0.0,0.0,0.0,0.0,0.0,0.0,0.0,0.0,0.0,0.0,0.0,0.0,0.0,0.0,0.0,0.0,0.0,0.0,0.0,0.0,0.0,0.0,0.0,0.0,0.0,0.0,0.0,0.0,0.0,0.0,0.0,0.0,0.0,0.0,0.0,0.0,0.0,0.0,0.0,0.0,0.0,0.0,0.0,0.0,0.0,0.0,0.0,0.0,0.0,0.0,0.0,0.0,0.0,0.0,0.0,0.0,0.0,0.0,0.0,0.0,0.0,0.0,0.0,0.0,0.0,0.0,0.0,0.0,0.0,0.0,0.0,0.0,0.0,0.0,0.0,0.0,0.0,0.0,0.0,0.0,0.0,0.0,0.0,0.0,0.0,0.0,0.0,0.0,0.0,0.0,0.0,0.0,0.0,0.0,0.0,0.0,0.0,0.0,0.0,0.0,0.0,0.0,0.0,0.0,0.0,0.0,0.0,0.0,0.0,0.0,0.0,0.0,0.0,0.0,0.0,0.0,0.0,0.0,0.0,0.0,0.0,0.0,0.0,0.0,0.0,0.0,0.0,0.0,0.0,0.0,0.0,0.0,0.0,0.0,0.0,0.0,0.0,0.0,0.0,0.0,0.0,0.0,0.0,0.0,0.0,0.0,0.0,0.0,0.0,0.0,0.0,0.0,0.0,0.0,0.0,0.0,0.0,0.0,0.0,0.0,0.0,0.0,0.0,0.0,0.0,0.0,0.0,0.0,0.0,0.0,0.0,0.0,0.0,0.0,0.0,0.0,0.0,0.0,0.0,0.0,0.0,0.0,0.0,0.0,0.0,0.0,0.0,0.0,0.0,0.0,0.0,0.0,0.0,0.0,0.0,0.0,0.0,0.0,0.0,0.0,0.0,0.0,0.0,0.0,0.0,0.0,0.0,0.0,0.0,0.0,0.0,0.0,0.0,0.0,0.0,0.0,0.0,0.0,0.0,0.0,0.0,0.0,0.0,0.0,0.0,0.0,0.0,0.0,0.0,0.0,0.0,0.0,0.0,0.0,0.0,0.0,0.0,0.0,0.0,0.0,0.0,0.0,0.0,0.0,0.0,0.0,0.0,0.0,0.0,0.0,0.0,0.0,0.0,0.0,0.0,0.0,0.0,0.0,0.0,0.0,0.0,0.0,0.0,0.0,0.0,0.0,0.0,0.0,0.0,0.0,0.0,0.0,0.0,0.0,0.0,0.0,0.0,0.0,0.0,0.0,0.0,0.0,0.0,0.0,0.0,0.0,0.0,0.0,0.0,0.0,0.0,0.0,0.0,0.0,0.0,0.0,0.0,0.0,0.0,0.0,0.0,0.0,0.0,0.0,0.0,0.0,0.0,0.0,0.0,0.0,0.0,0.0,0.0,0.0,0.0,0.0,0.0,0.0,0.0,0.0,0.0,0.0,0.0,0.0,0.0,0.0,0.0,0.0,0.0,0.0,0.0,0.0,0.0,0.0,0.0,0.0,0.0,0.0,0.0,0.0,0.0,0.0,0.0,0.0,0.0,0.0,0.0,0.0,0.0,0.0,0.0,0.0,0.0,0.0,0.0,0.0,0.0,0.0,0.0,0.0,0.0,0.0,0.0,0.0,0.0,0.0,0.0,0.0,0.0,0.0,0.0,0.0,0.0,0.0,0.0,0.0,0.0,0.0,0.0,0.0,0.0,0.0,0.0,0.0,0.0,0.0,0.0,0.0,0.0,0.0,0.0,0.0,0.0,0.0,0.0,0.0,0.0,0.0,0.0,0.0,0.0,0.0,0.0,0.0,0.0,0.0,0.0,0.0,0.0,0.0,0.0,0.0,0.0,0.0,0.0,0.0,0.0,0.0,0.0,0.0,0.0,0.0,0.0,0.0,0.0,0.0,0.0,0.0,0.0,0.0,0.0,0.0,0.0,0.0,0.0,0.0,0.0,0.0,0.0,0.0,0.0,0.0,0.0,0.0,0.0,0.0,0.0,0.0,0.0,0.0,0.0,0.0,0.0,0.0,0.0,0.0,0.0,0.0,0.0,0.0,0.0,0.0,0.0,0.0,0.0,0.0,0.0,0.0,0.0,0.0,0.0,0.0,0.0,0.0,0.0,0.0,0.0,0.0,0.0,0.0,0.0,0.0,0.0,0.0,0.0,0.0,0.0,0.0,0.0,0.0,0.0,0.0,0.0,0.0,0.0,0.0,0.0,0.0,0.0,0.0,0.0,0.0,0.0,0.0,0.0,0.0,0.0,0.0,0.0,0.0,0.0,0.0,0.0,0.0,0.0,0.0,0.0,0.0,0.0,0.0,0.0,0.0,0.0,0.0,0.0,0.0,0.0,0.0,0.0,0.0,0.0,0.0,0.0,0.0,0.0,0.0,0.0,0.0,0.0,0.0,0.0,0.0,0.0,0.0,0.0,0.0,0.0,0.0,0.0,0.0,0.0,0.0,0.0,0.0,0.0,0.0,0.0,0.0,0.0,0.0,0.0,0.0,0.0,0.0,0.0,0.0,0.0,0.0,0.0,0.0,0.0,0.0,0.0,0.0,0.0,0.0,0.0,0.0,0.0,0.0,0.0,0.0,0.0,0.0,0.0,0.0,0.0,0.0,0.0,0.0,0.0,0.0,0.0,0.0,0.0,0.0,0.0,0.0,0.0,0.0,0.0,0.0,0.0,0.0,0.0,0.0,0.0,0.0,0.0,0.0,0.0,0.0,0.0,0.0,0.0,0.0,0.0,0.0,0.0,0.0,0.0,0.0,0.0,0.0,0.0,0.0,0.0,0.0,0.0,0.0,0.0,0.0,0.0,0.0,0.0,0.0,0.0,0.0,0.0,0.0,0.0,0.0,0.0,0.0,0.0,0.0,0.0,0.0,0.0,0.0,0.0,0.0,0.0,0.0,0.0,0.0,0.0,0.0,0.0,0.0,0.0,0.0,0.0,0.0,0.0,0.0,0.0,0.0,0.0,0.0,0.0,0.0,0.0,0.0,0.0,0.0,0.0,0.0,0.0,0.0,0.0,0.0,0.0,0.0,0.0,0.0,0.0,0.0,0.0,0.0,0.0,0.0,0.0,0.0,0.0,0.0,0.0,0.0,0.0,0.0,0.0,0.0,0.0,0.0,0.0,0.0,0.0,0.0,0.0,0.0,0.0,0.0,0.0,0.0,0.0,0.0,0.0,0.0,0.0,0.0,0.0,0.0,0.0,0.0,0.0,0.0,0.0,0.0,0.0,0.0,0.0,0.0,0.0,0.0,0.0,0.0,0.0,0.0,0.0,0.0,0.0,0.0,0.0,0.0,0.0,0.0,0.0,0.0,0.0,0.0,0.0,0.0,0.0,0.0,0.0,0.0,0.0,0.0,0.0,0.0,0.0,0.0,0.0,0.0,0.0,0.0,0.0,0.0,0.0,0.0,0.0,0.0,0.0,0.0,0.0,0.0,0.0,0.0,0.0,0.0,0.0,0.0,0.0,0.0,0.0,0.0,0.0,0.0,0.0,0.0,0.0,0.0,0.0,0.0,0.0,0.0,0.0,0.0,0.0,0.0,0.0,0.0,0.0,0.0,0.0,0.0,0.0,0.0,0.0,0.0,0.0,0.0,0.0,0.0,0.0,0.0,0.0,0.0,0.0,0.0,0.0,0.0,0.0,0.0,0.0,0.0,0.0,0.0,0.0,0.0,0.0,0.0,0.0,0.0,0.0,0.0,0.0,0.0,0.0,0.0,0.0,0.0,0.0,0.0,0.0,0.0,0.0,0.0,0.0,0.0,0.0,0.0,0.0,0.0,0.0,0.0,0.0,0.0,0.0,0.0,0.0,0.0,0.0,0.0,0.0,0.0,0.0,0.0,0.0,0.0,0.0,0.0,0.0,0.0,0.0,0.0,0.0,0.0,0.0,0.0,0.0,0.0,0.0,0.0,0.0,0.0,0.0,0.0,0.0,0.0,0.0,0.0,0.0,0.0,0.0,0.0,0.0,0.0,0.0,0.0,0.0,0.0,0.0,0.0,0.0,0.0,0.0,0.0,0.0,0.0,0.0,0.0,0.0,0.0,0.0,0.0,0.0,0.0,0.0,0.0,0.0,0.0,0.0,0.0,0.0,0.0,0.0,0.0,0.0,0.0,0.0,0.0,0.0,0.0,0.0,0.0,0.0,0.0,0.0,0.0,0.0,0.0,0.0,0.0,0.0,0.0,0.0,0.0,0.0,0.0,0.0,0.0,0.0,0.0,0.0,0.0,0.0,0.0,0.0,0.0,0.0,0.0,0.0,0.0,0.0,0.0,0.0,0.0,0.0,0.0,0.0,0.0,0.0,0.0,0.0,0.0,0.0,0.0,0.0,0.0,0.0,0.0,0.0,0.0,0.0,0.0,0.0,0.0,0.0,0.0,0.0,0.0,0.0,0.0,0.0,0.0,0.0,0.0,0.0,0.0,0.0,0.0,0.0,0.0,0.0,0.0,0.0,0.0,0.0,0.0,0.0,0.0,0.0,0.0,0.0,0.0,0.0,0.0,0.0,0.0,0.0,0.0,0.0,0.0,0.0,0.0,0.0,0.0,0.0,0.0,0.0,0.0,0.0,0.0,0.0,0.0,0.0,0.0,0.0,0.0,0.0,0.0,0.0,0.0,0.0,0.0,0.0,0.0,0.0,0.0,0.0,0.0,0.0,0.0,0.0,0.0,0.0,0.0,0.0,0.0,0.0,0.0,0.0,0.0,0.0,0.0,0.0,0.0,0.0,0.0,0.0,0.0,0.0,0.0,0.0,0.0,0.0,0.0,0.0,0.0,0.0,0.0,0.0,0.0,0.0,0.0,0.0,0.0,0.0,0.0,0.0,0.0,0.0,0.0,0.0,0.0,0.0,0.0,0.0,0.0,0.0,0.0,0.0,0.0,0.0,0.0,0.0,0.0,0.0,0.0,0.0,0.0,0.0,0.0,0.0,0.0,0.0,0.0,0.0,0.0,0.0,0.0,0.0,0.0,0.0,0.0,0.0,0.0,0.0,0.0,0.0,0.0,0.0,0.0,0.0,0.0,0.0,0.0,0.0,0.0,0.0,0.0,0.0,0.0,0.0,0.0,0.0,0.0,0.0,0.0,0.0,0.0,0.0,0.0,0.0,0.0,0.0,0.0,0.0,0.0,0.0,0.0,0.0,0.0,0.0,0.0,0.0,0.0,0.0,0.0,0.0,0.0,0.0,0.0,0.0,0.0,0.0,0.0,0.0,0.0,0.0,0.0,0.0,0.0,0.0,0.0,0.0,0.0,0.0,0.0,0.0,0.0,0.0,0.0,0.0,0.0,0.0,0.0,0.0,0.0,0.0,0.0,0.0,0.0,0.0,0.0,0.0,0.0,0.0,0.0,0.0,0.0,0.0,0.0,0.0,0.0,0.0,0.0,0.0,0.0,0.0,0.0,0.0,0.0,0.0,0.0,0.0,0.0,0.0,0.0,0.0,0.0,0.0,0.0,0.0,0.0,0.0,0.0,0.0,0.0,0.0,0.0,0.0,0.0,0.0,0.0,0.0,0.0,0.0,0.0,0.0,0.0,0.0,0.0,0.0,0.0,0.0,0.0,0.0,0.0,0.0,0.0,0.0,0.0,0.0,0.0,0.0,0.0,0.0,0.0,0.0,0.0,0.0,0.0,0.0,0.0,0.0,0.0,0.0,0.0,0.0,0.0,0.0,0.0,0.0,0.0,0.0,0.0,0.0,0.0,0.0,0.0,0.0,0.0,0.0,0.0,0.0,0.0,0.0,0.0,0.0,0.0,0.0,0.0,0.0,0.0,0.0,0.0,0.0,0.0,0.0,0.0,0.0,0.0,0.0,0.0,0.0,0.0,0.0,0.0,0.0,0.0,0.0,0.0,0.0,0.0,0.0,0.0,0.0,0.0,0.0,0.0,0.0,0.0,0.0,0.0,0.0,0.0,0.0,0.0,0.0,0.0,0.0,0.0,0.0,0.0,0.0,0.0,0.0,0.0,0.0,0.0,0.0,2.2948,2.0334,0.0,0.0,0.0,0.0,0.0,0.0,0.0,0.0,0.0,0.0,0.0,0.0,0.0,0.0,0.0,0.0,0.0,0.0,0.0,0.0,0.0,0.0,0.0,0.0,0.0,0.0,0.0,0.0,0.0,0.0,0.0,0.0,0.0,0.0,0.0,0.0,2.0626,2.049,2.0943,2.164,2.2519,2.1114,1.9115,1.6641,0.0,0.0,0.0,0.0,0.0,0.0,0.0,0.0,0.0,0.0,0.0,0.0,0.0,0.0,0.0,0.0,0.0,0.0,0.0,0.0,0.0,0.0,0.0,0.0,0.0,0.0,0.0,0.0,0.0,0.0,0.0,0.0,0.0,0.0,0.0,0.0,0.0,0.0,0.0,0.0,0.0,0.0,0.0,0.0,0.0,0.0,0.0,0.0,0.0,0.0,0.0,0.0,0.0,0.0,0.0,0.0,0.0,0.0,0.0,0.0,0.0,0.0,0.0,0.0,0.0,0.0,0.0,0.0,0.0,0.0,2.6367,2.4342,0.0,0.0,0.0,0.0,0.0,0.0,0.0,0.0,0.0,0.0,0.0,0.0,0.0,0.0,0.0,0.0,0.0,0.0,0.0,0.0,0.0,0.0,0.0,1.8523,1.8988,1.9534,1.8845,1.8725,0.0,0.0,0.0,0.0,0.0,0.0,2.1423,2.2069,2.2923,2.3971,2.5233,2.6589,2.8012,2.798,2.5735,2.1627,2.0029,0.0,0.0,0.0,0.0,0.0,0.0,0.0,0.0,0.0,0.0,0.0,0.0,0.0,0.0,0.0,0.0,0.0,0.0,0.0,0.0,0.0,0.0,0.0,0.0,0.0,0.0,0.0,0.0,0.0,0.0,0.0,0.0,0.0,0.0,0.0,0.0,0.0,0.0,0.0,0.0,0.0,0.0,0.0,0.0,0.0,0.0,0.0,0.0,0.0,0.0,0.0,0.0,0.0,0.0,0.0,0.0,0.0,0.0,0.0,0.0,0.0,0.0,0.0,3.0978,3.1349,3.1782,3.2036,3.2513,3.2933,2.9938,2.8992,2.9347,2.6595,0.0,0.0,0.0,0.0,0.0,0.0,0.0,0.0,0.0,0.0,0.0,0.0,0.0,0.0,0.0,0.0,0.0,0.0,0.0,0.0,0.0,2.0621,2.073,2.1768,2.0877,2.0807,2.2125,0.0,0.0,0.0,0.0,0.0,2.3059,2.3453,2.464,2.6599,2.9895,3.2234,3.3633,3.3517,3.2796,3.1377,2.6111,2.3679,2.3409,0.0,0.0,0.0,0.0,0.0,0.0,0.0,0.0,0.0,0.0,0.0,0.0,0.0,0.0,0.0,0.0,0.0,0.0,0.0,0.0,0.0,0.0,0.0,0.0,0.0,0.0,0.0,0.0,0.0,0.0,0.0,0.0,0.0,0.0,0.0,0.0,0.0,0.0,0.0,0.0,0.0,2.2446,2.3145,0.0,0.0,0.0,0.0,0.0,0.0,0.0,0.0,0.0,0.0,0.0,0.0,0.0,2.9085,3.0791,3.0769,3.1496,3.2963,3.363,3.4006,3.41,3.5458,3.6118,3.6197,3.6359,0.0,3.0856,2.9789,0.0,0.0,0.0,0.0,0.0,0.0,0.0,0.0,0.0,0.0,0.0,0.0,0.0,0.0,0.0,0.0,0.0,0.0,0.0,0.0,0.0,2.2761,2.3199,2.3498,2.2901,2.294,2.3966,2.2494,0.0,0.0,0.0,2.3046,2.4,2.5379,2.7811,3.1319,3.4178,3.6112,3.7139,3.7431,3.7435,3.6998,3.353,3.0061,2.6767,2.5226,0.0,0.0,0.0,0.0,0.0,0.0,0.0,0.0,0.0,0.0,0.0,0.0,0.0,0.0,0.0,0.0,0.0,0.0,0.0,0.0,0.0,0.0,0.0,0.0,0.0,0.0,0.0,0.0,0.0,0.0,0.0,0.0,0.0,0.0,0.0,0.0,0.0,0.0,0.0,2.43,2.4945,2.6406,2.5765,2.5057,0.0,0.0,0.0,0.0,0.0,0.0,0.0,0.0,0.0,3.1342,3.1986,3.2693,3.3507,3.3917,3.452,3.5301,3.5644,3.5994,3.6434,3.711,3.7415,3.7432,3.777,3.6789,3.4844,3.3237,3.1444,2.9616,0.0,0.0,0.0,0.0,2.9101,2.9108,0.0,0.0,0.0,0.0,0.0,0.0,0.0,0.0,0.0,0.0,0.0,0.0,2.3918,2.524,2.6061,2.5987,2.5588,2.5736,2.6685,2.4909,2.4191,2.4991,2.4354,2.4425,2.5369,2.8372,3.1893,3.5914,3.7962,3.9247,3.9819,4.0498,4.0793,4.0746,3.9803,3.6212,3.0824,2.9252,2.6692,2.349,0.0,0.0,0.0,0.0,0.0,0.0,0.0,0.0,0.0,0.0,0.0,0.0,0.0,0.0,0.0,0.0,0.0,0.0,0.0,0.0,0.0,0.0,0.0,0.0,0.0,0.0,0.0,0.0,0.0,0.0,0.0,0.0,0.0,0.0,0.0,0.0,0.0,2.6531,2.7446,2.9374,2.839,2.7392,0.0,0.0,0.0,0.0,0.0,0.0,3.1971,3.2573,3.3357,3.4308,3.5474,3.6195,3.6404,3.694,3.7324,3.7516,3.7516,3.7802,3.8328,3.8517,3.8602,3.8643,3.8808,3.8791,3.8442,3.6265,3.4286,3.2581,3.2182,3.1654,3.1272,3.2366,3.2481,3.2354,0.0,0.0,0.0,0.0,0.0,0.0,0.0,0.0,0.0,0.0,0.0,2.6311,2.6995,2.8223,2.9249,2.9946,2.9349,2.9588,3.1084,2.8294,2.6961,2.7755,2.6322,2.622,2.7798,3.2992,3.6958,3.9553,4.1044,4.1877,4.2061,4.2653,4.2943,4.2991,4.36,4.1386,3.6987,3.2987,3.0507,2.8873,2.4926,0.0,0.0,0.0,0.0,0.0,0.0,0.0,0.0,0.0,0.0,0.0,0.0,0.0,0.0,0.0,0.0,0.0,0.0,0.0,0.0,0.0,0.0,0.0,0.0,0.0,0.0,0.0,0.0,0.0,0.0,0.0,0.0,0.0,0.0,0.0,0.0,0.0,0.0,3.0491,3.098,0.0,0.0,0.0,0.0,3.0812,3.2538,3.4335,3.5926,3.6266,3.7156,3.8723,3.9148,3.9359,3.9374,3.9428,3.9443,3.9458,3.9458,3.9476,3.9547,4.0253,4.0551,4.0604,4.1305,4.1199,4.0397,3.8505,3.7246,3.6576,3.7038,3.6318,3.5181,3.6491,3.6448,3.5863,0.0,0.0,0.0,1.8068,1.7905,1.78,1.78,1.9932,2.178,2.2526,2.5813,2.84,2.916,3.0057,3.0734,3.1049,3.0599,3.0531,3.1089,2.9089,2.8486,2.9818,2.8608,2.9588,3.3129,3.6593,3.9489,4.1868,4.2473,4.3545,4.5029,4.4863,4.5039,4.5457,4.5173,4.417,4.2505,3.9118,3.5644,3.222,2.9825,2.6646,0.0,0.0,0.0,0.0,0.0,0.0,0.0,0.0,0.0,0.0,0.0,0.0,0.0,0.0,0.0,0.0,0.0,0.0,0.0,0.0,0.0,0.0,0.0,0.0,0.0,0.0,0.0,0.0,0.0,0.0,0.0,0.0,0.0,0.0,0.0,0.0,0.0,3.1702,3.1874,0.0,3.0402,3.3023,3.468,3.4402,3.6941,3.8762,3.9368,3.9481,3.9801,4.0367,4.0487,4.0402,4.0054,4.0054,4.0134,4.0316,4.0316,4.0562,4.102,4.1283,4.1407,4.1424,4.1687,4.1651,4.1368,4.0692,3.9683,3.8611,3.8802,3.873,3.8538,3.8727,3.8771,3.8761,0.0,0.0,0.0,1.833,1.8187,1.8078,1.8078,2.0419,2.2562,2.3578,2.6965,2.9687,3.0758,3.1416,3.1918,3.225,3.1906,3.1844,3.226,3.064,3.0224,3.141,3.1273,3.2982,3.6892,3.9099,4.1217,4.3262,4.3494,4.4498,4.6203,4.6113,4.6464,4.7145,4.6829,4.6531,4.6167,4.4214,4.0697,3.6254,3.4622,3.1521,2.7661,0.0,0.0,0.0,0.0,0.0,0.0,0.0,0.0,0.0,0.0,0.0,0.0,0.0,0.0,0.0,0.0,0.0,0.0,0.0,0.0,0.0,0.0,0.0,0.0,0.0,0.0,0.0,0.0,0.0,0.0,0.0,0.0,0.0,0.0,3.1428,3.2378,3.4116,3.4321,3.4011,3.3197,3.5784,3.7459,3.729,3.9763,4.128,4.128,4.1538,4.1606,4.1515,4.1772,4.1748,4.1378,4.1378,4.1469,4.1636,4.1636,4.1903,4.2366,4.2366,4.2366,4.2366,4.2366,4.2366,4.2366,4.2366,4.1796,4.09,4.0726,4.0662,4.0654,4.0542,4.0546,4.0526,0.0,0.0,1.8604,1.8604,1.8622,1.8595,1.8595,2.1235,2.3762,2.5237,2.7874,3.0234,3.183,3.2383,3.2931,3.3757,3.3437,3.3687,3.4834,3.3081,3.2204,3.2698,3.4325,3.6343,3.8731,4.0526,4.2204,4.3768,4.4156,4.4732,4.545,4.6374,4.7208,4.7956,4.8697,4.8612,4.7922,4.7922,4.5385,4.1157,3.9179,3.6697,3.3777,0.0,0.0,0.0,0.0,0.0,0.0,0.0,0.0,0.0,0.0,0.0,0.0,0.0,0.0,0.0,0.0,0.0,0.0,0.0,0.0,0.0,0.0,0.0,0.0,0.0,0.0,0.0,0.0,0.0,0.0,0.0,0.0,0.0,3.2519,3.38,3.5439,3.7674,3.8433,3.8444,3.7632,3.9013,3.9767,3.9307,4.0761,4.1693,4.1689,4.242,4.2693,4.2356,4.3109,4.3496,4.3515,4.3533,4.3551,4.3551,4.357,4.357,4.357,4.357,4.357,4.357,4.357,4.357,4.357,4.357,4.357,4.3518,4.2939,4.2207,4.1541,4.2116,4.1846,4.1168,1.8852,1.8896,1.8896,1.8896,1.8734,1.8595,1.8595,2.1473,2.3783,2.4204,2.7622,3.0642,3.2255,3.253,3.3044,3.4138,3.3602,3.3099,3.2842,3.2307,3.298,3.5188,3.8505,4.0416,4.0654,4.1757,4.2624,4.322,4.3418,4.4481,4.629,4.6641,4.7479,4.8714,4.8917,4.89,4.8714,4.8714,4.7689,4.5821,4.3657,4.0774,3.7682,0.0,0.0,0.0,0.0,0.0,0.0,0.0,0.0,0.0,0.0,0.0,0.0,0.0,0.0,0.0,0.0,0.0,0.0,0.0,0.0,0.0,0.0,0.0,0.0,0.0,0.0,0.0,0.0,0.0,0.0,0.0,3.3074,3.4325,3.4353,3.5892,3.7502,3.8701,3.9696,3.9888,3.884,4.0197,4.108,4.0952,4.2429,4.3459,4.377,4.399,4.3943,4.3547,4.3754,4.3758,4.3496,4.4085,4.4378,4.4378,4.4966,4.5241,4.5241,4.5241,4.5241,4.5241,4.5241,4.5241,4.5241,4.5241,4.5241,4.5112,4.3778,4.3122,4.2938,4.3114,4.302,4.2837,1.8923,1.901,1.9026,1.9101,1.8999,1.8886,1.8886,2.1778,2.4085,2.4441,2.7526,3.0436,3.2381,3.2158,3.2401,3.3774,3.3283,3.2786,3.2519,3.3328,3.486,3.7187,4.0194,4.1784,4.1796,4.2145,4.2496,4.2864,4.2832,4.3958,4.6108,4.659,4.7581,4.9001,4.9001,4.9001,4.9001,4.9001,4.8765,4.8261,4.6938,4.4624,4.186,4.0779,3.8299,3.5304,3.4684,3.3484,3.2194,3.2361,0.0,0.0,0.0,0.0,0.0,0.0,0.0,0.0,0.0,0.0,0.0,0.0,0.0,0.0,0.0,0.0,0.0,0.0,0.0,0.0,0.0,0.0,0.0,0.0,3.5757,3.7299,3.788,3.8689,3.964,4.079,4.1512,4.1643,4.0972,4.2096,4.2787,4.258,4.3741,4.4561,4.48,4.5128,4.5148,4.4767,4.4946,4.495,4.4759,4.5053,4.5204,4.5223,4.5681,4.5902,4.5902,4.5902,4.5902,4.5902,4.5902,4.5902,4.5902,4.5902,4.5902,4.5773,0.0,0.0,0.0,0.0,4.3515,4.3515,1.8834,1.8949,1.9,1.9188,1.9243,1.9259,1.9259,2.1997,2.4355,2.5154,2.7365,2.9757,3.2087,3.132,3.1301,3.285,3.2781,3.2927,3.3563,3.5382,3.7147,3.8781,4.0469,4.1649,4.2224,4.1948,4.2018,4.24,4.2334,4.3326,4.5328,4.6329,4.753,4.8883,4.8883,4.8832,4.8748,4.8748,4.8748,4.8748,4.8748,4.7631,4.5805,4.4423,4.2591,4.0553,3.9157,3.7297,3.5385,3.4658,0.0,0.0,0.0,0.0,0.0,0.0,0.0,0.0,0.0,0.0,0.0,0.0,0.0,0.0,0.0,0.0,0.0,0.0,0.0,0.0,0.0,0.0,0.0,0.0,3.8059,4.0128,4.2018,4.181,4.1954,4.3346,4.3541,4.3534,4.3516,4.4279,4.4611,4.4202,4.4927,4.5404,4.5437,4.6124,0.0,0.0,0.0,4.6582,4.6504,4.6241,4.6085,4.6049,4.6122,4.6177,4.6177,4.6177,4.6177,4.6177,4.6177,4.6177,4.6177,4.6177,4.6122,4.5957,4.5149,4.4838,4.4745,4.392,4.3626,4.3608,1.851,1.8688,1.8679,1.8734,1.8922,1.906,1.906,2.1433,2.3529,2.4318,2.6521,2.8705,3.0467,3.0166,3.0334,3.1564,3.2811,3.4274,3.5979,3.6842,3.7988,3.9588,4.1827,4.2687,4.1912,4.1827,4.1397,4.0611,4.175,4.3145,4.4765,4.6179,4.7276,4.8091,4.8091,4.7784,4.7225,4.7225,4.7225,4.7225,4.7225,4.7327,4.7432,4.7128,4.6041,4.4502,4.3606,4.2591,4.1576,4.0832,3.8903,3.6772,3.6485,3.4117,0.0,0.0,0.0,0.0,0.0,0.0,0.0,0.0,0.0,0.0,0.0,0.0,0.0,0.0,0.0,0.0,0.0,0.0,0.0,3.7789,3.968,4.1582,4.33,4.4221,4.4719,4.4748,4.4994,4.5044,4.4775,4.5495,4.5929,4.5832,4.6625,4.722,4.7501,4.7665,4.7594,4.7262,4.7343,4.7095,4.6504,4.7062,4.7196,4.6874,4.7535,0.0,4.7847,4.7847,4.7847,4.7847,4.7847,4.7847,4.7847,4.7847,4.7443,4.6782,4.5993,4.5663,4.5571,4.4764,4.447,4.4378,1.8342,1.845,1.844,1.8576,1.9026,1.9351,1.9351,2.1482,2.3527,2.4701,2.661,2.8588,3.0544,3.0036,2.9931,3.0917,3.1774,3.3364,3.6033,3.6918,3.8158,3.9977,4.1704,4.2386,4.1793,4.1512,4.1064,4.0497,4.1325,4.2523,4.4012,4.4756,4.5906,4.7344,4.6972,4.6802,4.6786,4.6786,4.6786,4.6786,4.6786,4.7022,4.7361,4.7361,4.6667,4.5602,4.484,4.3842,4.2743,4.1999,4.051,3.8937,3.8565,3.6654,3.4257,0.0,0.0,0.0,0.0,0.0,0.0,0.0,0.0,0.0,0.0,0.0,0.0,0.0,0.0,3.5533,3.6093,0.0,3.9126,4.0568,4.1828,4.3139,4.4547,4.5235,4.555,4.5362,4.5111,4.5234,4.5927,4.5974,4.631,4.7134,4.7594,4.7923,4.8096,4.8509,4.8664,4.8505,4.8727,4.8574,4.8014,4.8207,4.8098,4.77,4.8122,4.8306,4.8306,4.8306,4.8306,4.8306,4.8306,4.8306,4.8306,4.8306,4.8067,4.7645,4.726,4.6617,4.5847,4.5461,4.5296,4.5241,1.832,1.8447,1.8534,1.8818,1.9408,1.9833,1.9833,2.1617,2.3519,2.5059,2.6525,2.8251,3.0397,2.9577,2.9365,3.0629,3.0716,3.2124,3.547,3.6488,3.7769,3.9552,4.0742,4.1379,4.141,4.0946,4.0695,4.0733,4.1035,4.1897,4.3172,4.3325,4.4384,4.6109,4.5517,4.55,4.5923,4.6075,4.6143,4.6143,4.6143,4.6143,4.6109,4.5974,4.5838,4.5602,4.484,4.369,4.2371,4.1508,4.0798,4.018,3.9445,3.8403,3.7151,3.5605,3.4641,0.0,0.0,0.0,0.0,0.0,0.0,0.0,0.0,3.3469,3.418,3.5218,3.6975,3.8409,3.8625,4.03,4.2029,4.3156,4.3694,4.4355,4.5453,4.5594,4.5594,4.5594,4.4979,4.5105,4.6509,4.6317,4.6644,4.8009,4.8413,4.8606,4.8606,4.926,4.9644,4.9644,5.0024,5.0012,4.9617,4.9218,4.8813,4.8421,4.8421,4.8421,4.8421,4.8421,4.8421,4.8402,4.8326,4.8306,4.8306,4.8306,4.8306,4.8306,4.8306,4.7555,4.6433,4.6214,4.614,4.6104,1.8569,1.9028,1.9395,1.9769,2.0117,2.0316,2.0316,2.1353,2.27,2.4242,2.5216,2.641,2.8092,2.7265,2.773,3.0626,3.0768,3.2214,3.5812,3.6095,3.6574,3.7572,3.9043,3.9911,4.0011,3.9961,4.0025,4.0179,4.0883,4.1627,4.2439,4.3098,4.3527,4.3764,4.368,4.3352,4.2844,4.3504,4.3764,4.3764,4.3764,4.3764,4.3696,4.3047,4.4012,4.5602,4.484,4.4028,4.3054,4.1677,4.1153,4.095,4.0214,3.9859,3.9453,3.7956,3.6992,3.6061,3.4329,3.3317,3.2964,3.3932,3.3842,3.3989,0.0,3.6463,3.7255,3.907,4.0272,4.1284,4.2296,4.2706,4.3175,4.4028,4.4222,4.456,4.547,4.5594,4.5594,4.5594,4.5518,4.5537,4.5729,4.699,4.7894,4.8086,4.9529,5.0423,5.0423,5.05,5.0558,5.0558,5.0606,5.0432,5.0043,4.9631,4.9234,4.8829,4.8829,4.8829,4.8829,4.8829,4.8829,4.8795,4.8458,4.8306,4.8306,4.8306,4.8306,4.8306,4.8306,4.8403,4.8424,4.7353,4.6966,4.6856,1.8967,1.9277,1.9722,2.074,2.0887,2.0769,2.0497,2.1433,2.2875,2.479,2.5077,2.5968,2.83,2.7704,2.7844,2.9642,2.9726,3.1024,3.416,3.4434,3.4966,3.6103,3.6866,3.7292,3.7348,3.7815,3.8308,3.8819,3.9563,4.051,4.166,4.1542,4.1931,4.2743,4.232,4.2185,4.2303,4.2625,4.276,4.276,4.276,4.276,4.2675,4.1931,4.1982,4.2327,4.161,4.1119,0.0,3.914,3.892,3.9309,3.9411,3.8877,3.8289,3.883,3.8196,3.7327,3.7609,3.6876,3.6082,3.6411,3.6458,3.6649,3.7493,3.8302,3.9251,4.053,4.1836,4.2956,4.3677,4.401,4.4384,4.4972,4.5056,4.519,4.5556,4.5594,4.5787,4.6297,4.5913,4.5806,4.6317,4.6528,4.7259,4.8759,4.9529,5.0164,5.0673,5.0712,5.0712,5.0712,5.0712,5.0504,5.0092,4.9936,4.9664,4.9249,4.9249,4.9249,4.9249,4.9249,4.9123,4.888,4.8458,4.8439,4.8639,4.8639,4.8779,4.8996,4.8996,4.9092,4.9134,4.8163,4.7961,4.8102,1.9329,1.9583,2.0001,2.1053,2.1273,2.1242,2.1026,2.174,2.2939,2.4763,2.4697,2.5306,2.7432,2.7441,2.7613,2.8404,2.8801,3.0025,3.2421,3.2906,3.3509,3.4433,3.4806,3.5076,3.5301,3.5859,3.6637,3.7601,3.8125,3.914,4.0578,4.0062,4.0383,4.1373,4.1035,4.1068,4.1407,4.1813,4.1999,4.1999,4.1999,4.1863,4.161,4.0865,3.9884,3.8811,3.8497,3.8244,3.7838,3.6349,3.6349,3.706,3.7584,3.7161,3.6859,3.887,3.8957,3.8662,3.9734,3.9367,3.8679,3.8426,3.8632,3.8875,3.8875,3.9687,4.0664,4.1464,4.2686,4.3828,4.4564,4.4894,4.5197,4.5717,4.5676,4.5568,4.5485,4.5531,4.5722,4.6014,4.5781,4.574,4.6144,4.6047,4.6721,4.8567,4.9144,4.9683,5.0308,5.0577,5.0712,5.0712,5.0712,5.0554,5.0272,5.0159,4.9949,4.9678,4.9678,4.9678,4.9678,4.9678,4.9445,4.9043,4.8763,4.8796,4.9059,4.9059,4.9234,4.9489,4.9489,4.9561,4.9575,4.8898,4.8813,4.9059,1.9561,2.0004,2.0283,2.0316,2.1022,2.1746,2.2175,2.2279,2.2581,2.3359,2.3632,2.3863,2.4211,2.533,2.6361,2.7088,2.8298,2.9636,3.1162,3.1921,3.2344,3.2381,3.3089,3.3795,3.4506,3.4556,3.5323,3.6829,3.6863,3.7625,3.9056,3.9039,3.9056,3.9123,3.9825,3.9757,3.9191,4.0629,4.1238,4.1238,4.1238,4.0815,4.0079,3.9343,3.7686,3.5836,3.6586,3.6366,3.5481,3.4015,3.3998,3.4607,3.4624,3.5098,3.6017,3.8055,3.9528,4.0364,3.9697,3.9538,3.9557,3.955,3.9792,4.0053,4.0053,4.0673,4.1483,4.2302,4.2921,4.3813,4.5447,4.5392,4.5363,4.6153,4.5898,4.5495,4.5169,4.54,4.5178,4.4022,4.4902,4.5287,4.4451,4.5874,4.6885,4.6962,4.849,4.9413,4.9433,5.025,5.0712,5.0712,5.0712,5.0683,5.0673,5.0283,5.0092,5.008,5.008,5.008,5.008,5.008,4.9853,4.9475,4.946,4.946,4.9475,4.9475,4.9489,4.9489,4.9489,4.9746,5.0031,4.9622,4.9475,4.9475,2.0228,2.0478,2.0739,2.1325,2.1662,2.1954,2.2264,2.2296,2.275,2.3966,2.5129,0.0,0.0,0.0,0.0,0.0,2.7358,2.829,2.9279,2.9578,2.9709,2.9709,2.9522,2.9543,2.9772,3.0702,3.1863,3.3267,3.4712,3.6135,3.7557,3.8041,3.8278,3.8253,3.8012,3.7769,3.7619,3.8635,3.8768,3.8335,3.8852,3.8361,3.7336,3.7469,3.5863,3.3628,0.0,3.4049,3.3186,3.1715,3.2019,3.3139,3.3609,3.3448,3.3649,3.6609,3.8851,4.0478,4.0804,4.0797,4.0741,4.0741,4.0803,4.0911,4.0911,4.0969,4.1105,4.1389,4.31,4.465,4.4942,4.5533,4.597,4.5968,4.538,4.4908,4.4769,4.4872,4.5281,4.6202,4.5708,4.5678,4.6722,4.6355,4.6278,4.6846,4.7913,4.8798,4.9375,5.0231,5.0712,5.0712,5.0712,5.0712,5.0712,5.0565,5.0493,5.0493,5.0493,5.0493,5.0483,5.0206,5.0031,4.9866,4.9622,4.9645,4.9898,4.9898,5.0056,5.0302,5.0302,5.0388,5.0483,5.0347,5.0302,5.026,2.1194,2.1166,2.1401,2.2482,2.2307,0.0,0.0,0.0,0.0,0.0,0.0,0.0,0.0,0.0,0.0,0.0,0.0,2.7256,2.7992,2.826,2.8405,2.8405,2.7992,2.7864,2.8116,2.8774,2.9905,3.1497,3.287,3.4525,3.6393,3.6645,3.6878,3.709,3.6635,3.6156,3.574,3.6535,3.6836,3.6751,3.6348,3.5873,3.5447,3.5061,3.3267,0.0,3.1618,3.1512,3.0973,3.0023,3.0347,3.1283,3.2154,3.2778,3.3667,3.6286,3.8699,4.0744,4.1687,4.1957,4.1944,4.1944,4.1609,4.1293,4.1293,4.076,4.034,4.0629,4.2304,4.3822,4.415,4.4934,4.574,4.6371,4.5904,4.5413,4.5256,4.5372,4.5728,4.644,4.5948,4.5978,4.7106,4.6509,4.6163,4.6413,4.7471,4.8336,4.8913,5.0048,5.0712,5.0712,5.0712,5.0712,5.0712,5.0712,5.0712,5.0712,5.0712,5.0712,5.0683,5.0432,5.0306,5.0313,5.0043,5.0068,5.0306,5.0306,5.0472,5.0712,5.0712,5.0712,5.0712,5.0712,5.0712,5.0663,2.2403,2.2087,2.2217,0.0,0.0,0.0,0.0,0.0,0.0,0.0,0.0,0.0,0.0,0.0,0.0,0.0,0.0,0.0,2.7208,2.786,2.8222,2.8254,2.8201,2.8477,2.9127,2.8522,2.9198,3.1238,3.1302,3.2765,3.5424,3.4826,3.4868,3.5498,3.5511,3.4765,3.3556,3.4278,3.5262,3.6181,3.3731,3.34,3.4175,3.2194,3.0063,2.8221,2.8878,2.9062,2.8978,2.9081,2.9201,2.9515,3.0578,3.3113,3.5919,3.7128,3.9124,4.1181,4.2347,4.2919,4.3143,4.3088,4.221,4.133,4.1282,4.013,3.9295,4.0049,4.0683,4.1535,4.3039,4.3682,4.4733,4.7062,4.7079,4.6692,4.631,4.6641,4.6374,4.4913,4.5706,4.6199,4.576,4.649,4.6605,4.5729,4.7182,4.8105,4.8105,4.974,5.0712,5.0712,5.0712,5.0731,5.077,5.077,5.077,5.077,5.0731,5.0712,5.0712,5.0712,5.0731,5.077,5.0731,5.0731,5.077,5.0731,5.0712,5.0712,5.0712,5.0712,5.0712,5.0712,5.0712,5.0712,0.0,0.0,0.0,0.0,0.0,0.0,0.0,0.0,0.0,0.0,0.0,0.0,0.0,0.0,0.0,0.0,0.0,0.0,2.5314,2.5482,2.5802,2.6291,2.5309,2.5067,2.5734,2.5537,2.6163,2.7688,2.8761,3.0129,3.1828,3.2216,3.2474,3.262,3.2152,3.1454,3.0694,3.1435,3.1341,3.0687,3.0557,3.0307,3.0057,3.0577,2.9295,2.7525,2.9835,2.9753,2.8732,2.9989,3.1777,3.3509,3.3747,3.5217,3.7275,3.9369,4.056,4.1535,4.3073,4.3743,4.3801,4.2939,4.2316,4.1676,4.0816,3.9677,3.8859,3.908,4.0165,4.104,4.0836,4.2368,4.3631,4.3667,4.4081,4.4354,4.4256,4.5095,4.5921,4.6404,4.6946,4.7308,4.7443,4.7663,4.7451,4.6624,4.7528,4.8105,4.8105,4.974,5.0712,5.0712,5.0712,5.0991,5.1587,5.1587,5.1587,5.1587,5.0991,5.0712,5.0712,5.0712,5.1029,5.1568,5.0952,5.1029,5.1548,5.0952,5.0712,5.0712,5.0712,5.0712,5.0712,5.0712,5.0712,5.0712,0.0,0.0,0.0,0.0,0.0,0.0,0.0,0.0,0.0,0.0,0.0,0.0,0.0,0.0,0.0,0.0,0.0,0.0,0.0,2.4156,2.4097,2.3969,2.3432,2.335,2.3808,2.3696,2.4317,2.5643,2.6703,2.7765,2.8834,2.9225,2.9548,2.9808,2.9128,2.8648,2.8311,2.8728,2.878,0.0,0.0,2.8059,2.8401,2.8495,2.7695,2.6737,2.8573,2.9902,3.1087,3.2887,3.4621,3.6009,3.5997,3.7593,3.9812,4.1677,4.2582,4.3222,4.4297,4.444,4.4034,4.288,4.2074,4.1279,4.0128,3.926,3.8505,3.779,3.9221,4.0212,3.9071,4.1111,4.2928,4.2837,4.3791,4.4595,4.4747,4.5695,4.6589,4.7245,4.7829,4.8302,4.8635,4.8663,4.8317,4.749,4.8202,4.8663,4.8663,4.9952,5.0712,5.0712,5.0712,5.1087,5.1885,5.1904,5.2096,5.2462,5.1625,5.1221,5.1241,5.1625,5.1837,5.1904,5.1837,5.1837,5.1865,5.1414,5.101,5.0712,5.0712,5.0712,5.0712,5.0712,5.0712,5.0712,0.0,0.0,0.0,0.0,0.0,0.0,0.0,0.0,0.0,2.4138,2.5171,2.5843,2.5506,2.4874,0.0,0.0,0.0,0.0,0.0,0.0,2.3125,2.2091,2.2384,2.2592,2.2648,2.2509,2.3018,2.4191,2.4884,2.5535,2.62,2.6186,2.6524,2.7047,2.6544,2.6273,2.6198,2.6384,2.7069,2.7901,2.6103,2.6461,2.7943,0.0,2.6049,2.6174,2.6793,2.9913,3.4026,3.6053,3.7238,3.7895,3.7993,3.997,4.2477,4.3633,4.4372,4.4928,4.533,4.4797,4.3861,4.2668,4.1635,4.0551,3.9266,3.875,3.812,3.6615,3.7955,3.9016,3.7603,3.979,4.2084,4.289,4.4504,4.5802,4.6208,4.7186,4.7837,4.7788,4.8579,4.9207,4.9375,4.949,4.9202,4.8336,4.9086,4.951,4.9413,5.0231,5.0712,5.0712,5.0808,5.1241,5.2058,5.2077,5.25,5.3356,5.2481,5.2077,5.2096,5.2856,5.2856,5.2269,5.2933,5.2779,5.2058,5.1942,5.1433,5.0712,5.0712,5.0712,5.0712,5.0712,5.0712,5.0712,0.0,0.0,0.0,0.0,0.0,0.0,0.0,0.0,0.0,0.0,2.4875,2.4729,0.0,0.0,0.0,0.0,0.0,0.0,0.0,0.0,0.0,2.2752,2.2197,2.1694,2.1336,2.1147,2.1212,2.1567,2.2605,2.3267,2.3559,2.3948,2.4184,2.4294,2.4747,2.4634,2.4207,2.5177,2.5419,2.5136,2.521,2.5715,2.639,2.6104,0.0,0.0,2.8167,3.0468,3.3191,3.5572,3.8383,4.0901,4.1197,4.1874,4.2752,4.3903,4.3861,4.3592,4.4327,4.3932,4.2972,4.1551,4.1059,4.0359,3.828,3.7754,3.7437,3.6486,3.6633,3.6835,3.656,3.8046,3.9588,4.0377,4.2702,4.4659,4.5388,4.7329,4.8699,4.8674,4.9693,5.0124,4.9471,5.0048,5.0106,4.924,4.9971,5.0164,4.9433,5.0231,5.0712,5.0712,5.1356,5.2096,5.2972,5.2972,5.3414,5.426,5.3395,5.2972,5.2991,5.3126,5.351,5.401,5.3453,5.3106,5.2933,5.2192,5.1433,5.0712,5.0712,5.0712,5.0712,5.0712,5.0712,5.0712,0.0,0.0,0.0,0.0,0.0,0.0,0.0,2.6541,2.6439,2.8288,2.7396,2.6204,2.5234,2.4223,2.3879,0.0,0.0,0.0,0.0,0.0,0.0,2.1394,2.0974,2.0373,1.9566,1.9433,1.9433,1.9492,0.0,2.1101,2.0833,2.1678,2.2271,2.2643,2.3197,2.3655,2.4069,2.4931,2.5127,2.4855,2.5392,2.5779,2.6031,2.6279,0.0,0.0,2.9013,3.0982,3.3027,3.548,3.8376,4.1087,4.1662,4.2372,4.3243,4.4383,4.4145,4.3589,4.4001,4.3148,4.182,4.0332,3.9952,3.9524,3.7878,3.7492,3.7144,3.5881,3.5973,3.6028,3.5165,3.7037,3.8875,3.9445,4.2114,4.4358,4.5095,4.7333,4.88,4.8522,4.9806,5.0539,5.0106,5.0462,5.0539,5.0106,5.0462,5.0519,5.0087,5.0481,5.0712,5.0712,5.1491,5.2308,5.3203,5.3203,5.3857,5.5107,5.428,5.3876,5.3895,5.4318,5.4491,5.4491,5.4491,5.401,5.3164,5.275,5.1837,5.0712,5.0712,5.0712,5.0712,5.0712,5.0712,5.0712,0.0,0.0,0.0,0.0,0.0,0.0,0.0,2.7885,2.7875,3.1281,3.0118,2.8368,2.6647,2.5136,2.4283,0.0,0.0,0.0,0.0,0.0,0.0,0.0,0.0,0.0,1.8414,0.0,0.0,1.8391,1.959,0.0,0.0,0.0,0.0,0.0,2.2355,2.3204,2.4249,2.5041,2.5373,0.0,0.0,2.6156,2.6191,0.0,0.0,0.0,0.0,3.1104,3.2581,3.537,3.7488,3.9198,4.0337,4.1825,4.3307,4.4186,4.389,4.3262,4.3262,4.2117,4.0629,3.9419,3.9112,3.8831,3.7728,3.7364,3.6817,3.5316,3.5422,3.5404,3.4266,3.6232,3.8338,3.9298,4.1902,4.4143,4.5213,4.7452,4.8845,4.8423,4.974,5.0712,5.0712,5.0712,5.0712,5.0712,5.0712,5.0712,5.0712,5.0712,5.0712,5.0712,5.1491,5.2308,5.3203,5.3395,5.4222,5.5684,5.5049,5.4761,5.478,5.5415,5.5261,5.453,5.5338,5.4645,5.2953,5.3126,5.2202,5.0712,5.0712,5.0712,5.0712,5.0712,5.0712,5.0712,0.0,0.0,0.0,0.0,0.0,0.0,0.0,2.7566,2.8677,3.1968,3.1206,3.0043,2.9295,2.7495,2.56,0.0,0.0,0.0,0.0,0.0,0.0,0.0,0.0,0.0,0.0,0.0,0.0,1.9018,2.0152,0.0,0.0,0.0,0.0,0.0,0.0,2.3371,2.3604,2.523,0.0,0.0,0.0,0.0,0.0,0.0,0.0,0.0,0.0,3.0366,3.1026,3.4973,3.545,3.4811,3.7147,3.9885,4.2233,4.2344,4.1796,4.1172,4.1172,4.048,3.9658,3.9205,3.9112,3.8831,3.7728,3.6942,3.6138,3.5188,3.4472,3.4211,3.4784,3.5386,3.6769,3.9796,4.1666,4.3558,4.587,4.8025,4.9337,4.9298,5.0106,5.0712,5.0712,5.0712,5.0712,5.0712,5.0712,5.0712,5.0712,5.0712,5.0712,5.0712,5.1491,5.2308,5.3203,5.3991,5.4818,5.5703,5.5626,5.5588,5.5588,5.5665,5.5261,5.453,5.5338,5.4299,5.2077,5.2876,5.2202,5.0712,5.0712,5.0712,5.0712,5.0712,5.0712,5.0712,0.0,0.0,0.0,0.0,0.0,0.0,2.8699,2.7865,2.8543,3.3213,3.2248,3.1152,3.133,2.9579,2.7121,2.3879,0.0,0.0,0.0,0.0,0.0,0.0,0.0,0.0,0.0,0.0,1.968,1.9688,2.0483,0.0,0.0,0.0,0.0,0.0,0.0,2.3815,2.4553,2.5575,0.0,0.0,0.0,0.0,0.0,0.0,0.0,0.0,0.0,0.0,3.0221,3.2347,3.3096,3.3301,3.4251,3.592,3.7896,3.9793,4.0108,3.9933,4.047,3.997,3.9343,3.953,3.9575,3.9456,3.9047,3.7951,3.6795,3.5954,3.4724,3.3947,3.4419,3.5052,3.6376,3.9063,4.0809,4.2421,4.4135,4.6407,4.7894,4.7894,4.9086,5.0106,5.0654,5.0712,5.0712,5.0712,5.0712,5.0712,5.0712,5.0712,5.0712,5.0712,5.1491,5.2308,5.3203,5.4068,5.4895,5.5684,5.5203,5.4972,5.4953,5.4434,5.403,5.3741,5.4068,5.3318,5.1923,5.2269,5.1741,5.0712,5.0712,5.0712,5.0712,5.0712,5.0712,5.0712,0.0,0.0,0.0,0.0,0.0,2.6226,2.9265,2.816,2.87,3.3418,3.2382,3.1451,3.2123,3.0118,2.756,2.4732,2.3939,0.0,0.0,0.0,0.0,0.0,0.0,0.0,0.0,0.0,2.0653,2.0872,2.1454,2.1709,0.0,0.0,2.2694,2.2993,0.0,0.0,0.0,0.0,0.0,0.0,0.0,0.0,0.0,0.0,0.0,0.0,0.0,0.0,0.0,0.0,0.0,3.1709,3.2144,3.3034,3.4558,3.7757,3.866,3.8911,4.0247,3.9987,3.9489,4.0107,4.0249,4.0194,3.9937,3.8667,3.7272,3.6468,3.4963,3.3876,3.4159,3.4972,3.6329,3.8537,4.0109,4.1617,4.3242,4.522,4.6605,4.6865,4.8144,4.9356,5.0231,5.0558,5.0712,5.0712,5.0712,5.0712,5.0712,5.0712,5.0712,5.0712,5.1491,5.2308,5.3203,5.4068,5.478,5.5338,5.4761,5.4357,5.4087,5.3491,5.3068,5.2837,5.3087,5.2568,5.1587,5.2077,5.1798,5.1048,5.1048,5.1048,5.1029,5.0789,5.0712,5.0712,0.0,0.0,0.0,0.0,0.0,0.0,2.8101,2.84,2.9383,3.2166,3.1345,3.0776,3.1436,2.8607,2.6602,2.6557,2.4747,0.0,0.0,0.0,0.0,0.0,0.0,0.0,0.0,0.0,2.2017,2.268,2.3337,2.3645,2.3595,2.4261,2.4216,2.3601,0.0,0.0,0.0,0.0,0.0,0.0,0.0,0.0,2.6691,0.0,0.0,0.0,0.0,0.0,0.0,0.0,0.0,0.0,0.0,3.2026,3.3259,3.6547,3.7511,3.8043,4.0432,4.0487,4.0081,4.0875,4.1077,4.0875,4.0084,3.8667,3.7272,3.6468,3.4963,3.3876,3.4159,3.5135,3.6554,3.8565,3.9791,4.1393,4.3932,4.5056,4.5932,4.6797,4.7625,4.8471,4.9336,5.0183,5.0712,5.0712,5.0712,5.0712,5.0712,5.0712,5.0712,5.0712,5.1491,5.2308,5.3203,5.4068,5.4491,5.4511,5.4491,5.4049,5.3222,5.3203,5.2731,5.1962,5.2837,5.2241,5.0846,5.251,5.2673,5.1885,5.1885,5.1885,5.1788,5.0991,5.0712,5.0712,0.0,0.0,0.0,0.0,0.0,0.0,0.0,2.6514,2.6923,2.8873,2.8368,2.8427,3.0028,2.8038,2.6587,2.6587,2.4762,0.0,0.0,0.0,0.0,0.0,0.0,0.0,0.0,2.3105,2.3548,2.468,2.4887,2.4995,2.4971,2.5173,2.4687,2.3595,2.3773,2.4158,0.0,0.0,0.0,0.0,0.0,2.6691,2.6691,0.0,0.0,0.0,0.0,0.0,0.0,0.0,0.0,0.0,0.0,0.0,0.0,3.404,3.6302,3.7998,3.8728,3.9127,3.9418,3.9672,4.0144,4.0344,3.9545,3.925,3.8612,3.6688,3.5404,3.4526,3.424,3.4674,3.609,3.9204,4.0654,4.2066,4.4028,4.5566,4.6586,4.6865,4.8663,4.999,5.0269,5.0539,5.0712,5.0712,5.0712,5.0712,5.0712,5.0712,5.0712,5.0712,5.1491,5.2308,5.3203,5.4068,5.478,5.5299,5.4164,5.3472,5.3164,5.201,5.1337,5.1106,5.1375,5.1183,5.075,5.126,5.1318,5.1087,5.1087,5.1087,5.1048,5.0789,5.0712,5.0712,0.0,0.0,0.0,0.0,0.0,0.0,0.0,2.6105,2.6161,2.7022,2.6561,2.6844,2.8659,2.6811,2.5764,2.6512,2.4762,0.0,0.0,0.0,0.0,0.0,0.0,0.0,2.3595,2.3595,2.4388,2.5974,2.6228,2.6482,2.6737,2.6737,2.5884,2.4343,2.4103,2.4249,0.0,0.0,0.0,0.0,2.6505,2.6556,2.6691,0.0,0.0,0.0,0.0,0.0,0.0,0.0,0.0,0.0,0.0,0.0,0.0,0.0,3.457,3.6827,3.7847,3.8474,3.8905,3.921,3.9806,4.0095,3.9282,3.9043,3.8484,3.667,3.5367,3.447,3.4252,3.4641,3.5807,3.8261,4.0067,4.1675,4.3154,4.4836,4.6163,4.6808,4.8856,5.0212,5.0212,5.0212,5.0346,5.0673,5.0404,5.0346,5.0673,5.0712,5.0712,5.0712,5.1183,5.201,5.3203,5.3741,5.426,5.4741,5.3703,5.2876,5.2222,5.1193,5.0712,5.0712,5.0712,5.0712,0.0,5.1029,5.1144,5.1144,5.1144,5.1144,5.1125,5.0808,5.0712,5.0712,0.0,0.0,0.0,0.0,0.0,0.0,0.0,2.6836,2.6717,2.6364,2.5768,2.5911,2.7278,2.5213,2.4476,2.6356,0.0,0.0,0.0,0.0,0.0,0.0,0.0,0.0,2.3595,2.3655,2.4657,2.6662,2.739,2.8094,2.8742,2.8742,2.7649,2.5644,2.5009,2.4891,2.524,0.0,0.0,0.0,2.6209,2.6314,0.0,0.0,0.0,0.0,0.0,0.0,0.0,0.0,0.0,0.0,0.0,0.0,0.0,0.0,0.0,0.0,0.0,3.815,3.836,3.9075,3.9636,3.9788,3.9012,3.815,0.0,3.6376,3.4963,3.3973,3.429,3.495,3.5717,3.6558,3.8794,4.0796,4.1899,4.3508,4.5182,4.6874,4.8509,4.951,4.9567,4.9529,4.9817,5.0635,4.9952,4.9856,5.0654,5.0712,5.0712,5.0712,5.0712,5.1471,5.3087,5.3106,5.3145,5.3203,5.3145,5.2299,5.0789,5.0731,5.0712,5.0712,5.0712,5.0712,5.077,5.151,5.1808,5.1808,5.1808,5.1808,5.1712,5.0971,5.0712,5.0712,0.0,0.0,0.0,0.0,0.0,0.0,0.0,0.0,0.0,0.0,2.5338,2.5377,2.5726,2.519,2.5001,0.0,0.0,0.0,0.0,0.0,0.0,0.0,0.0,0.0,2.3595,2.4096,2.536,2.736,2.8558,2.9457,3.0058,3.0058,2.8727,2.6342,2.6093,2.5685,2.524,2.5762,0.0,0.0,2.6453,2.6607,0.0,0.0,0.0,0.0,2.6691,2.7571,0.0,0.0,0.0,0.0,0.0,0.0,0.0,0.0,3.1953,3.2992,3.4017,0.0,3.6085,3.5949,3.6469,3.6899,0.0,3.6932,3.7088,3.561,3.4986,3.494,3.568,3.5304,3.6161,4.011,4.2182,4.363,4.4586,4.6144,4.7605,4.8682,4.974,5.0644,5.125,5.076,5.0481,5.0693,5.0519,5.0481,5.0693,5.0712,5.0712,5.0712,5.0712,5.1183,5.2192,5.2212,5.2538,5.3203,5.2519,5.2,5.1606,5.0971,5.0712,5.0712,5.0712,5.0712,5.0712,5.0894,5.0971,5.0971,5.0971,5.0971,5.0952,5.077,5.0712,5.0712,0.0,0.0,0.0,0.0,0.0,0.0,0.0,0.0,0.0,0.0,0.0,0.0,0.0,0.0,0.0,0.0,0.0,0.0,0.0,0.0,0.0,0.0,0.0,2.3595,2.3595,2.4261,2.5898,2.8509,2.9535,3.1033,3.2857,3.2222,3.066,2.8333,2.6872,2.5962,2.5596,2.587,2.6122,2.6332,2.6367,0.0,0.0,0.0,0.0,0.0,2.6691,2.769,0.0,2.8907,3.0362,3.2087,0.0,0.0,0.0,0.0,3.1913,3.2447,3.2685,3.4306,3.5911,3.5895,3.6381,3.6826,3.6636,3.6479,3.6101,3.5188,3.4711,3.4711,3.555,3.5684,3.6829,4.0427,4.2436,4.4181,4.5942,4.8298,4.974,4.9433,5.0491,5.1279,5.1337,5.0587,5.0269,5.0673,5.0327,5.0289,5.0673,5.0712,5.0712,5.0712,5.0712,5.1087,5.1885,5.1904,5.2135,5.2596,5.2135,5.1712,5.1337,5.0894,5.0712,5.0712,5.0712,5.0712,5.0712,5.0712,5.0712,5.0712,5.0712,5.0712,5.0712,5.0712,5.0712,5.0712,0.0,0.0,0.0,0.0,0.0,0.0,0.0,0.0,0.0,0.0,0.0,0.0,0.0,0.0,0.0,0.0,0.0,0.0,0.0,0.0,0.0,0.0,2.3837,2.3945,2.4175,2.4634,2.6426,2.9599,3.0592,3.2625,3.5541,3.4675,3.2978,3.0493,2.763,2.6211,2.5997,2.6085,2.6297,2.6556,2.6244,0.0,0.0,0.0,0.0,0.0,0.0,0.0,0.0,3.0093,3.1849,3.3605,3.2633,0.0,0.0,0.0,0.0,0.0,3.2901,3.4798,3.6702,3.6607,3.7076,3.7495,3.7327,3.6,3.4821,3.4821,3.4417,3.4378,3.545,3.6546,3.8047,4.0333,4.2184,4.426,4.6905,4.9615,5.0885,4.974,5.0856,5.151,5.0933,5.0106,4.9894,5.0635,5.001,4.9913,5.0654,5.0712,5.0712,5.0712,5.0712,5.1029,5.1712,5.1712,5.1712,5.1712,5.1712,5.1356,5.0712,5.0712,5.0712,5.0712,5.0712,5.0712,5.0712,5.0712,5.0712,5.0712,5.0712,5.0712,5.0712,5.0712,5.0712,5.075,0.0,0.0,0.0,0.0,0.0,0.0,0.0,0.0,0.0,0.0,0.0,0.0,0.0,0.0,0.0,0.0,0.0,0.0,0.0,0.0,0.0,2.4969,2.4953,2.5529,2.6795,2.6357,2.7276,2.9602,3.2106,3.3888,3.4961,3.6533,3.5065,3.109,2.886,2.717,2.6031,2.6419,2.6401,2.6138,2.6453,0.0,0.0,0.0,0.0,0.0,0.0,0.0,0.0,3.1231,3.3125,3.5163,3.3108,0.0,0.0,0.0,0.0,0.0,3.4648,3.6421,3.7125,3.4479,3.49,3.5693,3.4647,3.4206,3.399,3.399,3.4641,3.5926,3.8154,3.9127,4.0841,4.4671,4.582,4.6896,4.8759,4.8817,4.9144,5.0366,5.0731,5.1106,5.1654,5.0971,5.0558,5.0693,5.0577,5.0558,5.0693,5.0712,5.0712,5.0712,5.0712,5.077,5.0875,5.0875,5.0875,5.0875,5.0875,5.0827,5.0712,5.0712,5.0712,5.0712,5.0712,5.0712,5.0712,5.0712,5.0712,5.0712,5.0712,5.0712,5.0712,5.0712,5.0712,5.0904,0.0,0.0,0.0,0.0,0.0,0.0,0.0,0.0,0.0,0.0,0.0,0.0,0.0,0.0,0.0,0.0,0.0,0.0,0.0,0.0,2.6381,2.7226,2.6844,2.6859,2.7373,2.7774,2.9208,3.1708,3.4218,3.6135,3.754,3.6525,3.4336,3.1124,2.854,2.702,2.6384,2.6607,2.6573,2.6401,0.0,0.0,0.0,0.0,0.0,0.0,0.0,0.0,0.0,0.0,3.2862,3.4193,3.3353,0.0,0.0,0.0,0.0,0.0,3.4371,3.6143,3.727,3.5341,3.6726,3.843,3.7873,3.7074,3.645,3.645,3.6641,3.7423,3.9469,4.0761,4.2775,4.6636,4.8971,5.0087,4.949,5.024,5.0818,5.0712,5.1087,5.1318,5.126,5.0914,5.0712,5.0712,5.0712,5.0712,5.0712,5.0712,5.0712,5.0712,5.0712,5.0712,5.0712,5.0712,5.0712,5.0712,5.0712,5.0712,5.0712,5.0712,5.0712,5.0712,5.0712,5.0712,5.0712,5.0712,5.0712,5.0712,5.0712,5.0712,5.0712,5.0712,5.0712,5.0866,0.0,0.0,0.0,0.0,0.0,0.0,0.0,0.0,0.0,0.0,0.0,0.0,0.0,0.0,0.0,0.0,0.0,0.0,0.0,0.0,2.73,2.8653,2.8466,2.8646,2.9305,2.9806,3.1441,3.426,3.6324,3.8129,3.9572,3.6296,3.3496,3.111,2.843,2.7046,2.6691,2.6691,2.6691,2.6691,0.0,0.0,0.0,0.0,0.0,0.0,0.0,0.0,0.0,0.0,0.0,0.0,0.0,0.0,0.0,3.3278,3.324,3.3609,3.4077,3.5619,3.7021,3.6894,3.8579,4.0322,4.049,3.9354,3.8357,3.873,3.8774,3.9177,4.0653,4.275,4.5189,4.7943,5.0779,5.1933,4.9971,5.1202,5.1914,5.0827,5.1241,5.1375,5.077,5.0712,5.0712,5.0712,5.0712,5.0712,5.0712,5.0712,5.0712,5.0712,5.0712,5.0712,5.0712,5.0712,5.0712,5.0712,5.0712,5.0712,5.0712,5.0712,5.0712,5.0712,5.0712,5.0712,5.0712,5.0712,5.0712,5.0712,5.0712,5.0712,5.0712,5.0712,5.0712,5.0827,0.0,0.0,0.0,0.0,0.0,0.0,0.0,0.0,0.0,0.0,0.0,0.0,0.0,0.0,0.0,0.0,0.0,0.0,0.0,0.0,2.7046,2.7858,2.9193,3.1516,3.4939,3.3201,3.3691,3.6565,3.8096,3.8894,3.8913,3.6594,3.4008,3.122,2.9576,2.8045,2.6691,2.6691,2.6691,2.6691,2.6691,0.0,0.0,0.0,0.0,0.0,0.0,0.0,0.0,0.0,0.0,0.0,0.0,0.0,3.415,3.2912,3.2567,3.3017,3.4954,3.5607,3.6191,3.8047,3.8138,3.7951,3.8707,3.7882,3.7355,3.8859,4.0212,4.1416,4.2361,4.6023,4.9,4.926,5.0183,5.0827,5.0635,5.0067,4.9933,5.0616,5.075,5.077,5.0712,5.0712,5.0712,5.0712,5.0712,5.0712,5.0712,5.0712,5.0712,5.0712,5.0712,5.0712,5.0712,5.0712,5.0712,5.0712,5.0712,5.0712,5.0712,5.0712,5.0712,5.0712,5.0712,5.0712,5.0712,5.0712,5.0712,5.0712,5.0712,5.0712,5.0712,5.0712,5.0712,5.0827,0.0,0.0,0.0,0.0,0.0,0.0,0.0,0.0,0.0,0.0,0.0,0.0,0.0,0.0,0.0,0.0,0.0,0.0,0.0,2.6691,2.7249,2.8484,2.955,3.1611,3.485,3.5447,3.6685,3.8617,3.8748,3.8605,3.816,3.5521,3.3452,3.1813,2.9355,2.8213,2.8079,2.7114,2.6962,2.7334,2.6877,2.6691,0.0,0.0,0.0,0.0,0.0,0.0,0.0,0.0,3.2628,3.2805,3.2898,3.3071,3.3121,3.2639,3.2501,3.2658,3.3459,3.4972,3.6532,3.7328,3.8261,3.9203,4.001,4.0382,4.0999,4.264,4.3372,4.4036,4.5103,4.7982,5.0029,4.949,5.0548,5.1279,5.077,5.0423,5.0327,5.0654,5.0712,5.0712,5.0712,5.0712,5.0712,5.0712,5.0712,5.0712,5.0712,5.0712,5.0712,5.0712,5.0712,5.0712,5.0712,5.0712,5.0712,5.0712,5.0712,5.0712,5.0712,5.0712,5.0712,5.0712,5.0712,5.0712,5.0712,5.0712,5.0712,5.0712,5.0712,5.0712,5.0712,5.0712,5.0712,5.0702,0.0,0.0,0.0,0.0,0.0,0.0,0.0,0.0,0.0,0.0,0.0,0.0,0.0,0.0,0.0,0.0,0.0,0.0,2.6691,2.6573,2.7128,2.8569,2.9567,3.1376,3.4083,3.6527,3.8313,3.9424,3.8733,3.7818,3.6662,3.4488,3.3055,3.2224,2.9659,2.8958,2.9602,2.8079,2.7723,2.8094,2.7351,2.7046,0.0,0.0,0.0,0.0,0.0,0.0,0.0,0.0,3.1644,3.1596,3.2362,3.2371,3.2129,3.2129,3.2281,3.2529,3.2972,3.4412,3.6062,3.7136,3.8282,3.9478,4.0802,4.1792,4.3009,4.5046,4.5558,4.5992,4.7069,4.8702,4.976,4.9452,5.0587,5.1337,5.0789,5.0712,5.0712,5.0712,5.0712,5.0712,5.0712,5.0712,5.0712,5.0712,5.0712,5.0712,5.0712,5.0712,5.0712,5.0712,5.0712,5.0712,5.0712,5.0712,5.0712,5.0712,5.0712,5.0712,5.0712,5.0712,5.0712,5.0712,5.0712,5.0712,5.0712,5.0712,5.0712,5.0712,5.0712,5.0712,5.0712,5.0712,5.0614,5.0472,0.0,0.0,0.0,0.0,0.0,0.0,0.0,0.0,0.0,0.0,0.0,0.0,0.0,0.0,0.0,0.0,0.0,0.0,2.6674,2.6262,2.6542,2.7739,2.9261,3.1123,3.3322,3.6315,3.8179,3.8789,3.8032,3.6557,3.4383,3.3697,3.3043,3.2323,3.0794,3.0531,3.1089,2.9636,2.8993,2.8942,2.8146,2.7807,2.7722,0.0,0.0,0.0,0.0,0.0,0.0,0.0,3.0431,3.0837,3.1195,3.1317,3.1317,3.1283,3.1773,3.2601,3.3986,3.402,3.444,3.7846,3.812,3.819,4.0579,4.1385,4.2441,4.5257,4.6407,4.7173,4.7971,4.8125,4.8413,4.926,5.0135,5.0693,5.0712,5.0712,5.0712,5.0712,5.0712,5.0712,5.0712,5.0712,5.0712,5.0712,5.0712,5.0712,5.0712,5.0712,5.0712,5.0712,5.0712,5.0712,5.0712,5.0712,5.0712,5.0712,5.0712,5.0712,5.0712,5.0712,5.0712,5.0712,5.0712,5.0712,5.0712,5.0712,5.0712,5.0712,5.0712,5.0712,5.0683,5.0683,5.0432,5.0092,0.0,0.0,0.0,0.0,0.0,0.0,0.0,0.0,0.0,0.0,0.0,0.0,0.0,0.0,0.0,0.0,0.0,0.0,2.6691,2.6573,2.664,2.7012,2.8501,2.9636,3.0296,3.322,3.5827,3.8103,3.6851,3.5353,3.3689,3.353,3.3061,3.2312,3.1857,3.1481,3.1089,2.9636,2.9314,2.9668,2.8331,2.7807,2.7773,0.0,0.0,0.0,0.0,0.0,0.0,0.0,0.0,0.0,3.1476,3.1945,3.2024,3.1476,3.1842,3.2406,3.2262,3.4001,3.6098,3.7102,3.9561,4.1816,4.2208,4.3035,4.46,4.7677,4.8989,4.9452,4.9086,4.9597,4.9917,4.9461,5.0214,5.0805,5.0712,5.0712,5.0712,5.0712,5.0712,5.0712,5.0712,5.0712,5.0712,5.0712,5.0712,5.0712,5.0712,5.0712,5.0712,5.0712,5.0712,5.0712,5.0712,5.0712,5.0712,5.0712,5.0712,5.0712,5.0712,5.0712,5.0712,5.0712,5.0712,5.0712,5.0712,5.0712,5.0712,5.0712,5.0712,5.0534,5.0272,5.0272,5.0012,4.965,0.0,0.0,0.0,0.0,0.0,0.0,0.0,0.0,2.686,2.73,2.735,2.735,0.0,0.0,0.0,2.6725,2.6539,2.6487,2.6691,2.6539,2.6521,2.6691,2.7858,2.9076,3.0279,3.2341,3.4118,3.5616,3.5317,3.4406,3.2984,3.3894,3.4086,3.3609,3.3952,3.3769,3.3137,3.1654,3.1221,3.1422,3.0197,2.9592,2.9435,0.0,0.0,0.0,0.0,0.0,0.0,0.0,0.0,0.0,3.1415,3.156,3.1459,3.2122,3.283,3.3593,3.4473,3.6181,3.7997,3.9178,4.1019,4.2802,4.3758,4.4919,4.6342,4.8292,4.949,5.0125,4.9952,5.0168,5.0287,4.998,5.0466,5.0859,5.0721,5.0712,5.0712,5.0712,5.0712,5.0712,5.0712,5.0712,5.0712,5.0712,5.0712,5.0712,5.0712,5.0712,5.0712,5.0712,5.0712,5.0712,5.0712,5.0712,5.0712,5.0712,5.0712,5.0712,5.0712,5.0712,5.0712,5.0712,5.0712,5.0712,5.0712,5.0712,5.0712,5.0683,5.0514,5.0325,5.008,4.9924,4.9603,4.9234,0.0,0.0,0.0,0.0,0.0,0.0,0.0,2.6691,2.6691,2.6691,2.6691,2.6691,0.0,0.0,0.0,2.6691,2.6314,2.6244,2.6674,2.6297,2.6262,2.6674,2.7486,2.9228,3.2039,3.2763,3.2763,3.2107,3.3626,3.3613,3.2158,3.4506,3.5481,3.5329,3.6265,3.6387,3.579,3.438,3.3663,3.3419,3.269,3.2174,3.1812,3.1512,0.0,0.0,0.0,0.0,0.0,0.0,0.0,0.0,3.1146,3.0657,3.0252,3.2742,3.4111,3.5487,3.8519,3.9259,3.982,4.2586,4.2353,4.2165,4.5043,4.6693,4.7662,4.7739,4.8708,4.976,5.0558,5.0149,4.9939,5.0596,5.0814,5.0859,5.0721,5.0712,5.0712,5.0712,5.0712,5.0712,5.0712,5.0712,5.0712,5.0712,5.0712,5.0712,5.0712,5.0712,5.0712,5.0712,5.0712,5.0712,5.0712,5.0712,5.0712,5.0712,5.0712,5.0673,5.0653,5.0683,5.0712,5.0712,5.0712,5.0712,5.0712,5.0712,5.0673,5.0614,5.0249,5.0056,4.9949,4.9575,4.9187,4.8864,0.0,0.0,0.0,0.0,0.0,0.0,2.6641,2.6691,2.6691,2.6691,2.6691,2.6691,2.6691,2.6691,0.0,2.6691,2.6607,2.659,2.6691,2.6607,2.659,2.6691,2.8011,2.9313,3.0548,3.0734,3.0734,3.0581,3.2628,3.2594,3.0649,3.4011,3.4675,3.3106,3.5013,3.4712,3.27,3.177,3.1533,3.1758,3.1013,3.1034,3.1428,3.0747,3.0632,0.0,0.0,0.0,0.0,0.0,0.0,0.0,3.1146,3.1206,3.1022,3.0974,3.288,3.4973,3.5086,3.7363,4.0026,4.1299,4.2738,4.4011,4.4685,4.6477,4.8183,4.8875,4.9769,5.0481,5.0673,5.0651,5.0627,5.0692,5.0814,5.0859,5.0721,5.0712,5.0712,5.0712,5.0712,5.0712,5.0712,5.0712,5.0712,5.0712,5.0712,5.0712,5.0712,5.0712,5.0712,5.0712,5.0712,5.0712,5.0712,5.0712,5.0712,5.0712,5.0712,5.0544,5.0249,5.0554,5.0712,5.0712,5.0712,5.0712,5.0712,5.0712,5.0504,5.0225,5.0135,4.9714,4.9155,4.9059,4.8779,4.8421,0.0,0.0,0.0,0.0,0.0,0.0,0.0,0.0,2.7135,2.6742,2.6691,2.6691,2.6691,2.6691,0.0,0.0,2.6691,2.6691,2.6691,2.6691,2.686,2.7198,2.7994,2.8789,2.955,2.9193,2.899,2.899,3.0548,3.0886,3.0176,3.3148,3.3931,3.2882,3.4404,3.4155,3.2545,3.1795,3.1864,3.2469,3.2069,3.2056,3.2243,3.201,3.1488,3.0924,3.1502,0.0,0.0,0.0,0.0,0.0,0.0,0.0,3.0393,3.1115,3.2803,3.4747,3.6303,3.856,4.0763,4.1956,4.3122,4.4089,4.4498,4.6121,4.7759,4.8606,4.9798,5.0712,5.0712,5.0805,5.0859,5.0712,5.0814,5.0859,5.0721,5.0712,5.0712,5.0712,5.0712,5.0712,5.0712,5.0712,5.0614,5.0421,5.0594,5.0614,5.0421,5.0604,5.0712,5.0712,5.0712,5.0712,5.0712,5.0504,5.041,5.041,5.0225,5.0019,4.9813,5.0031,5.0237,5.041,5.041,5.041,5.041,5.041,5.0171,4.9787,4.9603,4.928,4.888,4.8692,4.8477,4.8306,0.0,0.0,0.0,0.0,0.0,0.0,0.0,0.0,0.0,2.6775,2.6691,2.6691,2.6691,2.6691,2.6691,0.0,0.0,0.0,2.6691,2.6691,2.7063,2.7861,2.7895,2.8218,2.8881,2.8116,2.7691,2.7604,2.8264,2.9128,3.014,3.2374,3.3339,3.3237,3.3846,3.3645,3.2843,3.2118,3.2268,3.2981,3.3128,3.3063,3.2915,3.3113,3.2155,3.0736,3.1082,3.1195,3.1329,3.2271,0.0,0.0,0.0,0.0,2.939,3.139,3.2761,3.4302,3.7551,3.9551,4.1095,4.2855,4.3293,4.3492,4.4215,4.5557,4.6951,4.7894,4.949,5.0712,5.0712,5.0791,5.0839,5.0721,5.0799,5.0839,5.0721,5.0712,5.0712,5.0712,5.0712,5.0712,5.0712,5.0712,5.0534,5.0135,5.0472,5.0514,5.0116,5.0483,5.0712,5.0712,5.0712,5.0663,5.0604,5.0394,5.0201,4.9987,4.9589,4.9401,4.9386,4.9326,4.9547,5.0006,5.0006,5.0006,5.0006,5.0006,4.976,4.9356,4.9027,4.8846,4.8761,4.8421,4.8306,4.8306,0.0,0.0,0.0,0.0,0.0,0.0,0.0,0.0,0.0,0.0,2.6691,2.6691,2.6691,2.6691,2.6691,2.6691,2.6116,2.6031,2.6657,0.0,0.0,2.8265,2.8316,2.8368,2.8472,2.7762,2.7189,2.6843,2.6945,2.8061,3.014,3.2374,3.3051,3.2462,3.2547,3.1806,3.0416,2.9735,2.952,2.9702,3.0411,3.1066,3.156,3.0931,3.0503,3.0283,3.0332,3.0356,3.0595,3.2087,3.1518,0.0,0.0,0.0,2.906,2.939,3.1041,3.2742,3.2577,3.5716,3.957,4.1882,4.2884,4.3341,4.3441,4.4671,4.622,4.7778,4.949,5.0712,5.0712,5.0721,5.0731,5.0693,5.0721,5.0731,5.0693,5.0712,5.0712,5.0712,5.0712,5.0712,5.0712,5.0712,5.0534,5.0135,5.0472,5.0514,5.0116,5.0483,5.0712,5.0712,5.0712,5.0534,5.0183,5.0829,5.0614,4.9594,4.9171,4.8996,4.898,4.8622,4.8864,4.9575,4.9575,4.9575,4.9575,4.9575,4.9341,4.8961,4.893,4.8692,4.8383,4.8325,4.8306,4.8306,0.0,0.0,0.0,0.0,0.0,0.0,0.0,0.0,0.0,0.0,0.0,2.6691,2.6691,2.6691,2.6522,2.6116,2.5795,2.5558,2.5472,2.6069,2.665,2.7149,2.7781,2.7905,2.7455,2.6678,2.619,2.6021,2.6258,2.7502,2.974,3.1407,3.2205,3.2259,3.1427,3.0563,2.9617,2.8074,2.7917,2.867,2.8597,2.9984,3.1898,3.0179,3.0099,3.0687,2.9329,2.8851,2.9035,3.0179,3.0106,2.9666,3.0467,0.0,0.0,0.0,3.0069,3.1788,3.4169,3.6707,3.9276,4.1699,4.1957,4.1868,4.2813,4.3866,4.5112,4.6749,4.824,4.9529,5.0519,5.0712,5.0712,5.0712,5.0712,5.0712,5.0712,5.0712,5.0712,5.0712,5.0712,5.0712,5.0712,5.0712,5.0534,5.0135,5.026,5.0183,4.9787,4.9936,5.0031,5.0031,5.0031,4.9936,4.976,5.0329,5.0271,4.9555,4.938,4.9048,4.855,4.8383,4.8622,4.9155,4.9155,4.9155,4.9155,4.9155,4.893,4.8568,4.8568,4.8458,4.8306,4.8306,4.8306,4.8306,0.0,0.0,0.0,0.0,0.0,0.0,0.0,0.0,0.0,0.0,0.0,2.6505,2.6505,0.0,0.0,0.0,2.5439,2.5084,2.4541,2.5382,2.6028,2.6339,2.7222,2.7348,2.657,2.5878,2.5424,2.52,2.5516,2.6977,2.9438,3.0634,3.1681,3.253,3.1038,3.0026,2.9333,2.7322,2.719,2.8337,2.8316,2.9901,3.2184,3.1269,3.1636,3.2296,2.9671,2.8851,2.9017,2.9005,2.9005,2.9133,2.9941,2.9647,0.0,0.0,0.0,3.0265,3.4738,3.6391,3.7533,4.0377,4.0525,4.0426,4.2108,4.2982,4.3994,4.5916,4.7016,4.8126,4.9731,5.0231,5.0442,5.0654,5.0712,5.0712,5.0712,5.0712,5.0712,5.0712,5.0614,5.0544,5.0544,5.0544,5.0336,4.9827,4.9987,4.9885,4.9371,4.9445,4.9489,4.9489,4.9489,4.9445,4.9356,4.975,4.9843,4.961,4.961,4.9132,4.8306,4.8306,4.8458,4.8744,4.8744,4.8744,4.8744,4.8744,4.8568,4.8306,4.8306,4.8306,4.8306,4.8306,4.8306,4.8306,0.0,0.0,0.0,0.0,0.0,0.0,0.0,0.0,0.0,0.0,0.0,2.6049,2.6049,2.5816,2.5642,2.5592,2.4965,2.4541,2.4491,2.4854,2.5572,2.6715,2.7064,0.0,2.6158,2.5772,2.5192,2.4365,2.4522,2.6225,2.9438,3.0634,3.1968,3.3288,3.1799,3.0502,2.93,2.7845,2.7625,2.8371,3.0247,3.1171,3.1792,3.4914,3.6069,3.5624,3.2388,3.1696,3.2014,2.9757,2.9005,2.9133,2.9941,2.9647,2.9005,0.0,0.0,0.0,3.0815,3.1745,3.2737,3.6758,3.8465,3.9596,4.1269,4.1948,4.2967,4.5719,4.6339,4.6762,4.8001,4.8913,4.974,5.0577,5.0712,5.0712,5.0712,5.0712,5.0712,5.0712,5.0358,5.0135,5.0135,5.0135,4.9813,4.9011,4.9673,4.976,4.8961,4.9295,4.9489,4.9489,4.9489,4.9311,4.8947,4.94,4.9612,4.961,4.961,4.9132,4.8306,4.8306,4.8306,4.8344,4.8344,4.8344,4.8344,4.8344,4.8325,4.8306,4.8306,4.8306,4.8306,4.8306,4.8306,4.8306,0.0,0.0,0.0,0.0,0.0,0.0,0.0,0.0,0.0,0.0,0.0,0.0,0.0,2.6184,2.5913,2.4982,2.422,2.4,2.4457,2.5296,2.5747,2.5705,2.6969,2.6822,2.5057,2.5362,2.4683,2.2888,2.4195,2.567,2.7333,2.9478,3.0784,3.1292,3.1224,3.0963,3.0365,2.7453,2.6883,2.811,2.9955,3.198,3.4087,3.5742,3.7035,3.7589,3.4745,3.2908,3.1696,3.0834,2.9861,2.8968,2.8723,2.8466,2.8136,2.7611,2.742,2.7842,3.0044,3.0999,3.2003,3.4486,3.6214,3.7733,3.9372,4.0807,4.235,4.4387,4.5034,4.5561,4.6732,4.8288,4.949,4.9798,5.0346,5.0712,5.0712,5.0483,5.0306,5.0306,4.9962,4.9719,4.9719,4.9719,4.9608,4.9311,4.9307,4.9199,4.8913,4.8796,4.8728,4.8728,4.8728,4.8935,4.9344,4.9505,4.9867,5.0362,4.9849,4.9445,4.9114,4.8563,4.8306,4.8306,4.8306,4.8306,4.8306,4.8306,4.8306,4.8306,4.8306,4.8306,4.8306,4.8306,4.8306,4.8306,0.0,0.0,0.0,0.0,0.0,0.0,0.0,0.0,2.4467,2.4715,0.0,0.0,0.0,0.0,2.6573,2.5354,2.4338,2.4085,2.4829,2.5453,2.5707,2.549,2.6497,2.6357,2.4794,2.5169,2.4398,2.2479,2.407,2.5272,2.6141,2.8304,2.9599,3.0108,3.0074,3.048,3.1007,2.8151,2.7722,2.9153,3.171,3.3548,3.51,3.7792,3.8814,3.8606,3.6866,3.5206,3.3807,3.3545,3.2742,3.1568,2.9934,2.8484,2.7236,2.6429,2.6759,2.7567,2.8374,2.9377,3.0705,3.2852,3.4107,3.5643,3.8918,4.0314,4.1514,4.3741,4.4401,4.484,4.5592,4.7075,4.8414,4.9092,4.9688,5.0117,5.0286,5.0068,4.9898,4.9898,4.9547,4.9295,4.9295,4.9295,4.9234,4.911,4.898,4.8829,4.871,4.8439,4.8306,4.8306,4.8306,4.8581,4.917,4.9463,4.9719,4.9958,4.9682,4.9427,4.9132,4.8563,4.8306,4.8306,4.8306,4.8306,4.8306,4.8306,4.8306,4.8306,4.8306,4.8306,4.8306,4.8306,4.8172,4.8015,0.0,0.0,0.0,0.0,0.0,0.0,0.0,0.0,2.4658,2.5313,0.0,0.0,0.0,0.0,0.0,2.6759,2.5388,2.488,2.5592,2.527,2.5389,2.616,0.0,0.0,2.5433,2.5226,2.4462,2.313,2.4044,2.5031,2.6055,2.7215,2.8568,2.9939,2.8501,2.9077,3.1046,2.9954,3.017,3.157,3.5598,3.5918,3.4673,4.1288,4.176,3.8915,3.8912,3.8872,3.8689,3.7896,3.7547,3.685,3.3513,2.9739,2.641,2.5595,2.5952,2.6429,0.0,0.0,0.0,3.1647,3.2064,3.3394,3.9839,4.027,4.0294,4.3756,4.4453,4.4453,4.4561,4.5221,4.6384,4.8357,4.8722,4.8897,4.9377,4.9414,4.9418,4.9437,4.9086,4.8861,4.888,4.888,4.8709,4.8344,4.8657,4.8709,4.8325,4.8306,4.8306,4.8306,4.8306,4.8306,4.8306,4.9132,4.9132,4.8361,4.9095,4.9077,4.8343,4.8324,4.8306,4.8306,4.8306,4.8306,4.8306,4.8306,4.8306,4.8306,4.8306,4.8306,4.8306,4.8306,4.7917,4.7406,0.0,0.0,0.0,0.0,0.0,2.4783,2.4446,2.4732,2.5052,0.0,0.0,0.0,2.7221,2.7533,2.7503,2.6759,2.6336,2.6167,2.6387,2.6282,2.6092,2.5784,2.6135,2.563,2.4016,2.4942,2.4242,2.1747,2.3595,2.4367,2.4185,2.6114,2.7232,2.7673,2.8613,2.9076,2.9094,2.7724,2.8938,3.1984,3.4321,3.6146,3.7941,4.203,4.3815,4.4099,4.3961,4.28,4.1277,4.1038,3.8615,3.4912,3.0522,2.7567,2.5576,2.4768,2.5511,2.6429,2.5613,0.0,0.0,0.0,0.0,0.0,3.3799,3.4633,3.6,4.0495,4.0947,4.1297,4.3716,4.4348,4.4878,4.6011,4.6976,4.7615,4.7748,4.7511,4.7557,4.814,4.7839,4.7831,4.8403,4.8477,4.8421,4.8306,4.8402,4.8421,4.8306,4.8306,4.8306,4.8306,4.8306,4.8306,4.8306,4.8545,4.8857,4.9243,4.882,4.8838,4.9225,4.86,4.8306,4.8306,4.8306,4.8306,4.8306,4.8306,4.8306,4.8306,4.8306,4.8306,4.8306,4.8306,4.7917,4.7406,0.0,0.0,2.5288,2.4912,2.5863,2.655,2.6104,2.6258,2.6435,0.0,0.0,0.0,2.8801,2.9313,2.9153,2.7875,2.7204,2.6719,2.6349,2.6049,2.5816,2.5609,2.571,2.532,2.434,2.5169,2.4458,2.2121,2.4034,2.4408,2.3427,2.5355,2.6082,2.5844,2.7066,2.766,2.7652,2.6251,2.8115,3.23,3.5836,3.7685,3.8764,4.2917,4.4309,4.4232,4.5462,4.4342,4.2561,4.425,4.113,3.5866,3.2027,2.9017,2.6612,2.5136,2.6154,2.7508,2.6345,2.6964,2.7906,2.7785,0.0,0.0,3.3628,3.4275,3.5512,4.0918,4.1361,4.1414,4.341,4.3788,4.3844,4.3973,4.4615,4.5455,4.6448,4.6394,4.6433,4.6897,4.6727,4.6911,4.7718,4.7791,4.7938,4.8269,4.8306,4.8306,4.8306,4.8306,4.8306,4.8306,4.8306,4.8306,4.8306,4.8306,4.8545,4.904,4.8545,4.8563,4.904,4.8526,4.8306,4.8306,4.8306,4.8306,4.8306,4.8306,4.8306,4.8306,4.8306,4.8306,4.8304,4.836,4.7781,4.7008,0.0,0.0,2.6632,2.6708,2.7863,2.8759,2.8549,2.8539,2.8503,0.0,2.9049,3.0025,3.141,3.209,3.158,2.9514,2.8023,2.6848,2.5983,2.5231,2.5078,2.5695,2.5084,2.5015,2.5592,2.5761,2.5084,2.3511,2.4847,2.4847,2.3663,2.4831,2.505,2.4506,2.4846,2.5576,2.6482,2.5757,2.8048,3.2676,3.811,3.9386,3.8594,4.3791,4.4232,4.2415,4.5168,4.4782,4.3479,4.6801,4.4048,3.8744,3.5885,3.2619,2.928,2.6586,2.7687,2.945,2.7755,2.7858,2.8567,2.9154,2.8388,0.0,3.5552,3.5766,3.6189,4.1789,4.231,4.1903,4.2341,4.2561,4.2415,4.1625,4.1882,4.2947,4.5186,4.5424,4.5461,4.5736,4.5681,4.5975,4.6874,4.6966,4.7296,4.8122,4.8251,4.8306,4.8306,4.8306,4.8306,4.8306,4.8306,4.8306,4.8306,4.8306,4.8306,4.8306,4.8306,4.8306,4.8306,4.8306,4.8306,4.8306,4.8306,4.8306,4.8306,4.8306,4.8267,4.8191,4.8191,4.8134,4.8107,4.8331,4.752,4.6321,2.4605,2.6069,2.7325,2.7396,2.9307,3.0635,3.0082,3.0349,3.0597,3.0614,3.1739,3.2882,3.3761,3.3457,3.2353,3.0273,2.8801,2.7627,2.6738,2.551,2.5294,2.6438,2.6336,2.6065,2.5609,2.6759,2.637,2.4288,2.4575,2.488,2.5152,2.4255,2.4069,2.4506,2.4922,2.5005,2.504,2.7653,3.0579,3.3547,3.4752,3.7698,4.1625,4.403,4.6195,4.7921,4.7865,4.7535,4.6948,4.5792,4.414,4.168,3.66,3.4931,3.4009,2.9592,3.0202,3.1938,3.0319,3.0152,3.0157,2.8962,2.8984,0.0,2.7885,2.842,2.9796,3.2053,3.239,3.2975,3.5275,3.6798,3.7422,3.6564,3.9187,4.1735,4.2855,4.2451,4.2746,4.4709,4.436,4.4525,4.5993,4.614,4.6471,4.7259,4.792,4.8306,4.8306,4.8306,4.8306,4.8306,4.8306,4.8306,4.8306,4.8306,4.8306,4.8306,4.8306,4.8306,4.8306,4.8306,4.8306,4.8306,4.8306,4.8306,4.8306,4.8306,4.8015,4.7572,4.7572,4.7259,4.6845,4.7524,4.6878,4.576,2.5475,2.7589,2.9464,2.9539,3.1132,3.2412,3.248,3.2696,3.2713,3.2341,3.3592,3.437,3.3998,3.3947,3.2959,3.0521,2.9066,2.779,2.6636,2.5549,2.5188,2.573,2.6017,2.6319,2.6691,2.7046,2.6708,2.5608,2.522,2.4864,2.4492,2.412,2.4729,2.6099,2.4981,2.5379,2.6915,2.7189,2.867,3.1247,3.5659,3.9882,4.3718,4.5736,4.7517,4.8893,4.8471,4.8306,4.7956,4.564,4.3725,4.1814,3.9062,3.7609,3.617,3.2485,3.3098,3.4476,3.2056,3.1599,3.1504,3.0258,2.9623,0.0,0.0,2.8562,2.9333,3.2822,3.2137,3.1672,3.4179,3.4534,3.4449,3.4399,3.7165,3.9313,3.9313,4.1038,4.2745,4.3956,4.3736,4.3956,4.5186,4.5296,4.581,4.7003,4.7461,4.7865,4.8288,4.8306,4.8306,4.8306,4.8306,4.8306,4.8306,4.8306,4.8306,4.8306,4.8306,4.8306,4.8306,4.8306,4.8306,4.8306,4.8306,4.8132,4.7856,4.7856,4.7302,4.6519,4.715,4.6999,4.6448,4.6941,4.642,4.5563,2.642,2.8799,3.1023,3.1055,3.2348,3.3607,3.4273,3.4432,3.4387,3.41,3.5211,3.5588,3.4376,3.4645,3.3885,3.1363,2.9816,2.8417,2.7125,2.6058,2.5571,2.5857,2.5832,2.6573,2.8213,2.7368,2.6843,2.6691,2.5828,2.4847,2.3833,2.4,2.5169,2.7097,2.5411,2.6182,2.8643,2.68,2.7424,3.0313,3.7627,4.155,4.33,4.6341,4.7643,4.7921,4.8563,4.8595,4.8018,4.5898,4.3596,4.1498,4.0854,3.9738,3.8025,3.4761,3.5653,3.6979,3.3599,3.3035,3.3028,3.1522,3.0491,3.0032,0.0,0.0,0.0,3.4037,3.268,3.1318,3.3064,3.2194,3.1439,3.2082,3.4518,3.6097,3.5454,3.908,4.1924,4.2286,4.2745,4.3243,4.3778,4.3687,4.4364,4.6169,4.6084,4.6525,4.7841,4.801,4.8141,4.8306,4.8306,4.8306,4.8306,4.8306,4.8306,4.8306,4.8306,4.8306,4.8306,4.8306,4.8306,4.8306,4.8306,4.7957,4.7406,4.7406,4.6659,4.5597,4.6635,4.6618,4.6077,4.6316,4.5958,4.5361,2.6583,2.8052,2.9587,2.9464,3.1646,3.3436,3.352,3.4074,3.4945,3.6254,3.7127,3.7547,3.7323,3.6785,3.5849,3.4333,3.2279,3.0751,3.0069,2.7975,2.765,2.9593,2.7692,2.7604,2.9803,2.8415,2.735,2.6691,2.532,2.488,2.5321,2.3444,2.3376,2.4948,2.6606,2.7026,2.6623,2.9031,3.2371,3.6214,3.7979,3.79,3.7295,4.2577,4.524,4.6544,4.9462,4.9672,4.8279,4.641,4.4781,4.2843,3.9106,4.0198,4.1642,3.5569,3.6874,3.9413,3.5474,3.5316,3.5278,3.1252,3.1934,3.2033,2.6135,0.0,2.7525,2.5735,0.0,2.5661,2.5739,0.0,0.0,2.6329,2.9579,3.2058,3.1966,3.4071,3.6252,3.7976,4.0065,4.1202,4.0764,4.0059,4.0704,4.3276,4.2413,4.3176,4.6359,4.6975,4.7553,4.8288,4.8306,4.8306,4.8306,4.8306,4.8306,4.8306,4.8306,4.8306,4.8306,4.8306,4.8306,4.8306,4.8306,4.7957,4.7406,4.7406,4.6659,4.5494,4.5648,4.5346,4.4888,4.5569,4.5354,4.4811,2.742,2.893,3.0286,2.9808,3.1052,3.256,3.3846,3.5791,3.733,3.7973,3.8717,3.8816,3.787,3.6755,3.5987,3.5818,3.3828,3.2175,3.1269,3.009,2.9021,2.8071,2.8042,2.8324,2.8926,2.7766,2.7012,2.6691,2.4795,2.4034,2.4289,2.2922,2.4255,2.7757,2.7773,2.9471,3.2261,3.1608,3.1994,3.3204,3.5085,3.4879,3.4447,4.3802,4.7927,4.8873,4.9807,5.0038,4.9507,4.7111,4.4632,4.2494,4.2222,4.0969,3.9339,3.7878,3.8221,3.8384,3.5251,3.5631,3.6054,3.2389,3.2321,3.1919,2.7251,2.629,2.6355,2.6206,0.0,0.0,0.0,0.0,0.0,0.0,2.7215,2.8713,2.7813,3.0749,3.3933,3.6498,3.7104,3.7905,3.9373,3.86,3.9397,4.2743,4.0911,4.1245,4.4893,4.5692,4.6398,4.7124,4.7561,4.7937,4.8287,4.8306,4.8114,4.7777,4.7777,4.7554,4.7198,4.7198,4.7198,4.7198,4.7198,4.6864,4.6305,4.6305,4.5775,4.4971,4.4971,4.4814,4.4649,4.4942,4.4886,4.4649,2.8327,2.9679,3.0653,2.971,3.0468,3.1867,3.388,3.6214,3.7925,3.832,3.8849,3.897,3.8379,3.7236,3.6851,3.7737,3.6197,3.4603,3.3147,3.2437,3.1228,2.9277,2.8923,2.8924,2.931,2.7437,2.6353,2.6185,2.4312,2.3613,2.3985,2.3038,2.4832,2.8855,2.877,3.1157,3.5176,3.3775,3.329,3.3613,3.5514,3.6602,3.7933,4.5526,4.9549,5.1058,5.033,5.0313,5.0188,4.7639,4.464,4.2246,4.3886,4.1774,3.8904,3.9823,3.9993,3.9198,3.6056,3.6454,3.6767,3.2682,3.1878,3.121,2.7816,2.651,2.6288,2.7332,2.6221,0.0,0.0,0.0,2.3273,2.4325,0.0,2.6169,2.4824,2.7538,3.0672,3.3362,3.3774,3.4764,3.7167,3.5847,3.6632,4.0986,3.8585,3.8956,4.3611,4.4391,4.5173,4.6233,4.6625,4.7129,4.7759,4.7779,4.7554,4.7128,4.7128,4.6887,4.6407,4.6407,4.6407,4.6407,4.6407,4.6063,4.5511,4.5511,4.5125,4.4615,4.4615,4.4615,4.4615,4.4615,4.4615,4.4615,2.916,2.9786,2.9869,2.8412,2.9847,3.1715,3.322,3.4117,3.516,3.6595,3.679,3.7605,3.9709,3.9253,3.9351,4.0762,4.0201,3.8845,3.6583,3.5155,3.4949,3.6226,3.1044,2.9468,3.2293,2.8062,2.551,2.4856,2.3888,2.4137,2.5507,2.4036,2.4222,2.5913,2.9482,3.119,3.1596,3.5137,3.8674,4.1914,4.2008,4.5416,5.0087,4.6517,4.8039,5.1975,5.1297,5.0614,4.9739,4.7909,4.5363,4.2781,4.1838,4.247,4.3122,4.0776,4.2371,4.3841,3.9068,3.8577,3.783,3.1151,3.0419,3.0213,2.5882,2.6409,2.7582,2.6794,2.754,2.8195,2.7661,2.6318,2.5114,2.4586,2.4776,0.0,0.0,2.4032,2.4958,2.6877,2.9935,3.2262,3.3203,3.0439,3.0929,3.6582,3.4335,3.5722,4.2672,4.3062,4.4028,4.6134,4.5659,4.5721,4.646,4.6478,4.6454,4.643,4.643,4.643,4.6407,4.6407,4.6407,4.6407,4.6407,4.6063,4.5511,4.5511,4.5125,4.4615,4.4615,4.4615,4.4615,4.4615,4.4615,4.4615,2.9426,3.017,3.0429,2.8934,2.969,3.114,3.3102,3.4895,3.634,3.7242,3.8716,3.9901,4.0551,4.0494,4.101,4.2388,4.1378,4.0194,3.9125,3.7513,3.6265,3.5428,3.2546,3.0978,3.1041,2.8989,2.6977,2.5016,2.4896,2.4673,2.4331,2.42,2.4914,2.6471,2.9736,3.2577,3.5052,3.7297,3.9259,4.0933,4.1914,4.4582,4.8111,4.9261,5.0712,5.2,5.1343,5.0952,5.0476,4.8895,4.7026,4.5493,4.6156,4.4501,4.248,4.3141,4.2905,4.2101,4.0459,4.1065,4.0726,3.4779,3.3631,3.2614,2.7535,2.7343,2.785,2.6486,2.7818,2.8849,2.7569,2.6378,2.5365,2.4615,2.4085,2.3148,0.0,2.1255,2.2154,2.4298,2.795,3.0197,3.0006,3.0139,3.1837,3.5707,3.4639,3.595,4.0817,4.1533,4.2347,4.3527,4.4301,4.5027,4.5675,4.6165,4.6192,4.579,4.579,4.5597,4.5205,4.5205,4.5205,4.5205,4.5205,4.5089,4.4906,4.4906,4.4786,4.4615,4.4615,4.4253,4.3756,4.3756,4.3756,4.3651,2.9522,3.0187,3.0576,2.9638,3.0054,3.1106,3.278,3.4699,3.6192,3.6812,3.8649,4.0254,4.1212,4.1193,4.1822,4.3553,4.2813,4.1547,3.9801,3.922,3.7992,3.5806,3.4626,3.3581,3.2624,3.0553,2.8534,2.6666,2.5676,2.5078,2.4837,2.486,2.554,2.681,2.9314,3.2496,3.6135,3.8413,4.0595,4.2625,4.4079,4.5879,4.7961,5.0424,5.0976,5.0467,5.0382,5.0517,5.0565,4.9611,4.829,4.7332,4.8823,4.6939,4.444,4.5864,4.5251,4.3883,4.2691,4.3149,4.2724,3.7741,3.6559,3.5231,2.9979,2.973,3.0049,2.8231,2.8885,2.9832,3.0015,2.7877,2.6051,2.5945,2.4561,2.2745,0.0,2.0595,2.1265,2.2462,2.5641,2.796,2.8561,2.8509,3.0311,3.4878,3.3795,3.5004,3.9737,4.0501,4.123,4.2133,4.2871,4.3575,4.422,4.4963,4.5155,4.4766,4.5041,4.4971,4.4615,4.4615,4.4412,4.4138,4.4138,4.396,4.368,4.368,4.368,4.368,4.368,4.332,4.2878,4.3185,4.3108,4.2754,2.9595,3.0,3.045,3.045,3.0914,3.1577,3.2428,3.3637,3.4754,3.5514,3.6847,3.8858,4.1773,4.1547,4.2051,4.4226,4.4524,4.2972,3.9147,4.0376,4.0183,3.7775,3.7293,3.7037,3.6892,3.2708,3.0201,2.9576,2.6324,2.5464,2.6847,2.6033,2.6031,2.6759,2.8316,3.1075,3.4793,3.8473,4.2692,4.6972,4.8426,4.9321,4.9849,4.9913,4.8912,4.7588,4.8675,4.9449,4.9947,5.0004,4.913,4.8306,4.9688,4.9575,4.8941,4.8753,4.9133,4.8913,4.5736,4.4892,4.392,3.9992,3.9091,3.7896,3.3092,3.3381,3.4039,3.1813,3.087,3.1356,3.4389,3.0575,2.7268,2.8142,2.5841,2.3317,2.1562,2.1854,2.204,2.1478,2.3272,2.5625,2.835,2.5659,2.664,3.3694,3.1765,3.3045,3.9415,3.9822,4.0523,4.195,4.1486,4.1542,4.2236,4.2926,4.3314,4.3337,4.408,4.4452,4.4468,4.4468,4.4035,4.3246,4.3246,4.2785,4.1997,4.1997,4.1997,4.1997,4.1997,4.1965,4.2029,4.2878,4.2614,4.1869,3.0211,3.144,3.2606,3.2606,3.1888,3.21,3.4432,3.5109,3.5762,3.6843,3.9373,4.1313,4.1981,4.3018,4.3901,4.4505,4.4587,4.4159,4.3113,4.2408,4.1875,4.1579,3.9613,3.846,3.823,3.5094,3.2487,3.0462,2.8708,2.7326,2.6378,2.6412,2.6522,2.6759,2.8316,3.1343,3.5481,3.8159,4.2506,4.7716,4.8629,4.8323,4.7476,4.877,4.8186,4.6941,4.901,4.9534,4.9329,4.9821,5.0119,5.0435,5.1307,5.1375,5.1067,5.0428,4.9931,4.928,4.7792,4.7388,4.6709,4.3883,4.2299,4.0524,3.6967,3.6583,3.6338,3.4119,3.4497,3.4459,3.1882,3.0229,2.8411,2.5872,2.4101,2.2988,2.2841,2.2053,2.2226,2.4239,2.4966,2.4763,2.334,2.6336,2.8941,3.0313,3.1732,3.4503,3.8959,3.7661,3.7943,4.0533,4.0976,4.1288,4.1474,4.1671,4.2007,4.251,4.21,4.2187,4.2676,4.2676,4.2552,4.2316,4.2316,4.2221,4.1997,4.1997,4.1997,4.1997,4.1997,4.1593,4.1046,4.128,4.0842,4.006,3.0881,3.2703,3.4472,3.481,3.4183,3.3937,3.4922,3.5143,3.5534,3.6489,3.8976,4.0748,4.1098,4.2517,4.3768,4.4542,4.4527,4.4044,4.3058,4.3028,4.2559,4.1439,4.1675,4.1419,4.0461,3.8128,3.5763,3.3398,3.0697,2.8586,2.7041,2.6798,2.6522,2.6302,2.818,3.0734,3.3977,3.887,4.3064,4.6616,4.8308,4.8417,0.0,4.8616,4.8401,4.7717,4.9088,4.9316,4.9063,4.9449,4.9838,5.0314,5.0964,5.1381,5.1425,5.0562,5.0234,4.9848,4.8636,4.8306,4.7976,4.6617,4.5406,4.3705,4.0563,3.9637,3.8828,3.6661,3.6182,3.5819,3.4679,3.153,2.7855,2.4093,2.3341,2.303,2.2502,2.229,2.2544,2.3562,2.4814,2.4577,2.1938,2.6488,2.9296,2.8535,3.0937,3.3778,3.6857,3.6772,3.7686,4.0028,3.99,3.9929,4.0203,3.989,4.0078,4.0766,4.0931,4.1197,4.1581,4.1853,4.1804,4.1445,4.1445,4.1213,4.0876,4.0876,4.0876,4.0876,4.0876,4.0569,4.0115,4.0115,3.9829,3.9388,3.1824,3.4007,3.6083,3.6688,3.6688,3.6222,3.5122,3.4983,3.5229,3.5823,3.7682,3.9263,4.0146,4.1358,4.2793,4.4377,4.4346,4.3426,4.1439,4.2993,4.2755,4.0013,4.333,4.4476,4.2855,4.0986,3.8833,3.6453,3.2248,2.9326,2.7686,2.6921,2.6201,2.5693,2.7774,2.9974,3.256,4.0164,4.4028,4.5246,4.7936,4.9001,4.9001,4.9001,4.9001,4.9001,4.9001,4.9001,4.9001,4.9001,4.9063,4.9226,4.9821,5.0554,5.104,5.0016,5.0216,5.0435,4.8765,4.823,4.8191,4.8191,4.7736,4.6514,4.3637,4.2449,4.1388,3.9348,3.7286,3.6649,3.9069,3.3237,2.6977,2.3566,2.3718,2.389,2.2807,2.334,0.0,0.0,0.0,0.0,2.2685,0.0,0.0,0.0,2.9448,3.1749,3.4353,3.6096,3.7908,3.9885,3.8776,3.8315,3.8745,3.806,3.8083,3.8727,3.9958,4.0563,4.069,4.1357,4.1247,4.0535,4.0535,4.008,3.9388,3.9388,3.9388,3.9388,3.9388,3.9388,3.9388,3.9388,3.9469,3.9544,3.397,3.5819,3.7286,3.6865,3.6707,3.6894,3.7721,3.7866,3.7884,3.7969,3.9972,4.1401,4.1398,4.2256,4.3151,4.4041,4.407,4.3891,4.3473,4.3788,4.3677,4.2953,4.3762,4.4024,4.3551,4.1524,3.8721,3.5117,3.2786,2.9567,2.5628,2.5745,2.5711,2.5642,2.664,3.0683,3.7026,4.1499,4.4914,4.7428,4.8562,4.9001,4.9001,4.9001,4.9001,4.9001,4.9001,4.9001,4.9001,4.9001,4.9359,4.985,4.9976,5.0885,5.1622,5.0131,5.0216,5.0435,4.8765,4.7937,4.7551,4.7551,4.7066,4.6289,4.5226,4.4436,4.3477,4.1946,4.0824,3.9374,3.684,3.2679,2.8989,2.7146,2.6478,2.7182,2.995,2.791,2.6505,0.0,0.0,2.7228,2.3566,0.0,0.0,0.0,0.0,2.9533,3.4252,3.3152,3.4427,3.899,3.8873,3.8493,3.8007,3.7233,3.7156,3.7842,3.7986,3.8304,3.8864,3.9561,3.9773,3.9646,3.9646,3.9538,3.9388,3.9388,3.9388,3.9388,3.9388,3.9388,3.9388,3.9388,3.9768,4.0232,3.714,3.8214,3.9017,3.9074,3.8637,3.8572,3.9545,3.9591,3.9298,3.8704,3.9929,4.0992,4.1317,4.1927,4.2771,4.3894,4.388,4.3855,4.3855,4.3697,4.3574,4.3503,4.4085,4.4143,4.3503,4.2678,4.0091,3.5625,3.3654,3.0402,2.6021,2.5454,2.5128,2.5152,2.8248,3.2036,3.6485,4.1779,4.4857,4.6346,4.824,4.9001,4.9001,4.9001,4.9001,4.9001,4.9001,4.9001,4.9001,4.9001,4.9449,4.9947,4.9593,5.0462,5.1354,5.0144,4.9774,4.9577,4.868,4.7692,4.6887,4.6887,4.6407,4.5858,4.5571,4.4992,4.4175,4.3112,4.1974,3.9808,3.526,3.2436,3.0374,2.9145,2.8103,2.8297,3.0767,2.9556,2.8551,0.0,0.0,0.0,0.0,0.0,0.0,0.0,0.0,0.0,3.4251,3.2757,3.3782,3.8184,3.7592,3.716,3.7174,3.6076,3.5856,3.6525,3.7128,3.7584,3.7913,3.8945,3.9104,3.8583,3.8583,3.8256,3.7762,3.8331,3.8907,3.9388,3.9388,3.9388,3.9454,3.9798,4.0127,4.0397,3.9742,4.0411,4.0946,4.1364,4.0927,4.0687,4.1119,4.1174,4.0736,3.9459,3.9791,4.0432,4.1224,4.1631,4.237,4.3717,4.3702,4.3598,4.3598,4.3406,4.3409,4.3591,4.4182,4.422,4.363,4.367,4.1438,3.6822,3.4742,3.1545,2.7306,2.575,2.5245,2.5879,3.0518,3.3912,3.6518,4.2211,4.497,4.5749,4.8054,4.9001,4.9001,4.9001,4.9001,4.9001,4.9001,4.9001,4.9001,4.9001,4.9359,4.9693,4.9152,4.9867,5.0709,4.9907,4.9384,4.8944,4.8514,4.744,4.6385,4.6269,4.5757,4.5294,4.5294,4.4961,4.4322,4.3334,4.1958,3.9394,3.4425,3.3117,3.226,3.0577,2.9553,2.9497,3.1021,3.0551,2.9918,0.0,0.0,0.0,2.7274,2.7502,0.0,0.0,0.0,0.0,3.3205,3.2595,3.3662,3.7017,3.6025,3.5595,3.5938,3.527,3.5175,3.5729,3.7165,3.7645,3.7317,3.8652,3.8589,3.7472,3.7472,3.6982,3.629,3.7098,3.7942,3.873,3.898,3.9142,3.932,3.9839,4.0375,4.0778,4.0155,4.172,4.2907,4.2297,4.2591,4.2863,4.2797,4.3351,4.3129,4.1383,4.122,4.1498,4.2198,4.2318,4.261,4.3311,4.3352,4.3358,4.3358,4.3299,4.3708,4.4624,4.3888,4.381,4.4624,4.3789,4.1663,3.8212,3.6114,3.2943,2.8754,2.6691,2.7087,2.97,3.2307,3.6491,4.1694,4.3752,4.6126,4.8612,4.8883,4.9001,4.9001,4.9001,4.9001,4.9001,4.9001,4.9001,4.9001,4.9001,4.9032,4.9077,4.9032,4.9521,4.9944,4.9125,4.9336,4.9485,4.809,4.7144,4.6421,4.5745,4.5142,4.4665,4.4665,4.4654,4.4164,4.263,4.1035,3.8754,3.4911,3.5741,3.5749,3.1899,3.1576,3.2606,3.4921,3.2324,3.0548,3.1493,0.0,0.0,2.7303,2.3132,0.0,0.0,2.7936,0.0,2.9801,3.0902,3.2558,3.4914,3.4858,3.4478,3.3787,3.5479,3.6327,3.6417,3.8317,3.8389,3.6916,3.8254,3.7947,3.6369,3.6369,3.6277,3.6198,3.633,3.6408,3.6604,3.7587,3.8303,3.8861,3.8866,4.0285,4.2046,4.1705,4.2488,4.3429,4.4059,4.3671,4.368,4.4919,4.4439,4.382,4.3477,4.2707,4.2426,4.3113,4.2712,4.2883,4.4082,4.3669,4.3795,4.4974,4.3935,4.3732,4.4774,4.3849,4.3771,4.4774,4.381,4.2168,3.9845,3.6461,3.3083,2.9698,2.9016,3.0632,3.4286,3.7891,4.0776,4.3122,4.541,4.741,4.894,4.8401,4.8513,4.9001,4.9001,4.9001,4.9001,4.9001,4.9001,4.9001,4.9001,4.9256,4.9534,4.9138,4.9462,4.9935,4.9595,4.9147,4.8635,4.8442,4.724,4.6003,4.5685,4.5099,4.4615,4.4615,4.4196,4.3643,4.2987,4.1209,3.9012,3.6613,3.5917,3.5599,3.519,3.3927,3.3738,3.5976,3.4618,3.3319,3.3186,0.0,3.1052,0.0,2.6699,2.5497,0.0,0.0,2.482,2.8767,2.9288,3.0304,3.2114,3.4136,3.4832,3.4114,3.5295,3.6282,3.7045,3.7838,3.7697,3.6827,3.7748,3.7144,3.5238,3.4609,3.4692,3.5278,3.5278,3.5668,3.6237,3.6682,3.7636,3.8783,3.843,3.9622,4.1303,4.302,4.3635,4.4447,4.5548,4.5305,4.5381,4.6633,4.5507,4.4591,4.4772,4.3679,4.3041,4.3516,4.3037,4.3234,4.4668,4.396,4.4204,4.6103,4.4713,4.4392,4.5561,4.4668,4.45,4.5277,4.456,4.347,4.2074,3.8503,3.5703,3.3669,3.2793,3.4399,3.8145,4.1233,4.3098,4.4059,4.6241,4.7589,4.8112,4.7456,4.7589,4.8225,4.8465,4.8576,4.8608,4.8892,4.9001,4.9001,4.9001,4.9299,4.9622,4.9152,4.9299,4.9693,4.9693,4.8984,4.8243,4.8283,4.7187,4.5923,4.5483,4.4976,4.4542,4.4281,4.3739,4.3139,4.2645,4.1001,3.9234,3.7946,3.6567,3.5957,3.6839,3.5681,3.4963,3.586,3.5528,3.4629,3.3056,3.2514,3.1901,3.09,2.8148,2.68,2.7675,2.4132,2.3997,2.8724,2.8899,2.9641,3.1315,3.3679,3.4771,3.4503,3.5403,3.6486,3.7704,3.759,3.725,3.6623,3.6476,3.5615,3.4191,3.3441,3.3513,3.4233,3.4233,3.465,3.5319,3.5818,3.6861,3.8104,3.7867,3.8894,4.0404,4.3822,4.5325,4.6469,4.6486,4.7851,4.8637,4.7704,4.6799,4.5834,4.4909,4.3912,4.3314,4.3314,4.329,4.3693,4.4699,4.4118,4.4419,4.609,4.5514,4.5814,4.749,4.6678,4.6251,4.6454,4.6288,4.5786,4.5048,4.3072,4.2019,4.1766,3.8253,3.8149,4.084,4.0831,4.2415,4.5115,4.5904,4.6208,4.6244,4.6208,4.6208,4.633,4.7273,4.7622,4.7737,4.8656,4.9001,4.9001,4.9001,4.9001,4.9001,4.9001,4.9001,4.9001,4.9001,4.9001,4.8663,4.7238,4.6832,4.643,4.4987,4.4615,4.4384,4.3502,4.3306,4.2816,4.108,4.001,3.92,3.8497,3.8362,3.7719,3.5818,3.6552,3.6686,3.4788,3.4518,3.3428,3.0512,2.6938,2.6145,2.9761,2.5047,2.4178,3.0013,2.8019,2.742,2.9472,3.0161,3.139,3.3395,3.3499,3.3829,3.4503,3.5965,3.7281,3.8392,3.811,3.7372,3.6144,3.4095,3.3154,3.3124,3.3124,3.3124,3.3124,3.3124,3.3111,3.329,3.4888,3.5907,3.6575,3.6981,3.8317,3.9754,4.3487,4.4522,4.5516,4.6166,4.7259,4.8161,4.8513,4.7189,4.6103,4.5798,4.493,4.4066,4.3369,4.329,4.3768,4.4898,4.4211,4.4531,4.649,4.5665,4.5412,4.6059,4.616,4.6304,4.6486,4.6322,4.6392,4.6795,4.3719,4.2186,4.2099,4.0979,4.1899,4.4507,4.45,4.5005,4.5834,4.541,4.5597,4.6138,4.5488,4.5634,4.6314,4.7239,4.7589,4.7721,4.8656,4.9001,4.9001,4.9001,4.9001,4.9001,4.9001,4.9001,4.9001,4.9001,4.8646,4.8156,4.7682,4.6819,4.579,4.4723,4.4075,4.3502,4.2614,4.1965,4.1213,4.006,3.9574,3.9313,3.9125,3.9095,3.8736,3.7644,3.7808,3.7704,3.6626,3.6118,3.5251,3.3638,3.2603,3.2226,3.272,2.9676,2.8308,2.9786,2.7006,2.6108,2.8124,3.0118,3.1256,3.145,3.3422,3.4336,3.4074,3.5111,3.6049,3.6902,3.6767,3.617,3.5129,3.3755,3.3124,3.3124,3.3124,3.3124,3.3124,3.3124,3.3124,3.3174,3.4051,3.5271,3.6458,3.6142,3.715,3.8604,4.329,4.4105,4.5095,4.6048,4.6662,4.7523,4.8798,4.7423,4.6314,4.6662,4.5905,4.5101,4.4479,4.409,4.4082,4.4547,4.4122,4.4523,4.6196,4.5676,4.5633,4.6317,4.6651,4.6881,4.7032,4.7161,4.7391,4.7712,4.5357,4.4236,4.4188,4.3516,4.4063,4.567,4.5306,4.5106,4.5069,4.4495,4.4555,4.5048,4.4457,4.4593,4.5253,4.6558,4.7054,4.7239,4.8545,4.9001,4.9001,4.9001,4.9001,4.894,4.8576,4.8465,4.8495,4.8571,4.8244,4.777,4.7212,4.6174,4.4996,4.42,4.3406,4.2583,4.1707,4.0826,4.006,3.9517,3.9388,3.9388,3.9388,3.9388,3.9239,3.8841,3.8781,3.8542,3.7868,3.7225,3.6142,3.4292,3.4019,3.3759,3.313,3.1753,3.115,3.1764,2.9894,2.925,3.0505,3.0717,3.1285,3.2347,3.402,3.493,3.4952,3.5115,3.5614,3.6517,3.5871,3.5061,3.4066,3.3398,3.3124,3.3124,3.3124,3.3124,3.3136,3.3307,3.3382,3.3458,3.4223,3.5194,3.6108,3.5907,3.6557,3.7461,4.329,4.4028,4.4968,4.5941,4.6103,4.6747,4.8625,4.7373,4.6539,4.7489,4.685,4.6279,4.6208,4.5431,4.4614,4.3889,4.3927,4.4412,4.536,4.5609,4.6312,4.7669,4.7838,4.7889,4.7889,4.8568,4.8523,4.7787,4.7586,4.7489,4.7373,4.5613,4.4774,4.4662,4.3732,4.329,4.329,4.329,4.329,4.329,4.329,4.329,4.3512,4.54,4.6103,4.633,4.8161,4.8798,4.8829,4.8892,4.8861,4.8656,4.7836,4.7556,4.7523,4.7673,4.7669,4.7332,4.5883,4.4893,4.4052,4.3303,4.2458,4.1609,4.0792,3.999,3.9388,3.9388,3.9388,3.9388,3.9388,3.9388,3.9388,3.9388,3.9388,3.9185,3.8556,3.7898,3.6342,3.3275,3.2318,3.1899,3.1854,3.1854,3.2781,3.5055,3.528,3.528,3.5235,3.175,3.1526,3.5385,3.5136,3.5447,3.6568,3.5709,3.5814,3.6866,3.5341,3.4079,3.3124,3.3124,3.3124,3.3124,3.3124,3.3106,3.3169,3.3684,3.3922,3.406,3.5082,3.5495,3.5558,3.6157,3.6405,3.6405,4.329,4.3472,4.395,4.4968,4.5116,4.5778,4.7655,4.6952,4.6539,4.7489,4.7423,4.6986,4.6279,4.6012,4.5377,4.4154,4.402,4.4237,4.4783,4.538,4.5872,4.621,4.728,4.7889,4.7889,4.7922,4.7507,4.6606,4.6546,4.6154,4.5431,4.502,4.4412,4.363,4.3409,4.329,4.329,4.329,4.329,4.329,4.329,4.329,4.3433,4.4684,4.5116,4.5285,4.6435,4.685,4.6952,4.7688,4.7456,4.6952,4.744,4.7088,4.6429,4.5972,4.5455,4.4805,4.396,4.3168,4.2366,4.1509,4.0672,3.997,3.9737,3.9538,3.9388,3.9388,3.9388,3.9388,3.9388,3.9388,3.9388,3.9388,3.9388,3.9328,3.92,3.8586,3.7868,3.709,3.6417,3.5833,3.5355,3.531,3.4532,3.2587,3.2901,3.3006,3.2467,3.1743,3.2633,3.5412,3.5217,3.518,3.5471,3.5064,3.4774,3.4675,3.3866,3.3356,3.3124,3.3124,3.3124,3.3124,3.3124,3.3319,3.3721,3.3847,3.4148,3.46,3.5232,3.5495,3.5558,3.6157,3.6405,3.6405,4.329,4.329,4.363,4.4624,4.4412,4.4915,4.7239,4.6815,4.6712,4.8047,4.8225,4.8047,4.7556,4.681,4.5907,4.4821,4.3924,4.3401,4.3419,4.4151,4.4892,4.5591,4.6759,4.7518,4.7768,4.7637,4.7138,4.6208,4.5762,4.5285,4.4774,4.4335,4.381,4.329,4.329,4.329,4.329,4.329,4.329,4.329,4.329,4.329,4.3409,4.4412,4.4611,4.4464,4.5393,4.5728,4.5832,4.6329,4.6369,4.6208,4.6295,4.5992,4.5284,4.3898,4.3778,4.3885,4.2862,4.201,4.1213,4.0309,3.9737,3.9388,3.9388,3.9388,3.9388,3.9388,3.9388,3.9388,3.9388,3.9388,3.9388,3.9388,3.9388,3.9388,3.9388,3.8826,3.8392,3.8392,3.7808,3.7285,3.6941,3.6911,3.6163,3.4321,3.4515,3.4386,3.3568,3.3657,3.4317,3.5536,3.5069,3.5036,3.5546,3.4974,3.4449,3.3884,3.3345,3.3124,3.3124,3.3124,3.3124,3.3093,3.3345,3.3621,3.3935,3.4449,3.4781,3.5107,3.5705,3.5918,3.5956,3.6304,3.6405,3.6405,4.329,4.329,4.3551,4.4434,4.4004,4.4403,4.6986,4.685,4.702,4.8781,4.9001,4.9001,4.9001,4.7384,4.6093,4.5544,4.3556,4.2264,4.2013,4.2816,4.3901,4.5222,4.601,4.6693,4.7374,4.7239,4.6712,4.5746,4.4968,4.4586,4.4548,4.3708,4.329,4.329,4.329,4.329,4.329,4.329,4.329,4.329,4.329,4.329,4.3409,4.4259,4.4154,4.3685,4.4469,4.4722,4.4678,4.4928,4.5288,4.5512,4.4974,4.4699,4.4151,4.201,4.2479,4.34,4.1989,4.1062,4.0343,3.9574,3.9388,3.9388,3.9388,3.9388,3.9388,3.9388,3.9388,3.9388,3.9388,3.9265,3.9124,3.8985,3.9071,3.9124,3.8985,3.8721,3.8506,3.8314,3.7823,3.7367,3.7124,3.7213,3.7253,3.7164,3.7183,3.6787,3.5957,3.5703,3.5574,3.5647,3.4995,3.5028,3.5882,3.5016,3.4324,3.3771,3.3307,3.3124,3.3124,3.3124,3.3119,3.3275,3.3696,3.3985,3.4223,3.5107,3.5545,3.5671,3.6182,3.6405,3.6405,3.6405,3.6405,3.6405,4.329,4.329,4.3369,4.3527,4.4105,4.4968,4.6224,4.6952,4.777,4.8861,4.9001,4.9001,4.9001,4.6848,4.5436,4.5496,4.2598,4.1117,4.1949,4.2816,4.3593,4.428,4.4444,4.5105,4.6387,4.5634,4.4759,4.3756,4.3615,4.3512,4.3512,4.3369,4.329,4.329,4.329,4.329,4.329,4.329,4.329,4.329,4.329,4.329,4.3329,4.3472,4.3145,4.265,4.2773,4.2448,4.2203,4.3557,4.3541,4.3206,4.4416,4.422,4.3256,4.1835,4.1581,4.1539,4.0172,3.9702,3.9574,3.9409,3.9388,3.9388,3.9388,3.9388,3.9388,3.9388,3.9388,3.9388,3.9388,3.8671,3.782,3.7058,3.7563,3.7777,3.7063,3.8272,3.8905,3.7999,3.7786,3.7161,3.5755,3.6396,3.6671,3.6179,3.6136,3.605,3.5921,3.4712,3.4433,3.5336,3.5255,3.5102,3.4925,3.4306,3.3746,3.3206,3.3162,3.3124,3.3124,3.3124,3.3332,3.3771,3.3859,3.4424,3.5257,3.542,3.5818,3.6292,3.6367,3.6405,3.6405,3.6405,3.6405,3.6405,4.329,4.3747,4.4105,4.4105,4.493,4.5869,4.6815,4.6884,4.7373,4.8829,4.8545,4.8107,4.7755,4.6321,4.4853,4.3599,4.2126,4.1081,4.0634,4.1742,4.2739,4.3378,4.4204,4.4872,4.5436,4.4495,4.3467,4.2371,4.2371,4.2371,4.2371,4.2371,4.2725,4.329,4.329,4.329,4.329,4.329,4.329,4.329,4.329,4.329,4.3245,4.294,4.2402,4.1826,4.1467,4.1115,4.0965,4.1704,4.2161,4.2518,4.3266,4.318,4.2626,4.1669,4.0876,4.0187,3.9589,3.9388,3.9388,3.9388,3.9388,3.9388,3.9388,3.9388,3.9388,3.9388,3.9388,3.9388,3.9388,3.898,3.8524,3.8142,3.8402,3.8509,3.8112,3.8345,3.8345,3.7866,3.7305,3.6623,3.5878,3.6224,3.638,3.6061,3.6047,3.5833,3.5294,3.4888,3.476,3.4981,3.5257,3.5035,3.4286,3.4022,3.3621,3.3124,3.3124,3.3232,3.352,3.352,3.3822,3.4361,3.4663,3.5031,3.552,3.5868,3.6132,3.6405,3.6405,3.6405,3.6405,3.6405,3.6405,3.6405,4.329,4.3927,4.4526,4.4774,4.5561,4.6454,4.7155,4.685,4.6952,4.8193,4.7737,4.7028,4.634,4.544,4.4055,4.1984,4.1554,4.0904,3.9691,4.0908,4.1868,4.2448,4.3888,4.4606,4.4457,4.3442,4.2467,4.1587,4.1337,4.1211,4.1211,4.1462,4.207,4.29,4.317,4.329,4.329,4.329,4.329,4.329,4.329,4.32,4.3045,4.259,4.1901,4.1085,4.0576,4.0397,4.0427,4.0576,4.1399,4.2396,4.2396,4.2396,4.2246,4.1384,4.0337,3.9388,3.9388,3.9388,3.9388,3.9388,3.9388,3.9388,3.9388,3.9388,3.9388,3.9388,3.9388,3.9388,3.9388,3.9177,3.8956,3.8775,3.8894,3.8868,3.8409,3.8031,3.7639,3.7165,3.6344,3.5734,3.5494,3.5694,3.5854,3.5854,3.5854,3.5507,3.4746,3.4965,3.4955,3.4525,3.5019,3.4843,3.3909,3.3771,3.3495,3.3124,3.3206,3.3483,3.3909,3.4035,3.4399,3.4893,3.532,3.5571,3.5768,3.6194,3.6405,3.6405,3.6405,3.6405,3.6405,3.6405,3.6405,3.6405,4.329,4.3369,4.3693,4.4624,4.5561,4.6208,4.6279,4.6986,4.7223,4.6488,4.6349,4.6057,4.5385,4.3924,4.2704,4.188,4.0456,3.9808,4.0292,4.101,4.1438,4.152,4.2722,4.3427,4.3409,4.2316,4.167,4.1587,4.0532,4.0029,4.0073,4.1127,4.1629,4.1767,4.282,4.329,4.329,4.329,4.329,4.329,4.329,4.297,4.247,4.2425,4.1617,4.0472,4.0412,4.0397,4.0487,4.11,4.1811,4.2396,4.2396,4.2396,4.2156,4.0846,3.9963,3.9388,3.9388,3.9388,3.9388,3.9388,3.9388,3.9388,3.9388,3.9388,3.9388,3.9388,3.9388,3.9388,3.9388,3.8583,3.7652,3.685,3.7388,3.7298,3.5467,3.672,3.7074,3.5142,3.4869,3.4428,3.3428,3.4233,3.4815,3.4815,3.4815,3.4787,3.4705,3.4251,3.3998,3.396,3.45,3.45,3.3909,3.3395,3.3162,3.3124,3.3596,3.3859,3.3922,3.4424,3.4919,3.5445,3.5483,3.583,3.6355,3.6392,3.6405,3.6405,3.6405,3.6405,3.6405,3.6405,3.6405,3.6405,4.329,4.381,4.4533,4.5488,4.5977,4.6384,4.6986,4.6365,4.5941,4.6173,4.569,4.4934,4.3823,4.3161,4.2124,4.0477,3.976,3.9694,4.0352,4.101,4.1743,4.2551,4.3021,4.329,4.329,4.2193,4.1253,4.0532,3.9346,3.9183,3.9899,4.0318,4.1309,4.2684,4.3115,4.329,4.329,4.329,4.309,4.2731,4.2731,4.2342,4.1752,4.1332,4.0831,4.0352,3.9933,4.0053,4.0382,4.0217,4.0876,4.1722,4.1265,4.1145,4.0965,4.0053,3.9619,3.9388,3.9388,3.9388,3.9388,3.9388,3.9388,3.9388,3.9388,3.9388,3.9388,3.9388,3.9388,3.9388,3.9388,3.9068,3.867,3.8351,3.8578,3.8297,3.6901,3.6774,3.6265,3.4869,3.4108,3.3556,3.3154,3.3471,3.3713,3.3713,3.3713,3.3713,3.3713,3.3844,3.3897,3.3897,3.411,3.3947,3.3395,3.3181,3.3257,3.3583,3.3796,3.4261,3.4881,3.5094,3.5529,3.6056,3.6056,3.6169,3.6405,3.6405,3.6405,3.6405,3.6405,3.6405,3.6405,3.6405,3.6405,3.6263,4.329,4.3849,4.4646,4.5597,4.5762,4.5977,4.6609,4.5649,4.4909,4.5253,4.4743,4.3852,4.2508,4.237,4.1559,3.9565,3.9388,3.9783,4.0651,4.1184,4.2006,4.326,4.3135,4.303,4.303,4.1372,4.021,3.9609,3.8023,3.7813,3.8841,3.9549,4.0717,4.2263,4.2996,4.329,4.329,4.329,4.2955,4.2396,4.2396,4.1886,4.1025,4.0576,4.0277,4.0038,3.9589,3.9843,4.0337,3.9888,4.0472,4.1265,4.0606,4.0262,4.0008,3.9508,3.9388,3.9388,3.9388,3.9388,3.9388,3.9388,3.9388,3.9388,3.9388,3.9388,3.9388,3.9388,3.9388,3.9388,3.9388,3.9388,3.9301,3.8943,3.8907,3.842,3.6996,3.6186,3.5359,3.4304,3.3556,3.3124,3.3124,3.3124,3.3124,3.3124,3.3124,3.3156,3.3319,3.3533,3.3721,3.3884,3.3734,3.3458,3.3124,3.3124,3.3357,3.3897,3.4073,3.4605,3.5508,3.5683,3.6006,3.6405,3.6405,3.6405,3.6405,3.6405,3.6405,3.6405,3.6405,3.6405,3.6405,3.6405,3.6108,3.5619,4.329,4.329,4.363,4.4624,4.4774,4.4774,4.4812,4.4774,4.4434,4.3448,4.329,4.2836,4.1519,4.1422,4.0846,3.9529,3.9388,3.9978,4.1294,4.1533,4.2111,4.321,4.2716,4.2357,4.2357,3.9562,3.8338,3.8904,3.6606,3.5818,3.6452,3.8796,3.9899,4.0029,4.2304,4.329,4.329,4.329,4.294,4.2396,4.2396,4.1602,4.0382,4.0382,3.9993,3.9388,3.9388,3.9843,4.0397,4.0397,4.0831,4.1265,4.0591,3.9948,3.9388,3.9388,3.9388,3.9388,3.9388,3.9388,3.9388,3.9388,3.9388,3.9388,3.9388,3.9388,3.9388,3.9388,3.9388,3.9388,3.9388,3.9388,3.9068,3.7956,3.7791,3.7074,3.4979,3.4705,3.4317,3.324,3.3124,3.3124,3.3124,3.3124,3.3124,3.3124,3.3124,3.3319,3.3872,3.337,3.3319,3.3872,3.337,3.3124,3.3124,3.3124,3.3357,3.3909,3.4462,3.4969,3.552,3.6119,3.6405,3.6405,3.6405,3.6405,3.6405,3.6405,3.6405,3.6405,3.6405,3.6405,3.6405,3.6405,3.5571,3.4434,4.329,4.329,4.363,4.4624,4.422,4.4004,4.4699,4.4182,4.363,4.3329,4.294,4.2327,4.1474,4.0965,4.0352,3.9499,3.9388,3.9617,4.0091,3.9934,4.0112,4.0859,4.0362,4.0008,4.0008,3.803,3.722,3.7765,3.627,3.621,3.7632,3.9183,4.0332,4.1169,4.2644,4.329,4.326,4.2851,4.2267,4.1677,4.1175,4.0472,3.9709,3.9709,3.9553,3.9388,3.9388,3.9843,4.0337,3.9873,4.0142,4.0576,3.9918,3.9574,3.9388,3.9388,3.9388,3.9388,3.9388,3.9388,3.9388,3.9388,3.9388,3.9388,3.9388,3.9388,3.9388,3.9388,3.9388,3.9388,3.9388,3.9388,3.9068,3.7956,3.7791,3.7074,3.4979,3.4705,3.4317,3.324,3.3124,3.3124,3.3124,3.3124,3.3124,3.3124,3.3124,3.3156,3.3319,3.3212,3.3156,3.3319,3.3156,3.3124,3.3124,3.3124,3.3545,3.4474,3.4638,3.5215,3.6119,3.6329,3.6405,3.6405,3.6405,3.6405,3.6405,3.6405,3.6405,3.6405,3.6405,3.6405,3.6405,3.6405,3.6156,3.5511,4.329,4.329,4.3472,4.4105,4.3693,4.3512,4.4105,4.3708,4.329,4.329,4.2761,4.2156,4.1444,4.0786,4.0127,3.9448,3.9454,3.9618,3.9977,3.9143,3.8725,3.8874,3.8041,3.7949,3.8601,3.7155,3.6564,3.6907,3.594,3.6381,3.8107,3.9057,4.0251,4.1629,4.2539,4.309,4.3245,4.2641,4.2021,4.1324,4.0666,4.0008,3.9388,3.9388,3.9388,3.9388,3.9388,3.9679,3.9948,3.9559,3.9694,3.9948,3.9544,3.9388,3.9388,3.9388,3.9388,3.9388,3.9388,3.9388,3.9388,3.9388,3.9388,3.9388,3.9388,3.9388,3.9388,3.9388,3.9388,3.9388,3.9388,3.9068,3.842,3.7343,3.6827,3.5975,3.4317,3.4079,3.3839,3.3197,3.3124,3.3124,3.3124,3.3124,3.3124,3.3124,3.3124,3.3124,3.3124,3.3124,3.3124,3.3124,3.3124,3.3124,3.3124,3.3124,3.3633,3.468,3.468,3.5303,3.6405,3.6405,3.6405,3.6405,3.6405,3.6405,3.6405,3.6405,3.6405,3.6405,3.6405,3.6405,3.6405,3.6405,3.6061,3.5307,4.329,4.329,4.329,4.329,4.329,4.329,4.329,4.329,4.329,4.329,4.2716,4.2081,4.1482,4.0741,4.0068,3.9433,3.941,3.9682,4.0232,3.8787,3.7627,3.7108,3.6075,3.6257,3.7812,3.6724,3.6245,3.6384,3.5839,3.6475,3.8196,3.8724,3.9873,4.1513,4.2051,4.2641,4.317,4.253,4.1886,4.1235,4.0576,3.9948,3.9388,3.9388,3.9388,3.9388,3.9388,3.9388,3.9388,3.9388,3.9388,3.9388,3.9388,3.9388,3.9388,3.9388,3.9388,3.9388,3.9388,3.9388,3.9388,3.9388,3.9388,3.9388,3.9388,3.9388,3.9388,3.9388,3.9388,3.9388,3.9388,3.8509,3.7472,3.6369,3.5359,3.4304,3.324,3.3124,3.3124,3.3124,3.3124,3.3124,3.3124,3.3124,3.3124,3.3124,3.3124,3.3124,3.3124,3.3124,3.3124,3.3124,3.3124,3.3124,3.3124,3.3174,3.3684,3.468,3.468,3.5303,3.6405,3.6405,3.6405,3.6405,3.6405,3.6405,3.6405,3.6405,3.6405,3.6405,3.6405,3.6405,3.6405,3.6405,3.5619,3.4374,4.32,4.329,4.329,4.329,4.329,4.329,4.329,4.329,4.329,4.329,4.2327,4.1572,4.1437,4.0337,3.9574,3.9388,3.8646,3.8104,3.7862,3.6718,3.5813,3.5302,3.5395,3.5923,3.6823,3.5644,3.573,3.7065,3.6441,3.7042,3.8753,3.924,3.9965,4.0824,4.137,4.1991,4.253,4.1324,4.0741,4.0561,3.9903,3.9544,3.9388,3.9388,3.9388,3.9388,3.9388,3.9388,3.9388,3.9388,3.9388,3.9388,3.9388,3.9388,3.9388,3.9388,3.9388,3.9388,3.9388,3.9388,3.9388,3.9388,3.9388,3.9388,3.9388,3.9388,3.9388,3.9388,3.9388,3.9388,3.9388,3.8509,3.7472,3.6369,3.5359,3.4304,3.324,3.3124,3.3124,3.3124,3.3124,3.3124,3.3124,3.3124,3.3124,3.3124,3.3124,3.3124,3.3124,3.3124,3.3124,3.3124,3.3124,3.3124,3.3124,3.3508,3.406,3.468,3.468,3.5303,3.6405,3.6405,3.6405,3.6405,3.6405,3.6405,3.6405,3.6405,3.6405,3.6405,3.6405,3.6405,3.6405,3.6405,3.6216,3.5763,4.317,4.329,4.329,4.329,4.329,4.329,4.329,4.329,4.329,4.329,4.2192,4.1422,4.1422,4.0487,4.0008,4.0337,3.8577,3.7503,3.7537,3.6016,3.4881,3.4324,3.5608,3.6378,3.6492,3.6946,3.7502,3.8101,3.7196,3.7804,3.9689,3.8829,3.9307,4.0974,4.0948,4.128,4.1871,4.0831,4.0397,4.0337,3.9694,3.9388,3.9388,3.9388,3.9388,3.9388,3.9388,3.9388,3.9388,3.9388,3.9388,3.9388,3.9388,3.9388,3.9388,3.9388,3.9388,3.9388,3.9388,3.9388,3.9388,3.9388,3.9388,3.9388,3.9388,3.9388,3.9388,3.9388,3.898,3.862,3.862,3.7357,3.612,3.5601,3.4609,3.3755,3.3197,3.3124,3.3124,3.3124,3.3124,3.3124,3.3124,3.3124,3.3124,3.3124,3.3124,3.3124,3.3124,3.3124,3.3124,3.3124,3.3124,3.3124,3.3124,3.3621,3.4173,3.468,3.4944,3.5554,3.6405,3.6405,3.6405,3.6405,3.6405,3.6405,3.6405,3.6405,3.6405,3.6405,3.6405,3.6405,3.6405,3.6405,3.6013,3.5367,4.317,4.329,4.329,4.329,4.329,4.329,4.329,4.329,4.329,4.329,4.2297,4.1587,4.1587,4.0861,4.0621,4.116,3.8771,3.7368,3.7662,3.58,3.4572,3.4192,3.6126,3.7183,3.7214,3.919,3.9882,3.9284,3.8036,3.8413,4.0265,3.8159,3.8546,4.0933,4.0442,4.0591,4.1175,4.0502,4.0232,4.0187,3.9634,3.9388,3.9388,3.9388,3.9388,3.9388,3.9388,3.9388,3.9388,3.9388,3.9388,3.9388,3.9388,3.9388,3.9388,3.9388,3.9388,3.9388,3.9388,3.9388,3.9388,3.9388,3.9388,3.9388,3.9388,3.9388,3.9388,3.9388,3.8546,3.7791,3.7791,3.6094,3.4705,3.4705,3.3797,3.3124,3.3124,3.3124,3.3124,3.3124,3.3124,3.3124,3.3124,3.3124,3.3124,3.3124,3.3124,3.3124,3.3124,3.3124,3.3124,3.3124,3.3124,3.3124,3.3124,3.3621,3.4173,3.4726,3.5232,3.583,3.6405,3.6405,3.6405,3.6405,3.6405,3.6405,3.6405,3.6405,3.6405,3.6405,3.6405,3.6405,3.6405,3.6405,3.5715,3.4727,4.317,4.329,4.329,4.329,4.329,4.329,4.329,4.329,4.329,4.329,4.2686,4.2261,4.2261,4.113,4.0442,4.0531,3.8804,3.7345,3.6486,3.537,3.4918,3.5355,3.6184,3.7747,4.0182,4.0965,4.1063,4.0392,3.8727,3.8321,3.9009,3.8136,3.8213,3.9151,3.941,3.9918,4.0487,3.9828,3.9559,3.9544,3.9454,3.9388,3.9388,3.9388,3.9388,3.9388,3.9388,3.9388,3.9388,3.9388,3.9388,3.9388,3.9388,3.9388,3.9388,3.9388,3.9388,3.9388,3.9388,3.9388,3.9388,3.9388,3.9388,3.9388,3.9388,3.9388,3.9388,3.9388,3.8546,3.7791,3.7791,3.6094,3.4705,3.4705,3.3797,3.3124,3.3124,3.3124,3.3124,3.3124,3.3124,3.3124,3.3124,3.3124,3.3124,3.3124,3.3124,3.3124,3.3124,3.3124,3.3124,3.3124,3.3124,3.3124,3.3124,3.3621,3.4173,3.4726,3.5232,3.583,3.6405,3.6405,3.6405,3.6405,3.6405,3.6405,3.6405,3.6405,3.6405,3.6405,3.6405,3.6405,3.6405,3.6405,3.631,3.6108,4.317,4.329,4.329,4.329,4.329,4.329,4.329,4.329,4.329,4.329,4.2761,4.2396,4.2396,4.119,4.0397,4.0397,3.88,3.75,3.6749,3.5439,3.5101,3.6072,3.699,3.8491,4.0758,4.1953,4.1752,4.0158,3.8765,3.8357,3.875,3.7512,3.707,3.7402,3.8789,3.9216,3.8956,3.926,3.9388,3.9388,3.9388,3.9388,3.9388,3.9388,3.9388,3.9388,3.9388,3.9388,3.9388,3.9388,3.9388,3.9388,3.9388,3.9388,3.9388,3.9388,3.9388,3.9388,3.9388,3.9388,3.9388,3.9388,3.9388,3.9388,3.9388,3.9388,3.9388,3.9388,3.8546,3.7625,3.7021,3.5682,3.4511,3.3911,3.3398,3.3124,3.3124,3.3124,3.3124,3.3124,3.3124,3.3124,3.3124,3.3124,3.3124,3.3124,3.3124,3.3124,3.3124,3.3124,3.3124,3.3124,3.3124,3.3124,3.3124,3.3621,3.4173,3.4726,3.5232,3.583,3.6405,3.6405,3.6405,3.6405,3.6405,3.6405,3.6405,3.6405,3.6405,3.6405,3.6405,3.5966,3.5271,3.5271,3.5271,3.5367]}]]